<?xml version="1.0" encoding="UTF-8" standalone="no" ?>
<gpx xmlns="http://www.topografix.com/GPX/1/1" xmlns:xsi="http://www.w3.org/2001/XMLSchema-instance" xsi:schemaLocation="http://www.topografix.com/GPX/1/1 http://www.topografix.com/GPX/1/1/gpx.xsd" version="1.1" creator="VisuGPX - https://www.visugpx.com">
  <metadata>
    <name>faisanderie-canche mercier 40 km \&quot;ludique\&quot;</name>
    <desc><![CDATA[Départ P ONF de la faisanderie (mais possible depuis P gorges franchard ou P canche mercier)
première heure à tricoter trialo-ludique avec passage au mont aigu
on finit par d\'anciens abris de carriers dans les gorges de houx avant d\'attaquer cap à l\'ouest les gorges de franchard par les mares
petites boucles au rocher sablon,
point de vue de hurlevent,
petites boucles (route louve/louvard),
puis direction la platière qui fini en crête plein ouest
retour avec quelques boucle pour finir d\'attendrir la viande... ]]></desc>
  </metadata>
  <wpt lat="48.39878" lon="2.59082">
    <ele>116</ele>
    <name><![CDATA[exploration beau sentier]]></name>
    <desc><![CDATA[Forêt]]></desc>
    <cmt><![CDATA[Forêt]]></cmt>
  </wpt>
  <trk>
    <name><![CDATA[trace ludique]]></name>
    <trkseg>
      <trkpt lat="48.40479" lon="2.67798">
        <ele>84</ele>
        <time>2012-01-12T12:50:28Z</time>
      </trkpt>
      <trkpt lat="48.4048" lon="2.67797">
        <ele>84</ele>
        <time>2012-01-12T12:51:11Z</time>
      </trkpt>
      <trkpt lat="48.40517" lon="2.67761">
        <ele>85</ele>
        <time>2012-01-12T12:51:28Z</time>
      </trkpt>
      <trkpt lat="48.40555" lon="2.67771">
        <ele>86</ele>
        <time>2012-01-12T12:51:40Z</time>
      </trkpt>
      <trkpt lat="48.40592" lon="2.67804">
        <ele>86</ele>
        <time>2012-01-12T12:51:53Z</time>
      </trkpt>
      <trkpt lat="48.40647" lon="2.6782">
        <ele>87</ele>
        <time>2012-01-12T12:52:08Z</time>
      </trkpt>
      <trkpt lat="48.40715" lon="2.67842">
        <ele>90</ele>
        <time>2012-01-12T12:52:27Z</time>
      </trkpt>
      <trkpt lat="48.40751" lon="2.67866">
        <ele>93</ele>
        <time>2012-01-12T12:52:40Z</time>
      </trkpt>
      <trkpt lat="48.40753" lon="2.67872">
        <ele>93</ele>
        <time>2012-01-12T12:52:42Z</time>
      </trkpt>
      <trkpt lat="48.40784" lon="2.67899">
        <ele>93</ele>
        <time>2012-01-12T12:52:53Z</time>
      </trkpt>
      <trkpt lat="48.40857" lon="2.67923">
        <ele>93</ele>
        <time>2012-01-12T12:53:13Z</time>
      </trkpt>
      <trkpt lat="48.40895" lon="2.67933">
        <ele>93</ele>
        <time>2012-01-12T12:53:23Z</time>
      </trkpt>
      <trkpt lat="48.40904" lon="2.67886">
        <ele>93</ele>
        <time>2012-01-12T12:53:34Z</time>
      </trkpt>
      <trkpt lat="48.4091" lon="2.67807">
        <ele>94</ele>
        <time>2012-01-12T12:53:51Z</time>
      </trkpt>
      <trkpt lat="48.40916" lon="2.67744">
        <ele>95</ele>
        <time>2012-01-12T12:54:06Z</time>
      </trkpt>
      <trkpt lat="48.40925" lon="2.67692">
        <ele>96</ele>
        <time>2012-01-12T12:54:20Z</time>
      </trkpt>
      <trkpt lat="48.40932" lon="2.67677">
        <ele>96</ele>
        <time>2012-01-12T12:54:25Z</time>
      </trkpt>
      <trkpt lat="48.40936" lon="2.67677">
        <ele>96</ele>
        <time>2012-01-12T12:54:34Z</time>
      </trkpt>
      <trkpt lat="48.40935" lon="2.67675">
        <ele>96</ele>
        <time>2012-01-12T12:54:42Z</time>
      </trkpt>
      <trkpt lat="48.4094" lon="2.67647">
        <ele>97</ele>
        <time>2012-01-12T12:54:51Z</time>
      </trkpt>
      <trkpt lat="48.40959" lon="2.67601">
        <ele>98</ele>
        <time>2012-01-12T12:55:06Z</time>
      </trkpt>
      <trkpt lat="48.40976" lon="2.67559">
        <ele>100</ele>
        <time>2012-01-12T12:55:18Z</time>
      </trkpt>
      <trkpt lat="48.4098" lon="2.67537">
        <ele>101</ele>
        <time>2012-01-12T12:55:25Z</time>
      </trkpt>
      <trkpt lat="48.40989" lon="2.67528">
        <ele>102</ele>
        <time>2012-01-12T12:55:37Z</time>
      </trkpt>
      <trkpt lat="48.40992" lon="2.67524">
        <ele>102</ele>
        <time>2012-01-12T12:55:40Z</time>
      </trkpt>
      <trkpt lat="48.40996" lon="2.67519">
        <ele>102</ele>
        <time>2012-01-12T12:55:46Z</time>
      </trkpt>
      <trkpt lat="48.40991" lon="2.67503">
        <ele>102</ele>
        <time>2012-01-12T12:55:53Z</time>
      </trkpt>
      <trkpt lat="48.40989" lon="2.67494">
        <ele>104</ele>
        <time>2012-01-12T12:55:57Z</time>
      </trkpt>
      <trkpt lat="48.40982" lon="2.67472">
        <ele>105</ele>
        <time>2012-01-12T12:56:05Z</time>
      </trkpt>
      <trkpt lat="48.40978" lon="2.67439">
        <ele>105</ele>
        <time>2012-01-12T12:56:16Z</time>
      </trkpt>
      <trkpt lat="48.40964" lon="2.67392">
        <ele>110</ele>
        <time>2012-01-12T12:56:35Z</time>
      </trkpt>
      <trkpt lat="48.40961" lon="2.67359">
        <ele>111</ele>
        <time>2012-01-12T12:56:48Z</time>
      </trkpt>
      <trkpt lat="48.4096" lon="2.67351">
        <ele>111</ele>
        <time>2012-01-12T12:56:51Z</time>
      </trkpt>
      <trkpt lat="48.40943" lon="2.67337">
        <ele>113</ele>
        <time>2012-01-12T12:57:06Z</time>
      </trkpt>
      <trkpt lat="48.40939" lon="2.67334">
        <ele>114</ele>
        <time>2012-01-12T12:57:13Z</time>
      </trkpt>
      <trkpt lat="48.40934" lon="2.67335">
        <ele>114</ele>
        <time>2012-01-12T12:57:25Z</time>
      </trkpt>
      <trkpt lat="48.4093" lon="2.67336">
        <ele>115</ele>
        <time>2012-01-12T12:57:30Z</time>
      </trkpt>
      <trkpt lat="48.40923" lon="2.67328">
        <ele>118</ele>
        <time>2012-01-12T12:57:36Z</time>
      </trkpt>
      <trkpt lat="48.40897" lon="2.67301">
        <ele>119</ele>
        <time>2012-01-12T12:57:54Z</time>
      </trkpt>
      <trkpt lat="48.40872" lon="2.67278">
        <ele>119</ele>
        <time>2012-01-12T12:58:10Z</time>
      </trkpt>
      <trkpt lat="48.40856" lon="2.67267">
        <ele>119</ele>
        <time>2012-01-12T12:58:22Z</time>
      </trkpt>
      <trkpt lat="48.40825" lon="2.67236">
        <ele>118</ele>
        <time>2012-01-12T12:58:35Z</time>
      </trkpt>
      <trkpt lat="48.40814" lon="2.67223">
        <ele>118</ele>
        <time>2012-01-12T12:58:40Z</time>
      </trkpt>
      <trkpt lat="48.4081" lon="2.67213">
        <ele>118</ele>
        <time>2012-01-12T12:58:43Z</time>
      </trkpt>
      <trkpt lat="48.40802" lon="2.67207">
        <ele>117</ele>
        <time>2012-01-12T12:58:46Z</time>
      </trkpt>
      <trkpt lat="48.40792" lon="2.67168">
        <ele>117</ele>
        <time>2012-01-12T12:58:55Z</time>
      </trkpt>
      <trkpt lat="48.40784" lon="2.6713">
        <ele>120</ele>
        <time>2012-01-12T12:59:05Z</time>
      </trkpt>
      <trkpt lat="48.4078" lon="2.67091">
        <ele>121</ele>
        <time>2012-01-12T12:59:15Z</time>
      </trkpt>
      <trkpt lat="48.4077" lon="2.67022">
        <ele>124</ele>
        <time>2012-01-12T12:59:29Z</time>
      </trkpt>
      <trkpt lat="48.40757" lon="2.66964">
        <ele>128</ele>
        <time>2012-01-12T12:59:42Z</time>
      </trkpt>
      <trkpt lat="48.40744" lon="2.66897">
        <ele>124</ele>
        <time>2012-01-12T12:59:56Z</time>
      </trkpt>
      <trkpt lat="48.40737" lon="2.66847">
        <ele>124</ele>
        <time>2012-01-12T13:00:05Z</time>
      </trkpt>
      <trkpt lat="48.40735" lon="2.66829">
        <ele>124</ele>
        <time>2012-01-12T13:00:09Z</time>
      </trkpt>
      <trkpt lat="48.4075" lon="2.66753">
        <ele>127</ele>
        <time>2012-01-12T13:00:25Z</time>
      </trkpt>
      <trkpt lat="48.40755" lon="2.66745">
        <ele>128</ele>
        <time>2012-01-12T13:00:27Z</time>
      </trkpt>
      <trkpt lat="48.40757" lon="2.66664">
        <ele>129</ele>
        <time>2012-01-12T13:00:41Z</time>
      </trkpt>
      <trkpt lat="48.40756" lon="2.66658">
        <ele>129</ele>
        <time>2012-01-12T13:00:42Z</time>
      </trkpt>
      <trkpt lat="48.40773" lon="2.66606">
        <ele>132</ele>
        <time>2012-01-12T13:00:53Z</time>
      </trkpt>
      <trkpt lat="48.40796" lon="2.66542">
        <ele>134</ele>
        <time>2012-01-12T13:01:07Z</time>
      </trkpt>
      <trkpt lat="48.40803" lon="2.6649">
        <ele>135</ele>
        <time>2012-01-12T13:01:17Z</time>
      </trkpt>
      <trkpt lat="48.40802" lon="2.66411">
        <ele>136</ele>
        <time>2012-01-12T13:01:30Z</time>
      </trkpt>
      <trkpt lat="48.40799" lon="2.66352">
        <ele>136</ele>
        <time>2012-01-12T13:01:40Z</time>
      </trkpt>
      <trkpt lat="48.40799" lon="2.66341">
        <ele>136</ele>
        <time>2012-01-12T13:01:42Z</time>
      </trkpt>
      <trkpt lat="48.40802" lon="2.66271">
        <ele>135</ele>
        <time>2012-01-12T13:01:53Z</time>
      </trkpt>
      <trkpt lat="48.40801" lon="2.66256">
        <ele>135</ele>
        <time>2012-01-12T13:01:55Z</time>
      </trkpt>
      <trkpt lat="48.40787" lon="2.66186">
        <ele>133</ele>
        <time>2012-01-12T13:02:05Z</time>
      </trkpt>
      <trkpt lat="48.4077" lon="2.66118">
        <ele>132</ele>
        <time>2012-01-12T13:02:12Z</time>
      </trkpt>
      <trkpt lat="48.40759" lon="2.66053">
        <ele>131</ele>
        <time>2012-01-12T13:02:18Z</time>
      </trkpt>
      <trkpt lat="48.40758" lon="2.66026">
        <ele>131</ele>
        <time>2012-01-12T13:02:21Z</time>
      </trkpt>
      <trkpt lat="48.40755" lon="2.65978">
        <ele>131</ele>
        <time>2012-01-12T13:02:26Z</time>
      </trkpt>
      <trkpt lat="48.40756" lon="2.659">
        <ele>129</ele>
        <time>2012-01-12T13:02:34Z</time>
      </trkpt>
      <trkpt lat="48.40761" lon="2.65871">
        <ele>130</ele>
        <time>2012-01-12T13:02:37Z</time>
      </trkpt>
      <trkpt lat="48.40776" lon="2.65817">
        <ele>129</ele>
        <time>2012-01-12T13:02:43Z</time>
      </trkpt>
      <trkpt lat="48.4078" lon="2.65782">
        <ele>129</ele>
        <time>2012-01-12T13:02:47Z</time>
      </trkpt>
      <trkpt lat="48.40781" lon="2.65745">
        <ele>129</ele>
        <time>2012-01-12T13:02:51Z</time>
      </trkpt>
      <trkpt lat="48.40786" lon="2.65713">
        <ele>130</ele>
        <time>2012-01-12T13:02:55Z</time>
      </trkpt>
      <trkpt lat="48.40794" lon="2.65689">
        <ele>131</ele>
        <time>2012-01-12T13:02:59Z</time>
      </trkpt>
      <trkpt lat="48.40799" lon="2.65658">
        <ele>132</ele>
        <time>2012-01-12T13:03:03Z</time>
      </trkpt>
      <trkpt lat="48.40794" lon="2.65586">
        <ele>132</ele>
        <time>2012-01-12T13:03:11Z</time>
      </trkpt>
      <trkpt lat="48.40793" lon="2.65576">
        <ele>133</ele>
        <time>2012-01-12T13:03:12Z</time>
      </trkpt>
      <trkpt lat="48.40777" lon="2.65546">
        <ele>132</ele>
        <time>2012-01-12T13:03:16Z</time>
      </trkpt>
      <trkpt lat="48.40765" lon="2.65517">
        <ele>132</ele>
        <time>2012-01-12T13:03:20Z</time>
      </trkpt>
      <trkpt lat="48.40772" lon="2.65464">
        <ele>132</ele>
        <time>2012-01-12T13:03:26Z</time>
      </trkpt>
      <trkpt lat="48.40782" lon="2.65398">
        <ele>131</ele>
        <time>2012-01-12T13:03:34Z</time>
      </trkpt>
      <trkpt lat="48.40779" lon="2.65365">
        <ele>131</ele>
        <time>2012-01-12T13:03:38Z</time>
      </trkpt>
      <trkpt lat="48.40783" lon="2.65334">
        <ele>131</ele>
        <time>2012-01-12T13:03:42Z</time>
      </trkpt>
      <trkpt lat="48.40783" lon="2.65309">
        <ele>131</ele>
        <time>2012-01-12T13:03:45Z</time>
      </trkpt>
      <trkpt lat="48.40783" lon="2.65274">
        <ele>130</ele>
        <time>2012-01-12T13:03:49Z</time>
      </trkpt>
      <trkpt lat="48.40788" lon="2.65234">
        <ele>129</ele>
        <time>2012-01-12T13:03:53Z</time>
      </trkpt>
      <trkpt lat="48.40788" lon="2.65213">
        <ele>129</ele>
        <time>2012-01-12T13:03:55Z</time>
      </trkpt>
      <trkpt lat="48.40791" lon="2.65155">
        <ele>126</ele>
        <time>2012-01-12T13:04:02Z</time>
      </trkpt>
      <trkpt lat="48.40788" lon="2.65138">
        <ele>126</ele>
        <time>2012-01-12T13:04:04Z</time>
      </trkpt>
      <trkpt lat="48.4077" lon="2.65109">
        <ele>125</ele>
        <time>2012-01-12T13:04:08Z</time>
      </trkpt>
      <trkpt lat="48.40735" lon="2.65072">
        <ele>119</ele>
        <time>2012-01-12T13:04:14Z</time>
      </trkpt>
      <trkpt lat="48.40721" lon="2.65048">
        <ele>118</ele>
        <time>2012-01-12T13:04:17Z</time>
      </trkpt>
      <trkpt lat="48.40712" lon="2.65019">
        <ele>118</ele>
        <time>2012-01-12T13:04:20Z</time>
      </trkpt>
      <trkpt lat="48.40694" lon="2.64983">
        <ele>118</ele>
        <time>2012-01-12T13:04:28Z</time>
      </trkpt>
      <trkpt lat="48.40683" lon="2.64967">
        <ele>118</ele>
        <time>2012-01-12T13:04:45Z</time>
      </trkpt>
      <trkpt lat="48.40667" lon="2.64941">
        <ele>119</ele>
        <time>2012-01-12T13:05:01Z</time>
      </trkpt>
      <trkpt lat="48.40663" lon="2.64922">
        <ele>118</ele>
        <time>2012-01-12T13:05:06Z</time>
      </trkpt>
      <trkpt lat="48.40663" lon="2.649">
        <ele>118</ele>
        <time>2012-01-12T13:05:12Z</time>
      </trkpt>
      <trkpt lat="48.40653" lon="2.64844">
        <ele>119</ele>
        <time>2012-01-12T13:05:29Z</time>
      </trkpt>
      <trkpt lat="48.40649" lon="2.6483">
        <ele>121</ele>
        <time>2012-01-12T13:05:33Z</time>
      </trkpt>
      <trkpt lat="48.40643" lon="2.64821">
        <ele>120</ele>
        <time>2012-01-12T13:05:37Z</time>
      </trkpt>
      <trkpt lat="48.40618" lon="2.64806">
        <ele>120</ele>
        <time>2012-01-12T13:05:48Z</time>
      </trkpt>
      <trkpt lat="48.40607" lon="2.64803">
        <ele>120</ele>
        <time>2012-01-12T13:05:51Z</time>
      </trkpt>
      <trkpt lat="48.40587" lon="2.64789">
        <ele>119</ele>
        <time>2012-01-12T13:05:58Z</time>
      </trkpt>
      <trkpt lat="48.40587" lon="2.64775">
        <ele>120</ele>
        <time>2012-01-12T13:06:03Z</time>
      </trkpt>
      <trkpt lat="48.40597" lon="2.64721">
        <ele>122</ele>
        <time>2012-01-12T13:06:18Z</time>
      </trkpt>
      <trkpt lat="48.40608" lon="2.64655">
        <ele>125</ele>
        <time>2012-01-12T13:06:35Z</time>
      </trkpt>
      <trkpt lat="48.40613" lon="2.64622">
        <ele>126</ele>
        <time>2012-01-12T13:06:44Z</time>
      </trkpt>
      <trkpt lat="48.40607" lon="2.64569">
        <ele>127</ele>
        <time>2012-01-12T13:06:58Z</time>
      </trkpt>
      <trkpt lat="48.40595" lon="2.64509">
        <ele>127</ele>
        <time>2012-01-12T13:07:13Z</time>
      </trkpt>
      <trkpt lat="48.406" lon="2.64442">
        <ele>129</ele>
        <time>2012-01-12T13:07:30Z</time>
      </trkpt>
      <trkpt lat="48.40624" lon="2.64409">
        <ele>132</ele>
        <time>2012-01-12T13:07:43Z</time>
      </trkpt>
      <trkpt lat="48.40629" lon="2.64361">
        <ele>133</ele>
        <time>2012-01-12T13:07:57Z</time>
      </trkpt>
      <trkpt lat="48.4063" lon="2.64313">
        <ele>134</ele>
        <time>2012-01-12T13:08:12Z</time>
      </trkpt>
      <trkpt lat="48.40631" lon="2.64276">
        <ele>135</ele>
        <time>2012-01-12T13:08:26Z</time>
      </trkpt>
      <trkpt lat="48.40631" lon="2.64271">
        <ele>135</ele>
        <time>2012-01-12T13:08:28Z</time>
      </trkpt>
      <trkpt lat="48.40635" lon="2.64263">
        <ele>135</ele>
        <time>2012-01-12T13:08:32Z</time>
      </trkpt>
      <trkpt lat="48.40645" lon="2.64256">
        <ele>135</ele>
        <time>2012-01-12T13:08:38Z</time>
      </trkpt>
      <trkpt lat="48.40654" lon="2.64244">
        <ele>136</ele>
        <time>2012-01-12T13:08:46Z</time>
      </trkpt>
      <trkpt lat="48.40658" lon="2.64259">
        <ele>135</ele>
        <time>2012-01-12T13:08:56Z</time>
      </trkpt>
      <trkpt lat="48.40658" lon="2.64264">
        <ele>135</ele>
        <time>2012-01-12T13:08:58Z</time>
      </trkpt>
      <trkpt lat="48.4066" lon="2.64272">
        <ele>135</ele>
        <time>2012-01-12T13:09:02Z</time>
      </trkpt>
      <trkpt lat="48.40663" lon="2.64289">
        <ele>135</ele>
        <time>2012-01-12T13:09:10Z</time>
      </trkpt>
      <trkpt lat="48.40672" lon="2.64306">
        <ele>136</ele>
        <time>2012-01-12T13:09:20Z</time>
      </trkpt>
      <trkpt lat="48.4068" lon="2.64338">
        <ele>135</ele>
        <time>2012-01-12T13:09:33Z</time>
      </trkpt>
      <trkpt lat="48.40675" lon="2.64359">
        <ele>134</ele>
        <time>2012-01-12T13:09:40Z</time>
      </trkpt>
      <trkpt lat="48.40669" lon="2.64388">
        <ele>134</ele>
        <time>2012-01-12T13:09:50Z</time>
      </trkpt>
      <trkpt lat="48.40667" lon="2.64393">
        <ele>133</ele>
        <time>2012-01-12T13:09:52Z</time>
      </trkpt>
      <trkpt lat="48.40664" lon="2.64413">
        <ele>132</ele>
        <time>2012-01-12T13:09:58Z</time>
      </trkpt>
      <trkpt lat="48.40655" lon="2.64452">
        <ele>130</ele>
        <time>2012-01-12T13:10:11Z</time>
      </trkpt>
      <trkpt lat="48.40649" lon="2.64481">
        <ele>130</ele>
        <time>2012-01-12T13:10:18Z</time>
      </trkpt>
      <trkpt lat="48.40653" lon="2.6449">
        <ele>130</ele>
        <time>2012-01-12T13:10:22Z</time>
      </trkpt>
      <trkpt lat="48.40655" lon="2.64505">
        <ele>130</ele>
        <time>2012-01-12T13:10:27Z</time>
      </trkpt>
      <trkpt lat="48.40662" lon="2.64544">
        <ele>128</ele>
        <time>2012-01-12T13:10:40Z</time>
      </trkpt>
      <trkpt lat="48.4067" lon="2.64586">
        <ele>127</ele>
        <time>2012-01-12T13:10:53Z</time>
      </trkpt>
      <trkpt lat="48.40672" lon="2.6459">
        <ele>127</ele>
        <time>2012-01-12T13:10:55Z</time>
      </trkpt>
      <trkpt lat="48.40676" lon="2.64593">
        <ele>127</ele>
        <time>2012-01-12T13:10:58Z</time>
      </trkpt>
      <trkpt lat="48.40675" lon="2.64626">
        <ele>127</ele>
        <time>2012-01-12T13:11:08Z</time>
      </trkpt>
      <trkpt lat="48.40675" lon="2.64633">
        <ele>127</ele>
        <time>2012-01-12T13:11:10Z</time>
      </trkpt>
      <trkpt lat="48.40672" lon="2.64651">
        <ele>127</ele>
        <time>2012-01-12T13:11:17Z</time>
      </trkpt>
      <trkpt lat="48.40673" lon="2.64655">
        <ele>127</ele>
        <time>2012-01-12T13:11:19Z</time>
      </trkpt>
      <trkpt lat="48.40668" lon="2.64665">
        <ele>127</ele>
        <time>2012-01-12T13:11:25Z</time>
      </trkpt>
      <trkpt lat="48.40664" lon="2.64675">
        <ele>126</ele>
        <time>2012-01-12T13:11:31Z</time>
      </trkpt>
      <trkpt lat="48.40663" lon="2.6468">
        <ele>125</ele>
        <time>2012-01-12T13:11:33Z</time>
      </trkpt>
      <trkpt lat="48.40659" lon="2.64684">
        <ele>125</ele>
        <time>2012-01-12T13:11:37Z</time>
      </trkpt>
      <trkpt lat="48.40659" lon="2.64683">
        <ele>125</ele>
        <time>2012-01-12T13:11:52Z</time>
      </trkpt>
      <trkpt lat="48.4066" lon="2.64684">
        <ele>125</ele>
        <time>2012-01-12T13:12:05Z</time>
      </trkpt>
      <trkpt lat="48.4066" lon="2.64684">
        <ele>125</ele>
        <time>2012-01-12T13:12:08Z</time>
      </trkpt>
      <trkpt lat="48.40658" lon="2.64696">
        <ele>124</ele>
        <time>2012-01-12T13:12:13Z</time>
      </trkpt>
      <trkpt lat="48.40657" lon="2.64707">
        <ele>124</ele>
        <time>2012-01-12T13:12:17Z</time>
      </trkpt>
      <trkpt lat="48.40654" lon="2.64711">
        <ele>124</ele>
        <time>2012-01-12T13:12:19Z</time>
      </trkpt>
      <trkpt lat="48.40651" lon="2.64719">
        <ele>124</ele>
        <time>2012-01-12T13:12:23Z</time>
      </trkpt>
      <trkpt lat="48.40648" lon="2.64726">
        <ele>124</ele>
        <time>2012-01-12T13:12:26Z</time>
      </trkpt>
      <trkpt lat="48.40646" lon="2.64737">
        <ele>123</ele>
        <time>2012-01-12T13:12:35Z</time>
      </trkpt>
      <trkpt lat="48.40646" lon="2.64743">
        <ele>123</ele>
        <time>2012-01-12T13:12:37Z</time>
      </trkpt>
      <trkpt lat="48.40644" lon="2.64765">
        <ele>121</ele>
        <time>2012-01-12T13:12:42Z</time>
      </trkpt>
      <trkpt lat="48.40626" lon="2.64799">
        <ele>120</ele>
        <time>2012-01-12T13:12:50Z</time>
      </trkpt>
      <trkpt lat="48.4061" lon="2.64808">
        <ele>120</ele>
        <time>2012-01-12T13:12:55Z</time>
      </trkpt>
      <trkpt lat="48.40595" lon="2.64836">
        <ele>117</ele>
        <time>2012-01-12T13:13:01Z</time>
      </trkpt>
      <trkpt lat="48.40589" lon="2.64871">
        <ele>117</ele>
        <time>2012-01-12T13:13:07Z</time>
      </trkpt>
      <trkpt lat="48.40571" lon="2.64898">
        <ele>115</ele>
        <time>2012-01-12T13:13:13Z</time>
      </trkpt>
      <trkpt lat="48.40553" lon="2.64933">
        <ele>113</ele>
        <time>2012-01-12T13:13:18Z</time>
      </trkpt>
      <trkpt lat="48.4053" lon="2.64959">
        <ele>112</ele>
        <time>2012-01-12T13:13:26Z</time>
      </trkpt>
      <trkpt lat="48.40525" lon="2.64964">
        <ele>112</ele>
        <time>2012-01-12T13:13:29Z</time>
      </trkpt>
      <trkpt lat="48.40523" lon="2.64974">
        <ele>112</ele>
        <time>2012-01-12T13:13:39Z</time>
      </trkpt>
      <trkpt lat="48.40515" lon="2.65005">
        <ele>111</ele>
        <time>2012-01-12T13:13:48Z</time>
      </trkpt>
      <trkpt lat="48.40507" lon="2.6501">
        <ele>111</ele>
        <time>2012-01-12T13:13:51Z</time>
      </trkpt>
      <trkpt lat="48.40498" lon="2.65025">
        <ele>109</ele>
        <time>2012-01-12T13:13:56Z</time>
      </trkpt>
      <trkpt lat="48.40493" lon="2.65046">
        <ele>108</ele>
        <time>2012-01-12T13:14:00Z</time>
      </trkpt>
      <trkpt lat="48.40476" lon="2.65064">
        <ele>108</ele>
        <time>2012-01-12T13:14:06Z</time>
      </trkpt>
      <trkpt lat="48.40465" lon="2.65072">
        <ele>108</ele>
        <time>2012-01-12T13:14:10Z</time>
      </trkpt>
      <trkpt lat="48.40461" lon="2.65079">
        <ele>107</ele>
        <time>2012-01-12T13:14:14Z</time>
      </trkpt>
      <trkpt lat="48.40467" lon="2.65088">
        <ele>106</ele>
        <time>2012-01-12T13:14:18Z</time>
      </trkpt>
      <trkpt lat="48.40459" lon="2.65115">
        <ele>106</ele>
        <time>2012-01-12T13:14:26Z</time>
      </trkpt>
      <trkpt lat="48.40407" lon="2.65135">
        <ele>103</ele>
        <time>2012-01-12T13:14:41Z</time>
      </trkpt>
      <trkpt lat="48.40386" lon="2.65161">
        <ele>103</ele>
        <time>2012-01-12T13:14:50Z</time>
      </trkpt>
      <trkpt lat="48.40405" lon="2.65222">
        <ele>101</ele>
        <time>2012-01-12T13:15:03Z</time>
      </trkpt>
      <trkpt lat="48.4043" lon="2.65293">
        <ele>102</ele>
        <time>2012-01-12T13:15:18Z</time>
      </trkpt>
      <trkpt lat="48.40443" lon="2.65332">
        <ele>102</ele>
        <time>2012-01-12T13:15:26Z</time>
      </trkpt>
      <trkpt lat="48.40443" lon="2.65344">
        <ele>101</ele>
        <time>2012-01-12T13:15:29Z</time>
      </trkpt>
      <trkpt lat="48.40452" lon="2.65357">
        <ele>102</ele>
        <time>2012-01-12T13:15:35Z</time>
      </trkpt>
      <trkpt lat="48.40463" lon="2.65364">
        <ele>103</ele>
        <time>2012-01-12T13:15:41Z</time>
      </trkpt>
      <trkpt lat="48.40487" lon="2.65361">
        <ele>104</ele>
        <time>2012-01-12T13:15:53Z</time>
      </trkpt>
      <trkpt lat="48.40506" lon="2.65358">
        <ele>110</ele>
        <time>2012-01-12T13:16:03Z</time>
      </trkpt>
      <trkpt lat="48.40514" lon="2.65356">
        <ele>110</ele>
        <time>2012-01-12T13:16:07Z</time>
      </trkpt>
      <trkpt lat="48.40521" lon="2.65364">
        <ele>111</ele>
        <time>2012-01-12T13:16:12Z</time>
      </trkpt>
      <trkpt lat="48.40534" lon="2.65376">
        <ele>112</ele>
        <time>2012-01-12T13:16:18Z</time>
      </trkpt>
      <trkpt lat="48.4054" lon="2.65385">
        <ele>112</ele>
        <time>2012-01-12T13:16:23Z</time>
      </trkpt>
      <trkpt lat="48.40543" lon="2.65391">
        <ele>112</ele>
        <time>2012-01-12T13:16:27Z</time>
      </trkpt>
      <trkpt lat="48.40551" lon="2.65401">
        <ele>113</ele>
        <time>2012-01-12T13:16:32Z</time>
      </trkpt>
      <trkpt lat="48.40562" lon="2.65406">
        <ele>114</ele>
        <time>2012-01-12T13:16:38Z</time>
      </trkpt>
      <trkpt lat="48.40569" lon="2.65399">
        <ele>114</ele>
        <time>2012-01-12T13:16:43Z</time>
      </trkpt>
      <trkpt lat="48.40575" lon="2.65401">
        <ele>115</ele>
        <time>2012-01-12T13:16:46Z</time>
      </trkpt>
      <trkpt lat="48.4059" lon="2.65394">
        <ele>118</ele>
        <time>2012-01-12T13:16:56Z</time>
      </trkpt>
      <trkpt lat="48.40593" lon="2.65392">
        <ele>118</ele>
        <time>2012-01-12T13:16:58Z</time>
      </trkpt>
      <trkpt lat="48.40603" lon="2.65392">
        <ele>118</ele>
        <time>2012-01-12T13:17:04Z</time>
      </trkpt>
      <trkpt lat="48.40608" lon="2.65396">
        <ele>118</ele>
        <time>2012-01-12T13:17:07Z</time>
      </trkpt>
      <trkpt lat="48.40616" lon="2.654">
        <ele>118</ele>
        <time>2012-01-12T13:17:12Z</time>
      </trkpt>
      <trkpt lat="48.40617" lon="2.65405">
        <ele>118</ele>
        <time>2012-01-12T13:17:16Z</time>
      </trkpt>
      <trkpt lat="48.40616" lon="2.65409">
        <ele>118</ele>
        <time>2012-01-12T13:17:20Z</time>
      </trkpt>
      <trkpt lat="48.4062" lon="2.6541">
        <ele>118</ele>
        <time>2012-01-12T13:17:23Z</time>
      </trkpt>
      <trkpt lat="48.40624" lon="2.65417">
        <ele>119</ele>
        <time>2012-01-12T13:17:26Z</time>
      </trkpt>
      <trkpt lat="48.40621" lon="2.65429">
        <ele>119</ele>
        <time>2012-01-12T13:17:38Z</time>
      </trkpt>
      <trkpt lat="48.4062" lon="2.65431">
        <ele>119</ele>
        <time>2012-01-12T13:17:40Z</time>
      </trkpt>
      <trkpt lat="48.40618" lon="2.65436">
        <ele>119</ele>
        <time>2012-01-12T13:17:43Z</time>
      </trkpt>
      <trkpt lat="48.40614" lon="2.65444">
        <ele>119</ele>
        <time>2012-01-12T13:17:56Z</time>
      </trkpt>
      <trkpt lat="48.40609" lon="2.65451">
        <ele>119</ele>
        <time>2012-01-12T13:18:07Z</time>
      </trkpt>
      <trkpt lat="48.40607" lon="2.65452">
        <ele>119</ele>
        <time>2012-01-12T13:18:09Z</time>
      </trkpt>
      <trkpt lat="48.40604" lon="2.65449">
        <ele>119</ele>
        <time>2012-01-12T13:18:16Z</time>
      </trkpt>
      <trkpt lat="48.40603" lon="2.65445">
        <ele>119</ele>
        <time>2012-01-12T13:18:27Z</time>
      </trkpt>
      <trkpt lat="48.40603" lon="2.65444">
        <ele>119</ele>
        <time>2012-01-12T13:18:49Z</time>
      </trkpt>
      <trkpt lat="48.406" lon="2.65445">
        <ele>119</ele>
        <time>2012-01-12T13:24:13Z</time>
      </trkpt>
      <trkpt lat="48.40599" lon="2.6544">
        <ele>119</ele>
        <time>2012-01-12T13:24:16Z</time>
      </trkpt>
      <trkpt lat="48.40592" lon="2.65424">
        <ele>118</ele>
        <time>2012-01-12T13:24:25Z</time>
      </trkpt>
      <trkpt lat="48.40589" lon="2.65426">
        <ele>118</ele>
        <time>2012-01-12T13:24:27Z</time>
      </trkpt>
      <trkpt lat="48.40584" lon="2.65434">
        <ele>118</ele>
        <time>2012-01-12T13:24:31Z</time>
      </trkpt>
      <trkpt lat="48.40576" lon="2.65436">
        <ele>116</ele>
        <time>2012-01-12T13:24:37Z</time>
      </trkpt>
      <trkpt lat="48.40569" lon="2.65438">
        <ele>116</ele>
        <time>2012-01-12T13:24:42Z</time>
      </trkpt>
      <trkpt lat="48.40567" lon="2.65447">
        <ele>116</ele>
        <time>2012-01-12T13:24:54Z</time>
      </trkpt>
      <trkpt lat="48.40563" lon="2.65445">
        <ele>116</ele>
        <time>2012-01-12T13:25:05Z</time>
      </trkpt>
      <trkpt lat="48.40561" lon="2.65442">
        <ele>116</ele>
        <time>2012-01-12T13:25:21Z</time>
      </trkpt>
      <trkpt lat="48.40561" lon="2.65441">
        <ele>116</ele>
        <time>2012-01-12T13:27:42Z</time>
      </trkpt>
      <trkpt lat="48.40556" lon="2.6544">
        <ele>115</ele>
        <time>2012-01-12T13:27:45Z</time>
      </trkpt>
      <trkpt lat="48.40543" lon="2.65441">
        <ele>115</ele>
        <time>2012-01-12T13:27:51Z</time>
      </trkpt>
      <trkpt lat="48.40539" lon="2.65442">
        <ele>115</ele>
        <time>2012-01-12T13:27:53Z</time>
      </trkpt>
      <trkpt lat="48.40527" lon="2.65444">
        <ele>114</ele>
        <time>2012-01-12T13:28:00Z</time>
      </trkpt>
      <trkpt lat="48.40519" lon="2.65447">
        <ele>114</ele>
        <time>2012-01-12T13:28:05Z</time>
      </trkpt>
      <trkpt lat="48.40516" lon="2.65448">
        <ele>114</ele>
        <time>2012-01-12T13:28:07Z</time>
      </trkpt>
      <trkpt lat="48.40505" lon="2.65451">
        <ele>113</ele>
        <time>2012-01-12T13:28:12Z</time>
      </trkpt>
      <trkpt lat="48.40499" lon="2.65451">
        <ele>107</ele>
        <time>2012-01-12T13:28:15Z</time>
      </trkpt>
      <trkpt lat="48.40487" lon="2.65458">
        <ele>106</ele>
        <time>2012-01-12T13:28:22Z</time>
      </trkpt>
      <trkpt lat="48.40485" lon="2.65461">
        <ele>106</ele>
        <time>2012-01-12T13:28:25Z</time>
      </trkpt>
      <trkpt lat="48.4048" lon="2.65455">
        <ele>106</ele>
        <time>2012-01-12T13:28:32Z</time>
      </trkpt>
      <trkpt lat="48.40473" lon="2.65462">
        <ele>106</ele>
        <time>2012-01-12T13:28:36Z</time>
      </trkpt>
      <trkpt lat="48.40471" lon="2.65461">
        <ele>106</ele>
        <time>2012-01-12T13:28:38Z</time>
      </trkpt>
      <trkpt lat="48.40466" lon="2.65465">
        <ele>105</ele>
        <time>2012-01-12T13:28:44Z</time>
      </trkpt>
      <trkpt lat="48.40462" lon="2.65449">
        <ele>105</ele>
        <time>2012-01-12T13:28:51Z</time>
      </trkpt>
      <trkpt lat="48.40447" lon="2.65452">
        <ele>104</ele>
        <time>2012-01-12T13:28:57Z</time>
      </trkpt>
      <trkpt lat="48.40426" lon="2.65479">
        <ele>102</ele>
        <time>2012-01-12T13:29:07Z</time>
      </trkpt>
      <trkpt lat="48.40425" lon="2.65485">
        <ele>102</ele>
        <time>2012-01-12T13:29:09Z</time>
      </trkpt>
      <trkpt lat="48.4042" lon="2.65497">
        <ele>100</ele>
        <time>2012-01-12T13:29:14Z</time>
      </trkpt>
      <trkpt lat="48.4042" lon="2.65503">
        <ele>100</ele>
        <time>2012-01-12T13:29:16Z</time>
      </trkpt>
      <trkpt lat="48.40419" lon="2.65511">
        <ele>102</ele>
        <time>2012-01-12T13:29:28Z</time>
      </trkpt>
      <trkpt lat="48.40415" lon="2.65517">
        <ele>99</ele>
        <time>2012-01-12T13:29:33Z</time>
      </trkpt>
      <trkpt lat="48.40414" lon="2.65528">
        <ele>99</ele>
        <time>2012-01-12T13:29:38Z</time>
      </trkpt>
      <trkpt lat="48.40419" lon="2.65533">
        <ele>104</ele>
        <time>2012-01-12T13:29:42Z</time>
      </trkpt>
      <trkpt lat="48.40419" lon="2.65542">
        <ele>104</ele>
        <time>2012-01-12T13:29:46Z</time>
      </trkpt>
      <trkpt lat="48.40428" lon="2.65565">
        <ele>104</ele>
        <time>2012-01-12T13:29:54Z</time>
      </trkpt>
      <trkpt lat="48.40431" lon="2.65577">
        <ele>103</ele>
        <time>2012-01-12T13:29:59Z</time>
      </trkpt>
      <trkpt lat="48.40436" lon="2.65593">
        <ele>103</ele>
        <time>2012-01-12T13:30:04Z</time>
      </trkpt>
      <trkpt lat="48.40451" lon="2.65617">
        <ele>105</ele>
        <time>2012-01-12T13:30:15Z</time>
      </trkpt>
      <trkpt lat="48.4047" lon="2.65646">
        <ele>105</ele>
        <time>2012-01-12T13:30:25Z</time>
      </trkpt>
      <trkpt lat="48.40489" lon="2.65688">
        <ele>104</ele>
        <time>2012-01-12T13:30:39Z</time>
      </trkpt>
      <trkpt lat="48.40491" lon="2.65697">
        <ele>104</ele>
        <time>2012-01-12T13:30:42Z</time>
      </trkpt>
      <trkpt lat="48.40493" lon="2.65713">
        <ele>103</ele>
        <time>2012-01-12T13:30:53Z</time>
      </trkpt>
      <trkpt lat="48.40492" lon="2.65715">
        <ele>103</ele>
        <time>2012-01-12T13:30:54Z</time>
      </trkpt>
      <trkpt lat="48.40494" lon="2.65721">
        <ele>103</ele>
        <time>2012-01-12T13:30:56Z</time>
      </trkpt>
      <trkpt lat="48.40492" lon="2.65744">
        <ele>103</ele>
        <time>2012-01-12T13:31:00Z</time>
      </trkpt>
      <trkpt lat="48.40491" lon="2.65761">
        <ele>103</ele>
        <time>2012-01-12T13:31:04Z</time>
      </trkpt>
      <trkpt lat="48.4049" lon="2.65777">
        <ele>102</ele>
        <time>2012-01-12T13:31:09Z</time>
      </trkpt>
      <trkpt lat="48.40487" lon="2.65801">
        <ele>102</ele>
        <time>2012-01-12T13:31:20Z</time>
      </trkpt>
      <trkpt lat="48.40483" lon="2.65811">
        <ele>102</ele>
        <time>2012-01-12T13:31:25Z</time>
      </trkpt>
      <trkpt lat="48.40472" lon="2.65813">
        <ele>101</ele>
        <time>2012-01-12T13:31:34Z</time>
      </trkpt>
      <trkpt lat="48.40466" lon="2.65818">
        <ele>101</ele>
        <time>2012-01-12T13:31:38Z</time>
      </trkpt>
      <trkpt lat="48.40461" lon="2.65826">
        <ele>101</ele>
        <time>2012-01-12T13:31:42Z</time>
      </trkpt>
      <trkpt lat="48.40445" lon="2.65848">
        <ele>101</ele>
        <time>2012-01-12T13:31:53Z</time>
      </trkpt>
      <trkpt lat="48.40441" lon="2.65871">
        <ele>101</ele>
        <time>2012-01-12T13:31:59Z</time>
      </trkpt>
      <trkpt lat="48.40439" lon="2.65888">
        <ele>101</ele>
        <time>2012-01-12T13:32:02Z</time>
      </trkpt>
      <trkpt lat="48.40437" lon="2.65909">
        <ele>101</ele>
        <time>2012-01-12T13:32:07Z</time>
      </trkpt>
      <trkpt lat="48.40431" lon="2.65918">
        <ele>101</ele>
        <time>2012-01-12T13:32:11Z</time>
      </trkpt>
      <trkpt lat="48.40436" lon="2.65946">
        <ele>101</ele>
        <time>2012-01-12T13:32:21Z</time>
      </trkpt>
      <trkpt lat="48.40436" lon="2.65948">
        <ele>101</ele>
        <time>2012-01-12T13:32:22Z</time>
      </trkpt>
      <trkpt lat="48.40439" lon="2.65952">
        <ele>101</ele>
        <time>2012-01-12T13:32:24Z</time>
      </trkpt>
      <trkpt lat="48.40441" lon="2.65952">
        <ele>102</ele>
        <time>2012-01-12T13:32:26Z</time>
      </trkpt>
      <trkpt lat="48.40444" lon="2.65959">
        <ele>102</ele>
        <time>2012-01-12T13:32:30Z</time>
      </trkpt>
      <trkpt lat="48.40447" lon="2.65969">
        <ele>102</ele>
        <time>2012-01-12T13:32:34Z</time>
      </trkpt>
      <trkpt lat="48.40443" lon="2.66017">
        <ele>102</ele>
        <time>2012-01-12T13:32:45Z</time>
      </trkpt>
      <trkpt lat="48.40438" lon="2.66028">
        <ele>102</ele>
        <time>2012-01-12T13:32:48Z</time>
      </trkpt>
      <trkpt lat="48.40435" lon="2.66051">
        <ele>102</ele>
        <time>2012-01-12T13:32:57Z</time>
      </trkpt>
      <trkpt lat="48.4043" lon="2.66057">
        <ele>102</ele>
        <time>2012-01-12T13:33:02Z</time>
      </trkpt>
      <trkpt lat="48.40419" lon="2.66054">
        <ele>102</ele>
        <time>2012-01-12T13:33:05Z</time>
      </trkpt>
      <trkpt lat="48.40392" lon="2.66057">
        <ele>99</ele>
        <time>2012-01-12T13:33:11Z</time>
      </trkpt>
      <trkpt lat="48.40382" lon="2.66064">
        <ele>99</ele>
        <time>2012-01-12T13:33:19Z</time>
      </trkpt>
      <trkpt lat="48.40364" lon="2.66081">
        <ele>98</ele>
        <time>2012-01-12T13:33:39Z</time>
      </trkpt>
      <trkpt lat="48.40336" lon="2.66141">
        <ele>99</ele>
        <time>2012-01-12T13:33:55Z</time>
      </trkpt>
      <trkpt lat="48.40316" lon="2.6618">
        <ele>100</ele>
        <time>2012-01-12T13:34:07Z</time>
      </trkpt>
      <trkpt lat="48.40305" lon="2.66201">
        <ele>101</ele>
        <time>2012-01-12T13:34:14Z</time>
      </trkpt>
      <trkpt lat="48.40298" lon="2.66215">
        <ele>102</ele>
        <time>2012-01-12T13:34:18Z</time>
      </trkpt>
      <trkpt lat="48.40276" lon="2.6623">
        <ele>102</ele>
        <time>2012-01-12T13:34:27Z</time>
      </trkpt>
      <trkpt lat="48.40265" lon="2.66241">
        <ele>103</ele>
        <time>2012-01-12T13:34:33Z</time>
      </trkpt>
      <trkpt lat="48.40244" lon="2.66255">
        <ele>105</ele>
        <time>2012-01-12T13:34:43Z</time>
      </trkpt>
      <trkpt lat="48.40223" lon="2.66266">
        <ele>106</ele>
        <time>2012-01-12T13:34:52Z</time>
      </trkpt>
      <trkpt lat="48.40206" lon="2.66285">
        <ele>106</ele>
        <time>2012-01-12T13:34:59Z</time>
      </trkpt>
      <trkpt lat="48.40199" lon="2.66295">
        <ele>106</ele>
        <time>2012-01-12T13:35:04Z</time>
      </trkpt>
      <trkpt lat="48.40196" lon="2.66305">
        <ele>106</ele>
        <time>2012-01-12T13:35:08Z</time>
      </trkpt>
      <trkpt lat="48.40191" lon="2.66319">
        <ele>106</ele>
        <time>2012-01-12T13:35:15Z</time>
      </trkpt>
      <trkpt lat="48.40191" lon="2.66323">
        <ele>106</ele>
        <time>2012-01-12T13:35:17Z</time>
      </trkpt>
      <trkpt lat="48.40182" lon="2.66332">
        <ele>106</ele>
        <time>2012-01-12T13:35:23Z</time>
      </trkpt>
      <trkpt lat="48.40177" lon="2.66343">
        <ele>107</ele>
        <time>2012-01-12T13:35:29Z</time>
      </trkpt>
      <trkpt lat="48.40172" lon="2.66354">
        <ele>108</ele>
        <time>2012-01-12T13:35:33Z</time>
      </trkpt>
      <trkpt lat="48.40172" lon="2.66364">
        <ele>109</ele>
        <time>2012-01-12T13:35:37Z</time>
      </trkpt>
      <trkpt lat="48.40166" lon="2.66385">
        <ele>102</ele>
        <time>2012-01-12T13:35:45Z</time>
      </trkpt>
      <trkpt lat="48.40165" lon="2.66396">
        <ele>103</ele>
        <time>2012-01-12T13:35:48Z</time>
      </trkpt>
      <trkpt lat="48.40164" lon="2.66401">
        <ele>104</ele>
        <time>2012-01-12T13:35:50Z</time>
      </trkpt>
      <trkpt lat="48.4017" lon="2.66417">
        <ele>108</ele>
        <time>2012-01-12T13:35:58Z</time>
      </trkpt>
      <trkpt lat="48.40175" lon="2.66426">
        <ele>109</ele>
        <time>2012-01-12T13:36:02Z</time>
      </trkpt>
      <trkpt lat="48.40174" lon="2.66435">
        <ele>109</ele>
        <time>2012-01-12T13:36:06Z</time>
      </trkpt>
      <trkpt lat="48.40179" lon="2.66437">
        <ele>110</ele>
        <time>2012-01-12T13:36:10Z</time>
      </trkpt>
      <trkpt lat="48.40183" lon="2.66456">
        <ele>110</ele>
        <time>2012-01-12T13:36:16Z</time>
      </trkpt>
      <trkpt lat="48.40192" lon="2.66486">
        <ele>110</ele>
        <time>2012-01-12T13:36:28Z</time>
      </trkpt>
      <trkpt lat="48.40192" lon="2.66488">
        <ele>110</ele>
        <time>2012-01-12T13:36:29Z</time>
      </trkpt>
      <trkpt lat="48.40195" lon="2.66492">
        <ele>110</ele>
        <time>2012-01-12T13:36:32Z</time>
      </trkpt>
      <trkpt lat="48.40196" lon="2.66511">
        <ele>108</ele>
        <time>2012-01-12T13:36:44Z</time>
      </trkpt>
      <trkpt lat="48.40201" lon="2.6652">
        <ele>108</ele>
        <time>2012-01-12T13:37:02Z</time>
      </trkpt>
      <trkpt lat="48.40203" lon="2.66527">
        <ele>108</ele>
        <time>2012-01-12T13:37:09Z</time>
      </trkpt>
      <trkpt lat="48.40206" lon="2.6653">
        <ele>109</ele>
        <time>2012-01-12T13:37:13Z</time>
      </trkpt>
      <trkpt lat="48.4021" lon="2.66531">
        <ele>109</ele>
        <time>2012-01-12T13:37:17Z</time>
      </trkpt>
      <trkpt lat="48.40213" lon="2.66528">
        <ele>109</ele>
        <time>2012-01-12T13:37:21Z</time>
      </trkpt>
      <trkpt lat="48.4022" lon="2.66531">
        <ele>109</ele>
        <time>2012-01-12T13:37:26Z</time>
      </trkpt>
      <trkpt lat="48.4023" lon="2.66521">
        <ele>111</ele>
        <time>2012-01-12T13:37:34Z</time>
      </trkpt>
      <trkpt lat="48.40232" lon="2.66509">
        <ele>112</ele>
        <time>2012-01-12T13:37:45Z</time>
      </trkpt>
      <trkpt lat="48.40235" lon="2.66508">
        <ele>112</ele>
        <time>2012-01-12T13:37:54Z</time>
      </trkpt>
      <trkpt lat="48.40236" lon="2.66506">
        <ele>113</ele>
        <time>2012-01-12T13:37:56Z</time>
      </trkpt>
      <trkpt lat="48.40237" lon="2.66497">
        <ele>114</ele>
        <time>2012-01-12T13:38:00Z</time>
      </trkpt>
      <trkpt lat="48.40235" lon="2.66483">
        <ele>113</ele>
        <time>2012-01-12T13:38:14Z</time>
      </trkpt>
      <trkpt lat="48.40241" lon="2.66465">
        <ele>113</ele>
        <time>2012-01-12T13:38:29Z</time>
      </trkpt>
      <trkpt lat="48.40254" lon="2.6643">
        <ele>116</ele>
        <time>2012-01-12T13:38:41Z</time>
      </trkpt>
      <trkpt lat="48.40283" lon="2.66411">
        <ele>115</ele>
        <time>2012-01-12T13:38:49Z</time>
      </trkpt>
      <trkpt lat="48.40303" lon="2.66409">
        <ele>114</ele>
        <time>2012-01-12T13:38:54Z</time>
      </trkpt>
      <trkpt lat="48.40324" lon="2.66391">
        <ele>114</ele>
        <time>2012-01-12T13:38:58Z</time>
      </trkpt>
      <trkpt lat="48.40362" lon="2.66397">
        <ele>115</ele>
        <time>2012-01-12T13:39:06Z</time>
      </trkpt>
      <trkpt lat="48.40365" lon="2.66399">
        <ele>115</ele>
        <time>2012-01-12T13:39:07Z</time>
      </trkpt>
      <trkpt lat="48.40383" lon="2.66409">
        <ele>116</ele>
        <time>2012-01-12T13:39:14Z</time>
      </trkpt>
      <trkpt lat="48.40398" lon="2.66418">
        <ele>114</ele>
        <time>2012-01-12T13:39:22Z</time>
      </trkpt>
      <trkpt lat="48.40418" lon="2.66427">
        <ele>116</ele>
        <time>2012-01-12T13:39:32Z</time>
      </trkpt>
      <trkpt lat="48.4044" lon="2.66436">
        <ele>114</ele>
        <time>2012-01-12T13:39:43Z</time>
      </trkpt>
      <trkpt lat="48.40454" lon="2.66431">
        <ele>114</ele>
        <time>2012-01-12T13:39:50Z</time>
      </trkpt>
      <trkpt lat="48.40478" lon="2.6643">
        <ele>115</ele>
        <time>2012-01-12T13:40:02Z</time>
      </trkpt>
      <trkpt lat="48.40491" lon="2.66418">
        <ele>118</ele>
        <time>2012-01-12T13:40:10Z</time>
      </trkpt>
      <trkpt lat="48.40502" lon="2.66393">
        <ele>119</ele>
        <time>2012-01-12T13:40:20Z</time>
      </trkpt>
      <trkpt lat="48.40509" lon="2.66357">
        <ele>121</ele>
        <time>2012-01-12T13:40:31Z</time>
      </trkpt>
      <trkpt lat="48.40511" lon="2.66315">
        <ele>121</ele>
        <time>2012-01-12T13:40:43Z</time>
      </trkpt>
      <trkpt lat="48.40511" lon="2.66311">
        <ele>121</ele>
        <time>2012-01-12T13:40:44Z</time>
      </trkpt>
      <trkpt lat="48.40504" lon="2.66287">
        <ele>119</ele>
        <time>2012-01-12T13:40:56Z</time>
      </trkpt>
      <trkpt lat="48.40502" lon="2.66283">
        <ele>119</ele>
        <time>2012-01-12T13:40:58Z</time>
      </trkpt>
      <trkpt lat="48.40494" lon="2.66276">
        <ele>121</ele>
        <time>2012-01-12T13:41:04Z</time>
      </trkpt>
      <trkpt lat="48.40481" lon="2.66275">
        <ele>121</ele>
        <time>2012-01-12T13:41:15Z</time>
      </trkpt>
      <trkpt lat="48.40475" lon="2.6628">
        <ele>120</ele>
        <time>2012-01-12T13:41:29Z</time>
      </trkpt>
      <trkpt lat="48.4047" lon="2.66289">
        <ele>121</ele>
        <time>2012-01-12T13:41:42Z</time>
      </trkpt>
      <trkpt lat="48.40472" lon="2.66291">
        <ele>121</ele>
        <time>2012-01-12T13:41:46Z</time>
      </trkpt>
      <trkpt lat="48.40472" lon="2.66297">
        <ele>121</ele>
        <time>2012-01-12T13:41:49Z</time>
      </trkpt>
      <trkpt lat="48.40474" lon="2.66303">
        <ele>122</ele>
        <time>2012-01-12T13:41:53Z</time>
      </trkpt>
      <trkpt lat="48.40477" lon="2.66306">
        <ele>122</ele>
        <time>2012-01-12T13:41:55Z</time>
      </trkpt>
      <trkpt lat="48.40483" lon="2.66315">
        <ele>123</ele>
        <time>2012-01-12T13:42:00Z</time>
      </trkpt>
      <trkpt lat="48.40486" lon="2.66327">
        <ele>124</ele>
        <time>2012-01-12T13:42:06Z</time>
      </trkpt>
      <trkpt lat="48.40484" lon="2.66331">
        <ele>124</ele>
        <time>2012-01-12T13:42:08Z</time>
      </trkpt>
      <trkpt lat="48.40484" lon="2.66341">
        <ele>124</ele>
        <time>2012-01-12T13:42:13Z</time>
      </trkpt>
      <trkpt lat="48.40481" lon="2.66356">
        <ele>123</ele>
        <time>2012-01-12T13:42:19Z</time>
      </trkpt>
      <trkpt lat="48.40469" lon="2.66362">
        <ele>122</ele>
        <time>2012-01-12T13:42:28Z</time>
      </trkpt>
      <trkpt lat="48.40455" lon="2.66362">
        <ele>122</ele>
        <time>2012-01-12T13:42:37Z</time>
      </trkpt>
      <trkpt lat="48.4045" lon="2.66373">
        <ele>122</ele>
        <time>2012-01-12T13:42:52Z</time>
      </trkpt>
      <trkpt lat="48.40447" lon="2.66369">
        <ele>122</ele>
        <time>2012-01-12T13:45:56Z</time>
      </trkpt>
      <trkpt lat="48.40441" lon="2.66368">
        <ele>121</ele>
        <time>2012-01-12T13:46:02Z</time>
      </trkpt>
      <trkpt lat="48.40442" lon="2.66362">
        <ele>122</ele>
        <time>2012-01-12T13:46:06Z</time>
      </trkpt>
      <trkpt lat="48.40442" lon="2.66353">
        <ele>122</ele>
        <time>2012-01-12T13:46:10Z</time>
      </trkpt>
      <trkpt lat="48.40444" lon="2.66339">
        <ele>122</ele>
        <time>2012-01-12T13:46:21Z</time>
      </trkpt>
      <trkpt lat="48.40442" lon="2.66329">
        <ele>121</ele>
        <time>2012-01-12T13:46:35Z</time>
      </trkpt>
      <trkpt lat="48.40438" lon="2.66325">
        <ele>121</ele>
        <time>2012-01-12T13:47:08Z</time>
      </trkpt>
      <trkpt lat="48.40438" lon="2.66325">
        <ele>121</ele>
        <time>2012-01-12T13:47:14Z</time>
      </trkpt>
      <trkpt lat="48.40436" lon="2.66314">
        <ele>120</ele>
        <time>2012-01-12T13:47:20Z</time>
      </trkpt>
      <trkpt lat="48.40438" lon="2.66295">
        <ele>120</ele>
        <time>2012-01-12T13:47:28Z</time>
      </trkpt>
      <trkpt lat="48.40442" lon="2.6628">
        <ele>119</ele>
        <time>2012-01-12T13:47:34Z</time>
      </trkpt>
      <trkpt lat="48.40442" lon="2.66273">
        <ele>118</ele>
        <time>2012-01-12T13:47:36Z</time>
      </trkpt>
      <trkpt lat="48.40444" lon="2.66262">
        <ele>118</ele>
        <time>2012-01-12T13:47:47Z</time>
      </trkpt>
      <trkpt lat="48.40444" lon="2.66262">
        <ele>118</ele>
        <time>2012-01-12T13:48:21Z</time>
      </trkpt>
      <trkpt lat="48.40447" lon="2.66258">
        <ele>118</ele>
        <time>2012-01-12T13:48:24Z</time>
      </trkpt>
      <trkpt lat="48.4045" lon="2.66253">
        <ele>118</ele>
        <time>2012-01-12T13:48:27Z</time>
      </trkpt>
      <trkpt lat="48.40478" lon="2.66237">
        <ele>115</ele>
        <time>2012-01-12T13:48:41Z</time>
      </trkpt>
      <trkpt lat="48.40482" lon="2.66237">
        <ele>115</ele>
        <time>2012-01-12T13:48:43Z</time>
      </trkpt>
      <trkpt lat="48.40495" lon="2.66234">
        <ele>116</ele>
        <time>2012-01-12T13:48:51Z</time>
      </trkpt>
      <trkpt lat="48.40504" lon="2.66237">
        <ele>117</ele>
        <time>2012-01-12T13:48:55Z</time>
      </trkpt>
      <trkpt lat="48.40532" lon="2.66289">
        <ele>118</ele>
        <time>2012-01-12T13:49:06Z</time>
      </trkpt>
      <trkpt lat="48.40534" lon="2.66305">
        <ele>118</ele>
        <time>2012-01-12T13:49:10Z</time>
      </trkpt>
      <trkpt lat="48.40538" lon="2.66346">
        <ele>118</ele>
        <time>2012-01-12T13:49:17Z</time>
      </trkpt>
      <trkpt lat="48.4054" lon="2.66374">
        <ele>117</ele>
        <time>2012-01-12T13:49:22Z</time>
      </trkpt>
      <trkpt lat="48.40532" lon="2.66406">
        <ele>117</ele>
        <time>2012-01-12T13:49:31Z</time>
      </trkpt>
      <trkpt lat="48.40528" lon="2.66439">
        <ele>112</ele>
        <time>2012-01-12T13:49:40Z</time>
      </trkpt>
      <trkpt lat="48.40526" lon="2.66446">
        <ele>112</ele>
        <time>2012-01-12T13:49:41Z</time>
      </trkpt>
      <trkpt lat="48.40508" lon="2.6647">
        <ele>109</ele>
        <time>2012-01-12T13:49:46Z</time>
      </trkpt>
      <trkpt lat="48.40489" lon="2.66495">
        <ele>107</ele>
        <time>2012-01-12T13:49:51Z</time>
      </trkpt>
      <trkpt lat="48.40483" lon="2.6651">
        <ele>103</ele>
        <time>2012-01-12T13:49:53Z</time>
      </trkpt>
      <trkpt lat="48.40468" lon="2.6659">
        <ele>98</ele>
        <time>2012-01-12T13:50:01Z</time>
      </trkpt>
      <trkpt lat="48.40472" lon="2.66682">
        <ele>97</ele>
        <time>2012-01-12T13:50:15Z</time>
      </trkpt>
      <trkpt lat="48.40475" lon="2.66728">
        <ele>96</ele>
        <time>2012-01-12T13:50:25Z</time>
      </trkpt>
      <trkpt lat="48.40475" lon="2.6676">
        <ele>95</ele>
        <time>2012-01-12T13:50:31Z</time>
      </trkpt>
      <trkpt lat="48.40461" lon="2.66746">
        <ele>96</ele>
        <time>2012-01-12T13:50:40Z</time>
      </trkpt>
      <trkpt lat="48.40434" lon="2.66674">
        <ele>97</ele>
        <time>2012-01-12T13:50:56Z</time>
      </trkpt>
      <trkpt lat="48.40432" lon="2.66669">
        <ele>97</ele>
        <time>2012-01-12T13:50:57Z</time>
      </trkpt>
      <trkpt lat="48.4043" lon="2.6666">
        <ele>97</ele>
        <time>2012-01-12T13:50:59Z</time>
      </trkpt>
      <trkpt lat="48.4041" lon="2.66614">
        <ele>98</ele>
        <time>2012-01-12T13:51:11Z</time>
      </trkpt>
      <trkpt lat="48.40394" lon="2.66565">
        <ele>102</ele>
        <time>2012-01-12T13:51:24Z</time>
      </trkpt>
      <trkpt lat="48.40392" lon="2.66554">
        <ele>102</ele>
        <time>2012-01-12T13:51:27Z</time>
      </trkpt>
      <trkpt lat="48.40385" lon="2.66541">
        <ele>103</ele>
        <time>2012-01-12T13:51:31Z</time>
      </trkpt>
      <trkpt lat="48.40378" lon="2.66528">
        <ele>103</ele>
        <time>2012-01-12T13:51:37Z</time>
      </trkpt>
      <trkpt lat="48.40381" lon="2.6651">
        <ele>104</ele>
        <time>2012-01-12T13:51:46Z</time>
      </trkpt>
      <trkpt lat="48.40392" lon="2.66488">
        <ele>109</ele>
        <time>2012-01-12T13:52:00Z</time>
      </trkpt>
      <trkpt lat="48.40393" lon="2.66487">
        <ele>109</ele>
        <time>2012-01-12T13:52:05Z</time>
      </trkpt>
      <trkpt lat="48.40397" lon="2.66482">
        <ele>109</ele>
        <time>2012-01-12T13:52:10Z</time>
      </trkpt>
      <trkpt lat="48.40397" lon="2.66467">
        <ele>110</ele>
        <time>2012-01-12T13:52:22Z</time>
      </trkpt>
      <trkpt lat="48.40391" lon="2.66462">
        <ele>111</ele>
        <time>2012-01-12T13:52:31Z</time>
      </trkpt>
      <trkpt lat="48.40385" lon="2.66454">
        <ele>111</ele>
        <time>2012-01-12T13:52:37Z</time>
      </trkpt>
      <trkpt lat="48.40364" lon="2.66432">
        <ele>112</ele>
        <time>2012-01-12T13:52:50Z</time>
      </trkpt>
      <trkpt lat="48.40361" lon="2.66423">
        <ele>112</ele>
        <time>2012-01-12T13:52:54Z</time>
      </trkpt>
      <trkpt lat="48.4036" lon="2.66416">
        <ele>115</ele>
        <time>2012-01-12T13:52:57Z</time>
      </trkpt>
      <trkpt lat="48.40357" lon="2.664">
        <ele>115</ele>
        <time>2012-01-12T13:53:03Z</time>
      </trkpt>
      <trkpt lat="48.40355" lon="2.66391">
        <ele>115</ele>
        <time>2012-01-12T13:53:07Z</time>
      </trkpt>
      <trkpt lat="48.40353" lon="2.66382">
        <ele>115</ele>
        <time>2012-01-12T13:53:11Z</time>
      </trkpt>
      <trkpt lat="48.40341" lon="2.66366">
        <ele>115</ele>
        <time>2012-01-12T13:53:20Z</time>
      </trkpt>
      <trkpt lat="48.4034" lon="2.66359">
        <ele>114</ele>
        <time>2012-01-12T13:53:31Z</time>
      </trkpt>
      <trkpt lat="48.4034" lon="2.66358">
        <ele>114</ele>
        <time>2012-01-12T13:53:40Z</time>
      </trkpt>
      <trkpt lat="48.40341" lon="2.66352">
        <ele>114</ele>
        <time>2012-01-12T13:53:43Z</time>
      </trkpt>
      <trkpt lat="48.40341" lon="2.66333">
        <ele>112</ele>
        <time>2012-01-12T13:53:50Z</time>
      </trkpt>
      <trkpt lat="48.40357" lon="2.66312">
        <ele>112</ele>
        <time>2012-01-12T13:53:58Z</time>
      </trkpt>
      <trkpt lat="48.40364" lon="2.66302">
        <ele>112</ele>
        <time>2012-01-12T13:54:01Z</time>
      </trkpt>
      <trkpt lat="48.40366" lon="2.66291">
        <ele>112</ele>
        <time>2012-01-12T13:54:05Z</time>
      </trkpt>
      <trkpt lat="48.40366" lon="2.66284">
        <ele>111</ele>
        <time>2012-01-12T13:54:19Z</time>
      </trkpt>
      <trkpt lat="48.40366" lon="2.66281">
        <ele>111</ele>
        <time>2012-01-12T13:54:46Z</time>
      </trkpt>
      <trkpt lat="48.40374" lon="2.66231">
        <ele>105</ele>
        <time>2012-01-12T13:55:00Z</time>
      </trkpt>
      <trkpt lat="48.40377" lon="2.66178">
        <ele>103</ele>
        <time>2012-01-12T13:55:09Z</time>
      </trkpt>
      <trkpt lat="48.40376" lon="2.66104">
        <ele>99</ele>
        <time>2012-01-12T13:55:20Z</time>
      </trkpt>
      <trkpt lat="48.40377" lon="2.66073">
        <ele>99</ele>
        <time>2012-01-12T13:55:26Z</time>
      </trkpt>
      <trkpt lat="48.40388" lon="2.66074">
        <ele>99</ele>
        <time>2012-01-12T13:55:32Z</time>
      </trkpt>
      <trkpt lat="48.40414" lon="2.66119">
        <ele>100</ele>
        <time>2012-01-12T13:55:46Z</time>
      </trkpt>
      <trkpt lat="48.40444" lon="2.66125">
        <ele>104</ele>
        <time>2012-01-12T13:55:56Z</time>
      </trkpt>
      <trkpt lat="48.40496" lon="2.66106">
        <ele>104</ele>
        <time>2012-01-12T13:56:11Z</time>
      </trkpt>
      <trkpt lat="48.40531" lon="2.66098">
        <ele>105</ele>
        <time>2012-01-12T13:56:21Z</time>
      </trkpt>
      <trkpt lat="48.40541" lon="2.66088">
        <ele>105</ele>
        <time>2012-01-12T13:56:25Z</time>
      </trkpt>
      <trkpt lat="48.40549" lon="2.66043">
        <ele>104</ele>
        <time>2012-01-12T13:56:35Z</time>
      </trkpt>
      <trkpt lat="48.40565" lon="2.65952">
        <ele>103</ele>
        <time>2012-01-12T13:56:51Z</time>
      </trkpt>
      <trkpt lat="48.40555" lon="2.65893">
        <ele>103</ele>
        <time>2012-01-12T13:57:03Z</time>
      </trkpt>
      <trkpt lat="48.40544" lon="2.65875">
        <ele>103</ele>
        <time>2012-01-12T13:57:09Z</time>
      </trkpt>
      <trkpt lat="48.40537" lon="2.65874">
        <ele>102</ele>
        <time>2012-01-12T13:57:12Z</time>
      </trkpt>
      <trkpt lat="48.40515" lon="2.65835">
        <ele>102</ele>
        <time>2012-01-12T13:57:24Z</time>
      </trkpt>
      <trkpt lat="48.40506" lon="2.65833">
        <ele>102</ele>
        <time>2012-01-12T13:57:28Z</time>
      </trkpt>
      <trkpt lat="48.40501" lon="2.65837">
        <ele>102</ele>
        <time>2012-01-12T13:57:31Z</time>
      </trkpt>
      <trkpt lat="48.40483" lon="2.65842">
        <ele>101</ele>
        <time>2012-01-12T13:57:39Z</time>
      </trkpt>
      <trkpt lat="48.40478" lon="2.65831">
        <ele>102</ele>
        <time>2012-01-12T13:57:44Z</time>
      </trkpt>
      <trkpt lat="48.40485" lon="2.65817">
        <ele>102</ele>
        <time>2012-01-12T13:57:49Z</time>
      </trkpt>
      <trkpt lat="48.40485" lon="2.65804">
        <ele>102</ele>
        <time>2012-01-12T13:57:56Z</time>
      </trkpt>
      <trkpt lat="48.40488" lon="2.65794">
        <ele>102</ele>
        <time>2012-01-12T13:58:00Z</time>
      </trkpt>
      <trkpt lat="48.40487" lon="2.65782">
        <ele>102</ele>
        <time>2012-01-12T13:58:03Z</time>
      </trkpt>
      <trkpt lat="48.40491" lon="2.65759">
        <ele>103</ele>
        <time>2012-01-12T13:58:08Z</time>
      </trkpt>
      <trkpt lat="48.40492" lon="2.65734">
        <ele>103</ele>
        <time>2012-01-12T13:58:15Z</time>
      </trkpt>
      <trkpt lat="48.40486" lon="2.65715">
        <ele>103</ele>
        <time>2012-01-12T13:58:25Z</time>
      </trkpt>
      <trkpt lat="48.40487" lon="2.65704">
        <ele>103</ele>
        <time>2012-01-12T13:58:34Z</time>
      </trkpt>
      <trkpt lat="48.40491" lon="2.65683">
        <ele>104</ele>
        <time>2012-01-12T13:58:43Z</time>
      </trkpt>
      <trkpt lat="48.40493" lon="2.65684">
        <ele>105</ele>
        <time>2012-01-12T13:58:44Z</time>
      </trkpt>
      <trkpt lat="48.40498" lon="2.65687">
        <ele>104</ele>
        <time>2012-01-12T13:58:48Z</time>
      </trkpt>
      <trkpt lat="48.40506" lon="2.65688">
        <ele>107</ele>
        <time>2012-01-12T13:59:02Z</time>
      </trkpt>
      <trkpt lat="48.40521" lon="2.65689">
        <ele>107</ele>
        <time>2012-01-12T13:59:14Z</time>
      </trkpt>
      <trkpt lat="48.40526" lon="2.65689">
        <ele>107</ele>
        <time>2012-01-12T13:59:20Z</time>
      </trkpt>
      <trkpt lat="48.40549" lon="2.65696">
        <ele>107</ele>
        <time>2012-01-12T13:59:34Z</time>
      </trkpt>
      <trkpt lat="48.40554" lon="2.65696">
        <ele>107</ele>
        <time>2012-01-12T13:59:37Z</time>
      </trkpt>
      <trkpt lat="48.40558" lon="2.65697">
        <ele>107</ele>
        <time>2012-01-12T13:59:39Z</time>
      </trkpt>
      <trkpt lat="48.40599" lon="2.65697">
        <ele>109</ele>
        <time>2012-01-12T13:59:54Z</time>
      </trkpt>
      <trkpt lat="48.40618" lon="2.65698">
        <ele>109</ele>
        <time>2012-01-12T14:00:03Z</time>
      </trkpt>
      <trkpt lat="48.40633" lon="2.65662">
        <ele>113</ele>
        <time>2012-01-12T14:00:15Z</time>
      </trkpt>
      <trkpt lat="48.40644" lon="2.65619">
        <ele>114</ele>
        <time>2012-01-12T14:00:26Z</time>
      </trkpt>
      <trkpt lat="48.40652" lon="2.65573">
        <ele>118</ele>
        <time>2012-01-12T14:00:36Z</time>
      </trkpt>
      <trkpt lat="48.40658" lon="2.65528">
        <ele>119</ele>
        <time>2012-01-12T14:00:48Z</time>
      </trkpt>
      <trkpt lat="48.40654" lon="2.6547">
        <ele>120</ele>
        <time>2012-01-12T14:01:01Z</time>
      </trkpt>
      <trkpt lat="48.40646" lon="2.65385">
        <ele>118</ele>
        <time>2012-01-12T14:01:17Z</time>
      </trkpt>
      <trkpt lat="48.40644" lon="2.65374">
        <ele>118</ele>
        <time>2012-01-12T14:01:19Z</time>
      </trkpt>
      <trkpt lat="48.40614" lon="2.65331">
        <ele>118</ele>
        <time>2012-01-12T14:01:30Z</time>
      </trkpt>
      <trkpt lat="48.40595" lon="2.65307">
        <ele>118</ele>
        <time>2012-01-12T14:01:38Z</time>
      </trkpt>
      <trkpt lat="48.40594" lon="2.65302">
        <ele>118</ele>
        <time>2012-01-12T14:01:40Z</time>
      </trkpt>
      <trkpt lat="48.40586" lon="2.65297">
        <ele>118</ele>
        <time>2012-01-12T14:01:44Z</time>
      </trkpt>
      <trkpt lat="48.40579" lon="2.6529">
        <ele>115</ele>
        <time>2012-01-12T14:01:51Z</time>
      </trkpt>
      <trkpt lat="48.40576" lon="2.65285">
        <ele>115</ele>
        <time>2012-01-12T14:01:55Z</time>
      </trkpt>
      <trkpt lat="48.40567" lon="2.65264">
        <ele>116</ele>
        <time>2012-01-12T14:02:06Z</time>
      </trkpt>
      <trkpt lat="48.40567" lon="2.6526">
        <ele>116</ele>
        <time>2012-01-12T14:02:08Z</time>
      </trkpt>
      <trkpt lat="48.40563" lon="2.65254">
        <ele>116</ele>
        <time>2012-01-12T14:02:12Z</time>
      </trkpt>
      <trkpt lat="48.40561" lon="2.65244">
        <ele>115</ele>
        <time>2012-01-12T14:02:16Z</time>
      </trkpt>
      <trkpt lat="48.40558" lon="2.65241">
        <ele>115</ele>
        <time>2012-01-12T14:02:19Z</time>
      </trkpt>
      <trkpt lat="48.40559" lon="2.65237">
        <ele>115</ele>
        <time>2012-01-12T14:02:22Z</time>
      </trkpt>
      <trkpt lat="48.40557" lon="2.65232">
        <ele>115</ele>
        <time>2012-01-12T14:02:24Z</time>
      </trkpt>
      <trkpt lat="48.4056" lon="2.65224">
        <ele>115</ele>
        <time>2012-01-12T14:02:28Z</time>
      </trkpt>
      <trkpt lat="48.40563" lon="2.6521">
        <ele>114</ele>
        <time>2012-01-12T14:02:32Z</time>
      </trkpt>
      <trkpt lat="48.40559" lon="2.65204">
        <ele>114</ele>
        <time>2012-01-12T14:02:34Z</time>
      </trkpt>
      <trkpt lat="48.40551" lon="2.65184">
        <ele>114</ele>
        <time>2012-01-12T14:02:39Z</time>
      </trkpt>
      <trkpt lat="48.40538" lon="2.65144">
        <ele>112</ele>
        <time>2012-01-12T14:02:48Z</time>
      </trkpt>
      <trkpt lat="48.40539" lon="2.65128">
        <ele>112</ele>
        <time>2012-01-12T14:02:52Z</time>
      </trkpt>
      <trkpt lat="48.40545" lon="2.65091">
        <ele>113</ele>
        <time>2012-01-12T14:03:03Z</time>
      </trkpt>
      <trkpt lat="48.40544" lon="2.6508">
        <ele>112</ele>
        <time>2012-01-12T14:03:06Z</time>
      </trkpt>
      <trkpt lat="48.40544" lon="2.65058">
        <ele>112</ele>
        <time>2012-01-12T14:03:12Z</time>
      </trkpt>
      <trkpt lat="48.40538" lon="2.6505">
        <ele>112</ele>
        <time>2012-01-12T14:03:25Z</time>
      </trkpt>
      <trkpt lat="48.40538" lon="2.6505">
        <ele>112</ele>
        <time>2012-01-12T14:03:42Z</time>
      </trkpt>
      <trkpt lat="48.40533" lon="2.65044">
        <ele>112</ele>
        <time>2012-01-12T14:03:57Z</time>
      </trkpt>
      <trkpt lat="48.40532" lon="2.65042">
        <ele>112</ele>
        <time>2012-01-12T14:04:03Z</time>
      </trkpt>
      <trkpt lat="48.40531" lon="2.65036">
        <ele>112</ele>
        <time>2012-01-12T14:04:07Z</time>
      </trkpt>
      <trkpt lat="48.4053" lon="2.65032">
        <ele>112</ele>
        <time>2012-01-12T14:04:11Z</time>
      </trkpt>
      <trkpt lat="48.4053" lon="2.65023">
        <ele>112</ele>
        <time>2012-01-12T14:04:15Z</time>
      </trkpt>
      <trkpt lat="48.40526" lon="2.65017">
        <ele>111</ele>
        <time>2012-01-12T14:04:18Z</time>
      </trkpt>
      <trkpt lat="48.4052" lon="2.65005">
        <ele>111</ele>
        <time>2012-01-12T14:04:23Z</time>
      </trkpt>
      <trkpt lat="48.40518" lon="2.64973">
        <ele>112</ele>
        <time>2012-01-12T14:04:35Z</time>
      </trkpt>
      <trkpt lat="48.40516" lon="2.6497">
        <ele>112</ele>
        <time>2012-01-12T14:04:37Z</time>
      </trkpt>
      <trkpt lat="48.40495" lon="2.6495">
        <ele>111</ele>
        <time>2012-01-12T14:04:49Z</time>
      </trkpt>
      <trkpt lat="48.40486" lon="2.64947">
        <ele>111</ele>
        <time>2012-01-12T14:04:53Z</time>
      </trkpt>
      <trkpt lat="48.40474" lon="2.64929">
        <ele>112</ele>
        <time>2012-01-12T14:05:03Z</time>
      </trkpt>
      <trkpt lat="48.40455" lon="2.64921">
        <ele>112</ele>
        <time>2012-01-12T14:05:17Z</time>
      </trkpt>
      <trkpt lat="48.40449" lon="2.64913">
        <ele>116</ele>
        <time>2012-01-12T14:05:28Z</time>
      </trkpt>
      <trkpt lat="48.40443" lon="2.64908">
        <ele>116</ele>
        <time>2012-01-12T14:05:39Z</time>
      </trkpt>
      <trkpt lat="48.40438" lon="2.64904">
        <ele>116</ele>
        <time>2012-01-12T14:05:54Z</time>
      </trkpt>
      <trkpt lat="48.40438" lon="2.64902">
        <ele>116</ele>
        <time>2012-01-12T14:07:53Z</time>
      </trkpt>
      <trkpt lat="48.40416" lon="2.64891">
        <ele>117</ele>
        <time>2012-01-12T14:08:07Z</time>
      </trkpt>
      <trkpt lat="48.40414" lon="2.64891">
        <ele>117</ele>
        <time>2012-01-12T14:08:08Z</time>
      </trkpt>
      <trkpt lat="48.40411" lon="2.64891">
        <ele>118</ele>
        <time>2012-01-12T14:08:10Z</time>
      </trkpt>
      <trkpt lat="48.40407" lon="2.64886">
        <ele>118</ele>
        <time>2012-01-12T14:08:13Z</time>
      </trkpt>
      <trkpt lat="48.40394" lon="2.64879">
        <ele>118</ele>
        <time>2012-01-12T14:08:21Z</time>
      </trkpt>
      <trkpt lat="48.40399" lon="2.64871">
        <ele>119</ele>
        <time>2012-01-12T14:08:30Z</time>
      </trkpt>
      <trkpt lat="48.40419" lon="2.64867">
        <ele>118</ele>
        <time>2012-01-12T14:08:43Z</time>
      </trkpt>
      <trkpt lat="48.40422" lon="2.64864">
        <ele>118</ele>
        <time>2012-01-12T14:08:46Z</time>
      </trkpt>
      <trkpt lat="48.40425" lon="2.64853">
        <ele>119</ele>
        <time>2012-01-12T14:08:51Z</time>
      </trkpt>
      <trkpt lat="48.4041" lon="2.64823">
        <ele>123</ele>
        <time>2012-01-12T14:09:06Z</time>
      </trkpt>
      <trkpt lat="48.40406" lon="2.64822">
        <ele>123</ele>
        <time>2012-01-12T14:09:09Z</time>
      </trkpt>
      <trkpt lat="48.40392" lon="2.64792">
        <ele>124</ele>
        <time>2012-01-12T14:09:23Z</time>
      </trkpt>
      <trkpt lat="48.40391" lon="2.6479">
        <ele>124</ele>
        <time>2012-01-12T14:09:24Z</time>
      </trkpt>
      <trkpt lat="48.40399" lon="2.64774">
        <ele>125</ele>
        <time>2012-01-12T14:09:34Z</time>
      </trkpt>
      <trkpt lat="48.40406" lon="2.64766">
        <ele>126</ele>
        <time>2012-01-12T14:09:39Z</time>
      </trkpt>
      <trkpt lat="48.40408" lon="2.64744">
        <ele>128</ele>
        <time>2012-01-12T14:09:49Z</time>
      </trkpt>
      <trkpt lat="48.40402" lon="2.64734">
        <ele>128</ele>
        <time>2012-01-12T14:09:54Z</time>
      </trkpt>
      <trkpt lat="48.40396" lon="2.64739">
        <ele>128</ele>
        <time>2012-01-12T14:10:06Z</time>
      </trkpt>
      <trkpt lat="48.40392" lon="2.64742">
        <ele>128</ele>
        <time>2012-01-12T14:10:20Z</time>
      </trkpt>
      <trkpt lat="48.4039" lon="2.64739">
        <ele>127</ele>
        <time>2012-01-12T14:10:24Z</time>
      </trkpt>
      <trkpt lat="48.40392" lon="2.64734">
        <ele>128</ele>
        <time>2012-01-12T14:10:27Z</time>
      </trkpt>
      <trkpt lat="48.4039" lon="2.64724">
        <ele>127</ele>
        <time>2012-01-12T14:10:42Z</time>
      </trkpt>
      <trkpt lat="48.40387" lon="2.64718">
        <ele>127</ele>
        <time>2012-01-12T14:11:00Z</time>
      </trkpt>
      <trkpt lat="48.40387" lon="2.64718">
        <ele>127</ele>
        <time>2012-01-12T14:11:37Z</time>
      </trkpt>
      <trkpt lat="48.40385" lon="2.6471">
        <ele>127</ele>
        <time>2012-01-12T14:11:41Z</time>
      </trkpt>
      <trkpt lat="48.40389" lon="2.647">
        <ele>128</ele>
        <time>2012-01-12T14:11:51Z</time>
      </trkpt>
      <trkpt lat="48.40394" lon="2.64697">
        <ele>128</ele>
        <time>2012-01-12T14:11:56Z</time>
      </trkpt>
      <trkpt lat="48.40398" lon="2.64681">
        <ele>128</ele>
        <time>2012-01-12T14:12:05Z</time>
      </trkpt>
      <trkpt lat="48.40399" lon="2.6468">
        <ele>129</ele>
        <time>2012-01-12T14:12:38Z</time>
      </trkpt>
      <trkpt lat="48.40374" lon="2.64643">
        <ele>127</ele>
        <time>2012-01-12T14:12:48Z</time>
      </trkpt>
      <trkpt lat="48.40369" lon="2.64631">
        <ele>127</ele>
        <time>2012-01-12T14:12:50Z</time>
      </trkpt>
      <trkpt lat="48.40363" lon="2.64605">
        <ele>126</ele>
        <time>2012-01-12T14:12:54Z</time>
      </trkpt>
      <trkpt lat="48.40365" lon="2.64559">
        <ele>126</ele>
        <time>2012-01-12T14:13:03Z</time>
      </trkpt>
      <trkpt lat="48.40355" lon="2.64531">
        <ele>125</ele>
        <time>2012-01-12T14:13:13Z</time>
      </trkpt>
      <trkpt lat="48.40354" lon="2.64526">
        <ele>125</ele>
        <time>2012-01-12T14:13:16Z</time>
      </trkpt>
      <trkpt lat="48.40363" lon="2.64513">
        <ele>125</ele>
        <time>2012-01-12T14:13:25Z</time>
      </trkpt>
      <trkpt lat="48.40368" lon="2.64507">
        <ele>126</ele>
        <time>2012-01-12T14:13:34Z</time>
      </trkpt>
      <trkpt lat="48.40372" lon="2.64497">
        <ele>126</ele>
        <time>2012-01-12T14:13:39Z</time>
      </trkpt>
      <trkpt lat="48.40378" lon="2.64487">
        <ele>126</ele>
        <time>2012-01-12T14:13:44Z</time>
      </trkpt>
      <trkpt lat="48.40385" lon="2.64478">
        <ele>127</ele>
        <time>2012-01-12T14:13:56Z</time>
      </trkpt>
      <trkpt lat="48.40389" lon="2.64479">
        <ele>128</ele>
        <time>2012-01-12T14:14:12Z</time>
      </trkpt>
      <trkpt lat="48.40392" lon="2.64479">
        <ele>128</ele>
        <time>2012-01-12T14:14:15Z</time>
      </trkpt>
      <trkpt lat="48.40396" lon="2.64472">
        <ele>128</ele>
        <time>2012-01-12T14:14:19Z</time>
      </trkpt>
      <trkpt lat="48.40398" lon="2.64456">
        <ele>128</ele>
        <time>2012-01-12T14:14:27Z</time>
      </trkpt>
      <trkpt lat="48.404" lon="2.64445">
        <ele>128</ele>
        <time>2012-01-12T14:14:31Z</time>
      </trkpt>
      <trkpt lat="48.40405" lon="2.64437">
        <ele>128</ele>
        <time>2012-01-12T14:14:35Z</time>
      </trkpt>
      <trkpt lat="48.40406" lon="2.64432">
        <ele>129</ele>
        <time>2012-01-12T14:14:37Z</time>
      </trkpt>
      <trkpt lat="48.40416" lon="2.64434">
        <ele>129</ele>
        <time>2012-01-12T14:14:43Z</time>
      </trkpt>
      <trkpt lat="48.40447" lon="2.64417">
        <ele>131</ele>
        <time>2012-01-12T14:14:53Z</time>
      </trkpt>
      <trkpt lat="48.40451" lon="2.64412">
        <ele>131</ele>
        <time>2012-01-12T14:14:54Z</time>
      </trkpt>
      <trkpt lat="48.40467" lon="2.6439">
        <ele>131</ele>
        <time>2012-01-12T14:14:58Z</time>
      </trkpt>
      <trkpt lat="48.40473" lon="2.64367">
        <ele>131</ele>
        <time>2012-01-12T14:15:02Z</time>
      </trkpt>
      <trkpt lat="48.40468" lon="2.64321">
        <ele>131</ele>
        <time>2012-01-12T14:15:13Z</time>
      </trkpt>
      <trkpt lat="48.40459" lon="2.64253">
        <ele>131</ele>
        <time>2012-01-12T14:15:26Z</time>
      </trkpt>
      <trkpt lat="48.40453" lon="2.64182">
        <ele>132</ele>
        <time>2012-01-12T14:15:41Z</time>
      </trkpt>
      <trkpt lat="48.40465" lon="2.64131">
        <ele>133</ele>
        <time>2012-01-12T14:15:55Z</time>
      </trkpt>
      <trkpt lat="48.40466" lon="2.64085">
        <ele>133</ele>
        <time>2012-01-12T14:16:06Z</time>
      </trkpt>
      <trkpt lat="48.4045" lon="2.64021">
        <ele>133</ele>
        <time>2012-01-12T14:16:21Z</time>
      </trkpt>
      <trkpt lat="48.40452" lon="2.63959">
        <ele>134</ele>
        <time>2012-01-12T14:16:34Z</time>
      </trkpt>
      <trkpt lat="48.40461" lon="2.63917">
        <ele>134</ele>
        <time>2012-01-12T14:16:45Z</time>
      </trkpt>
      <trkpt lat="48.40464" lon="2.63908">
        <ele>135</ele>
        <time>2012-01-12T14:16:47Z</time>
      </trkpt>
      <trkpt lat="48.40481" lon="2.63906">
        <ele>134</ele>
        <time>2012-01-12T14:16:53Z</time>
      </trkpt>
      <trkpt lat="48.40518" lon="2.63938">
        <ele>133</ele>
        <time>2012-01-12T14:17:05Z</time>
      </trkpt>
      <trkpt lat="48.40523" lon="2.63948">
        <ele>133</ele>
        <time>2012-01-12T14:17:07Z</time>
      </trkpt>
      <trkpt lat="48.40548" lon="2.63975">
        <ele>134</ele>
        <time>2012-01-12T14:17:14Z</time>
      </trkpt>
      <trkpt lat="48.40593" lon="2.64008">
        <ele>135</ele>
        <time>2012-01-12T14:17:27Z</time>
      </trkpt>
      <trkpt lat="48.40628" lon="2.64046">
        <ele>135</ele>
        <time>2012-01-12T14:17:38Z</time>
      </trkpt>
      <trkpt lat="48.40656" lon="2.64074">
        <ele>136</ele>
        <time>2012-01-12T14:17:47Z</time>
      </trkpt>
      <trkpt lat="48.40675" lon="2.64093">
        <ele>136</ele>
        <time>2012-01-12T14:17:54Z</time>
      </trkpt>
      <trkpt lat="48.40691" lon="2.64102">
        <ele>136</ele>
        <time>2012-01-12T14:18:00Z</time>
      </trkpt>
      <trkpt lat="48.40704" lon="2.64069">
        <ele>136</ele>
        <time>2012-01-12T14:18:09Z</time>
      </trkpt>
      <trkpt lat="48.40717" lon="2.64057">
        <ele>136</ele>
        <time>2012-01-12T14:18:15Z</time>
      </trkpt>
      <trkpt lat="48.40725" lon="2.64045">
        <ele>136</ele>
        <time>2012-01-12T14:18:21Z</time>
      </trkpt>
      <trkpt lat="48.40743" lon="2.64034">
        <ele>136</ele>
        <time>2012-01-12T14:18:29Z</time>
      </trkpt>
      <trkpt lat="48.40766" lon="2.64003">
        <ele>137</ele>
        <time>2012-01-12T14:18:40Z</time>
      </trkpt>
      <trkpt lat="48.40772" lon="2.63994">
        <ele>137</ele>
        <time>2012-01-12T14:18:43Z</time>
      </trkpt>
      <trkpt lat="48.40803" lon="2.63958">
        <ele>137</ele>
        <time>2012-01-12T14:18:55Z</time>
      </trkpt>
      <trkpt lat="48.40831" lon="2.6392">
        <ele>138</ele>
        <time>2012-01-12T14:19:08Z</time>
      </trkpt>
      <trkpt lat="48.40833" lon="2.63916">
        <ele>138</ele>
        <time>2012-01-12T14:19:09Z</time>
      </trkpt>
      <trkpt lat="48.40845" lon="2.63915">
        <ele>138</ele>
        <time>2012-01-12T14:19:13Z</time>
      </trkpt>
      <trkpt lat="48.40878" lon="2.63911">
        <ele>139</ele>
        <time>2012-01-12T14:19:25Z</time>
      </trkpt>
      <trkpt lat="48.40878" lon="2.6391">
        <ele>139</ele>
        <time>2012-01-12T14:19:28Z</time>
      </trkpt>
      <trkpt lat="48.40871" lon="2.63845">
        <ele>139</ele>
        <time>2012-01-12T14:19:42Z</time>
      </trkpt>
      <trkpt lat="48.40861" lon="2.63791">
        <ele>139</ele>
        <time>2012-01-12T14:19:54Z</time>
      </trkpt>
      <trkpt lat="48.40832" lon="2.63798">
        <ele>137</ele>
        <time>2012-01-12T14:20:02Z</time>
      </trkpt>
      <trkpt lat="48.4081" lon="2.63769">
        <ele>136</ele>
        <time>2012-01-12T14:20:11Z</time>
      </trkpt>
      <trkpt lat="48.40804" lon="2.63757">
        <ele>136</ele>
        <time>2012-01-12T14:20:14Z</time>
      </trkpt>
      <trkpt lat="48.40789" lon="2.63759">
        <ele>136</ele>
        <time>2012-01-12T14:20:21Z</time>
      </trkpt>
      <trkpt lat="48.40771" lon="2.63756">
        <ele>136</ele>
        <time>2012-01-12T14:20:25Z</time>
      </trkpt>
      <trkpt lat="48.40745" lon="2.63722">
        <ele>135</ele>
        <time>2012-01-12T14:20:34Z</time>
      </trkpt>
      <trkpt lat="48.40737" lon="2.63713">
        <ele>135</ele>
        <time>2012-01-12T14:20:38Z</time>
      </trkpt>
      <trkpt lat="48.40732" lon="2.63688">
        <ele>135</ele>
        <time>2012-01-12T14:20:47Z</time>
      </trkpt>
      <trkpt lat="48.40727" lon="2.63681">
        <ele>135</ele>
        <time>2012-01-12T14:20:50Z</time>
      </trkpt>
      <trkpt lat="48.40714" lon="2.63651">
        <ele>136</ele>
        <time>2012-01-12T14:20:59Z</time>
      </trkpt>
      <trkpt lat="48.40706" lon="2.63645">
        <ele>136</ele>
        <time>2012-01-12T14:21:03Z</time>
      </trkpt>
      <trkpt lat="48.40698" lon="2.6364">
        <ele>136</ele>
        <time>2012-01-12T14:21:07Z</time>
      </trkpt>
      <trkpt lat="48.40696" lon="2.63629">
        <ele>136</ele>
        <time>2012-01-12T14:21:12Z</time>
      </trkpt>
      <trkpt lat="48.40691" lon="2.6362">
        <ele>136</ele>
        <time>2012-01-12T14:21:16Z</time>
      </trkpt>
      <trkpt lat="48.40663" lon="2.63603">
        <ele>136</ele>
        <time>2012-01-12T14:21:26Z</time>
      </trkpt>
      <trkpt lat="48.40625" lon="2.63608">
        <ele>136</ele>
        <time>2012-01-12T14:21:38Z</time>
      </trkpt>
      <trkpt lat="48.40583" lon="2.6359">
        <ele>136</ele>
        <time>2012-01-12T14:21:51Z</time>
      </trkpt>
      <trkpt lat="48.40553" lon="2.6355">
        <ele>137</ele>
        <time>2012-01-12T14:22:04Z</time>
      </trkpt>
      <trkpt lat="48.40549" lon="2.63543">
        <ele>137</ele>
        <time>2012-01-12T14:22:06Z</time>
      </trkpt>
      <trkpt lat="48.4054" lon="2.63536">
        <ele>137</ele>
        <time>2012-01-12T14:22:11Z</time>
      </trkpt>
      <trkpt lat="48.40537" lon="2.63532">
        <ele>137</ele>
        <time>2012-01-12T14:22:13Z</time>
      </trkpt>
      <trkpt lat="48.40539" lon="2.63525">
        <ele>137</ele>
        <time>2012-01-12T14:22:17Z</time>
      </trkpt>
      <trkpt lat="48.40542" lon="2.63522">
        <ele>137</ele>
        <time>2012-01-12T14:22:19Z</time>
      </trkpt>
      <trkpt lat="48.40547" lon="2.63512">
        <ele>137</ele>
        <time>2012-01-12T14:22:23Z</time>
      </trkpt>
      <trkpt lat="48.40549" lon="2.63487">
        <ele>136</ele>
        <time>2012-01-12T14:22:30Z</time>
      </trkpt>
      <trkpt lat="48.40553" lon="2.63475">
        <ele>136</ele>
        <time>2012-01-12T14:22:33Z</time>
      </trkpt>
      <trkpt lat="48.40558" lon="2.63451">
        <ele>136</ele>
        <time>2012-01-12T14:22:40Z</time>
      </trkpt>
      <trkpt lat="48.40557" lon="2.6344">
        <ele>136</ele>
        <time>2012-01-12T14:22:44Z</time>
      </trkpt>
      <trkpt lat="48.40555" lon="2.63417">
        <ele>136</ele>
        <time>2012-01-12T14:22:53Z</time>
      </trkpt>
      <trkpt lat="48.40562" lon="2.63399">
        <ele>135</ele>
        <time>2012-01-12T14:22:59Z</time>
      </trkpt>
      <trkpt lat="48.40563" lon="2.63393">
        <ele>135</ele>
        <time>2012-01-12T14:23:01Z</time>
      </trkpt>
      <trkpt lat="48.40579" lon="2.63371">
        <ele>135</ele>
        <time>2012-01-12T14:23:11Z</time>
      </trkpt>
      <trkpt lat="48.40583" lon="2.63361">
        <ele>135</ele>
        <time>2012-01-12T14:23:15Z</time>
      </trkpt>
      <trkpt lat="48.40598" lon="2.63323">
        <ele>135</ele>
        <time>2012-01-12T14:23:26Z</time>
      </trkpt>
      <trkpt lat="48.40604" lon="2.6331">
        <ele>135</ele>
        <time>2012-01-12T14:23:30Z</time>
      </trkpt>
      <trkpt lat="48.40605" lon="2.63304">
        <ele>135</ele>
        <time>2012-01-12T14:23:33Z</time>
      </trkpt>
      <trkpt lat="48.4061" lon="2.63277">
        <ele>135</ele>
        <time>2012-01-12T14:23:42Z</time>
      </trkpt>
      <trkpt lat="48.40612" lon="2.63255">
        <ele>134</ele>
        <time>2012-01-12T14:23:49Z</time>
      </trkpt>
      <trkpt lat="48.40612" lon="2.63247">
        <ele>134</ele>
        <time>2012-01-12T14:23:53Z</time>
      </trkpt>
      <trkpt lat="48.40613" lon="2.63234">
        <ele>134</ele>
        <time>2012-01-12T14:23:58Z</time>
      </trkpt>
      <trkpt lat="48.40619" lon="2.63198">
        <ele>134</ele>
        <time>2012-01-12T14:24:11Z</time>
      </trkpt>
      <trkpt lat="48.40616" lon="2.63192">
        <ele>134</ele>
        <time>2012-01-12T14:24:14Z</time>
      </trkpt>
      <trkpt lat="48.40607" lon="2.6319">
        <ele>134</ele>
        <time>2012-01-12T14:24:19Z</time>
      </trkpt>
      <trkpt lat="48.40612" lon="2.63168">
        <ele>134</ele>
        <time>2012-01-12T14:24:29Z</time>
      </trkpt>
      <trkpt lat="48.40612" lon="2.63165">
        <ele>133</ele>
        <time>2012-01-12T14:24:30Z</time>
      </trkpt>
      <trkpt lat="48.40613" lon="2.63156">
        <ele>133</ele>
        <time>2012-01-12T14:24:34Z</time>
      </trkpt>
      <trkpt lat="48.40618" lon="2.63141">
        <ele>133</ele>
        <time>2012-01-12T14:24:40Z</time>
      </trkpt>
      <trkpt lat="48.40631" lon="2.63137">
        <ele>133</ele>
        <time>2012-01-12T14:24:49Z</time>
      </trkpt>
      <trkpt lat="48.40634" lon="2.63146">
        <ele>133</ele>
        <time>2012-01-12T14:24:58Z</time>
      </trkpt>
      <trkpt lat="48.40641" lon="2.63147">
        <ele>133</ele>
        <time>2012-01-12T14:25:12Z</time>
      </trkpt>
      <trkpt lat="48.40644" lon="2.63148">
        <ele>133</ele>
        <time>2012-01-12T14:25:16Z</time>
      </trkpt>
      <trkpt lat="48.40649" lon="2.6315">
        <ele>133</ele>
        <time>2012-01-12T14:25:20Z</time>
      </trkpt>
      <trkpt lat="48.40662" lon="2.63137">
        <ele>133</ele>
        <time>2012-01-12T14:25:32Z</time>
      </trkpt>
      <trkpt lat="48.40666" lon="2.63135">
        <ele>133</ele>
        <time>2012-01-12T14:25:35Z</time>
      </trkpt>
      <trkpt lat="48.40684" lon="2.63117">
        <ele>133</ele>
        <time>2012-01-12T14:25:49Z</time>
      </trkpt>
      <trkpt lat="48.40692" lon="2.63115">
        <ele>133</ele>
        <time>2012-01-12T14:25:53Z</time>
      </trkpt>
      <trkpt lat="48.40712" lon="2.63102">
        <ele>133</ele>
        <time>2012-01-12T14:26:06Z</time>
      </trkpt>
      <trkpt lat="48.40724" lon="2.63117">
        <ele>133</ele>
        <time>2012-01-12T14:26:15Z</time>
      </trkpt>
      <trkpt lat="48.40725" lon="2.63122">
        <ele>133</ele>
        <time>2012-01-12T14:26:18Z</time>
      </trkpt>
      <trkpt lat="48.40724" lon="2.63128">
        <ele>133</ele>
        <time>2012-01-12T14:26:35Z</time>
      </trkpt>
      <trkpt lat="48.40722" lon="2.63132">
        <ele>133</ele>
        <time>2012-01-12T14:26:44Z</time>
      </trkpt>
      <trkpt lat="48.4072" lon="2.63138">
        <ele>133</ele>
        <time>2012-01-12T14:26:49Z</time>
      </trkpt>
      <trkpt lat="48.4072" lon="2.63146">
        <ele>133</ele>
        <time>2012-01-12T14:26:53Z</time>
      </trkpt>
      <trkpt lat="48.40752" lon="2.63142">
        <ele>133</ele>
        <time>2012-01-12T14:27:09Z</time>
      </trkpt>
      <trkpt lat="48.40758" lon="2.63143">
        <ele>133</ele>
        <time>2012-01-12T14:27:14Z</time>
      </trkpt>
      <trkpt lat="48.40764" lon="2.63146">
        <ele>133</ele>
        <time>2012-01-12T14:27:25Z</time>
      </trkpt>
      <trkpt lat="48.40765" lon="2.63144">
        <ele>133</ele>
        <time>2012-01-12T14:27:27Z</time>
      </trkpt>
      <trkpt lat="48.40772" lon="2.63132">
        <ele>133</ele>
        <time>2012-01-12T14:27:38Z</time>
      </trkpt>
      <trkpt lat="48.40781" lon="2.63115">
        <ele>133</ele>
        <time>2012-01-12T14:27:47Z</time>
      </trkpt>
      <trkpt lat="48.40785" lon="2.63108">
        <ele>133</ele>
        <time>2012-01-12T14:27:51Z</time>
      </trkpt>
      <trkpt lat="48.4079" lon="2.63107">
        <ele>133</ele>
        <time>2012-01-12T14:27:54Z</time>
      </trkpt>
      <trkpt lat="48.40806" lon="2.63106">
        <ele>134</ele>
        <time>2012-01-12T14:28:05Z</time>
      </trkpt>
      <trkpt lat="48.40822" lon="2.63088">
        <ele>134</ele>
        <time>2012-01-12T14:28:16Z</time>
      </trkpt>
      <trkpt lat="48.40825" lon="2.63085">
        <ele>134</ele>
        <time>2012-01-12T14:28:19Z</time>
      </trkpt>
      <trkpt lat="48.4083" lon="2.63076">
        <ele>134</ele>
        <time>2012-01-12T14:28:30Z</time>
      </trkpt>
      <trkpt lat="48.4083" lon="2.63068">
        <ele>133</ele>
        <time>2012-01-12T14:28:34Z</time>
      </trkpt>
      <trkpt lat="48.40835" lon="2.63054">
        <ele>134</ele>
        <time>2012-01-12T14:28:40Z</time>
      </trkpt>
      <trkpt lat="48.40843" lon="2.6305">
        <ele>134</ele>
        <time>2012-01-12T14:28:45Z</time>
      </trkpt>
      <trkpt lat="48.40846" lon="2.63047">
        <ele>134</ele>
        <time>2012-01-12T14:28:47Z</time>
      </trkpt>
      <trkpt lat="48.40846" lon="2.63028">
        <ele>133</ele>
        <time>2012-01-12T14:28:54Z</time>
      </trkpt>
      <trkpt lat="48.40841" lon="2.63025">
        <ele>133</ele>
        <time>2012-01-12T14:28:58Z</time>
      </trkpt>
      <trkpt lat="48.40837" lon="2.63017">
        <ele>133</ele>
        <time>2012-01-12T14:29:04Z</time>
      </trkpt>
      <trkpt lat="48.40839" lon="2.63013">
        <ele>133</ele>
        <time>2012-01-12T14:29:07Z</time>
      </trkpt>
      <trkpt lat="48.40847" lon="2.63009">
        <ele>133</ele>
        <time>2012-01-12T14:29:12Z</time>
      </trkpt>
      <trkpt lat="48.40857" lon="2.63003">
        <ele>133</ele>
        <time>2012-01-12T14:29:20Z</time>
      </trkpt>
      <trkpt lat="48.4086" lon="2.63009">
        <ele>133</ele>
        <time>2012-01-12T14:29:24Z</time>
      </trkpt>
      <trkpt lat="48.40875" lon="2.63008">
        <ele>133</ele>
        <time>2012-01-12T14:29:35Z</time>
      </trkpt>
      <trkpt lat="48.40877" lon="2.63005">
        <ele>134</ele>
        <time>2012-01-12T14:29:37Z</time>
      </trkpt>
      <trkpt lat="48.4088" lon="2.62999">
        <ele>131</ele>
        <time>2012-01-12T14:29:44Z</time>
      </trkpt>
      <trkpt lat="48.40884" lon="2.62996">
        <ele>132</ele>
        <time>2012-01-12T14:29:59Z</time>
      </trkpt>
      <trkpt lat="48.40889" lon="2.63011">
        <ele>134</ele>
        <time>2012-01-12T14:30:10Z</time>
      </trkpt>
      <trkpt lat="48.40894" lon="2.63013">
        <ele>134</ele>
        <time>2012-01-12T14:30:16Z</time>
      </trkpt>
      <trkpt lat="48.40896" lon="2.6301">
        <ele>134</ele>
        <time>2012-01-12T14:30:18Z</time>
      </trkpt>
      <trkpt lat="48.4091" lon="2.63001">
        <ele>134</ele>
        <time>2012-01-12T14:30:27Z</time>
      </trkpt>
      <trkpt lat="48.40908" lon="2.62981">
        <ele>132</ele>
        <time>2012-01-12T14:30:35Z</time>
      </trkpt>
      <trkpt lat="48.4091" lon="2.62974">
        <ele>132</ele>
        <time>2012-01-12T14:30:40Z</time>
      </trkpt>
      <trkpt lat="48.4091" lon="2.62959">
        <ele>131</ele>
        <time>2012-01-12T14:30:48Z</time>
      </trkpt>
      <trkpt lat="48.40922" lon="2.62938">
        <ele>132</ele>
        <time>2012-01-12T14:31:01Z</time>
      </trkpt>
      <trkpt lat="48.40925" lon="2.62934">
        <ele>132</ele>
        <time>2012-01-12T14:31:11Z</time>
      </trkpt>
      <trkpt lat="48.40927" lon="2.62922">
        <ele>132</ele>
        <time>2012-01-12T14:31:38Z</time>
      </trkpt>
      <trkpt lat="48.4093" lon="2.62913">
        <ele>131</ele>
        <time>2012-01-12T14:32:01Z</time>
      </trkpt>
      <trkpt lat="48.4093" lon="2.62915">
        <ele>131</ele>
        <time>2012-01-12T14:32:26Z</time>
      </trkpt>
      <trkpt lat="48.40928" lon="2.62914">
        <ele>131</ele>
        <time>2012-01-12T14:32:46Z</time>
      </trkpt>
      <trkpt lat="48.40931" lon="2.6291">
        <ele>131</ele>
        <time>2012-01-12T14:33:04Z</time>
      </trkpt>
      <trkpt lat="48.40932" lon="2.62907">
        <ele>131</ele>
        <time>2012-01-12T14:33:47Z</time>
      </trkpt>
      <trkpt lat="48.40918" lon="2.62885">
        <ele>131</ele>
        <time>2012-01-12T14:34:00Z</time>
      </trkpt>
      <trkpt lat="48.40912" lon="2.6287">
        <ele>129</ele>
        <time>2012-01-12T14:34:06Z</time>
      </trkpt>
      <trkpt lat="48.40911" lon="2.62855">
        <ele>129</ele>
        <time>2012-01-12T14:34:12Z</time>
      </trkpt>
      <trkpt lat="48.4091" lon="2.6285">
        <ele>129</ele>
        <time>2012-01-12T14:34:15Z</time>
      </trkpt>
      <trkpt lat="48.40903" lon="2.62844">
        <ele>129</ele>
        <time>2012-01-12T14:34:19Z</time>
      </trkpt>
      <trkpt lat="48.40904" lon="2.62836">
        <ele>130</ele>
        <time>2012-01-12T14:34:22Z</time>
      </trkpt>
      <trkpt lat="48.40903" lon="2.6283">
        <ele>130</ele>
        <time>2012-01-12T14:34:25Z</time>
      </trkpt>
      <trkpt lat="48.40904" lon="2.62824">
        <ele>130</ele>
        <time>2012-01-12T14:34:27Z</time>
      </trkpt>
      <trkpt lat="48.40887" lon="2.6279">
        <ele>128</ele>
        <time>2012-01-12T14:34:42Z</time>
      </trkpt>
      <trkpt lat="48.4087" lon="2.62784">
        <ele>128</ele>
        <time>2012-01-12T14:34:47Z</time>
      </trkpt>
      <trkpt lat="48.40854" lon="2.6276">
        <ele>127</ele>
        <time>2012-01-12T14:34:58Z</time>
      </trkpt>
      <trkpt lat="48.40857" lon="2.62746">
        <ele>127</ele>
        <time>2012-01-12T14:35:04Z</time>
      </trkpt>
      <trkpt lat="48.40861" lon="2.62727">
        <ele>127</ele>
        <time>2012-01-12T14:35:14Z</time>
      </trkpt>
      <trkpt lat="48.40865" lon="2.62725">
        <ele>127</ele>
        <time>2012-01-12T14:35:19Z</time>
      </trkpt>
      <trkpt lat="48.40868" lon="2.62729">
        <ele>127</ele>
        <time>2012-01-12T14:35:23Z</time>
      </trkpt>
      <trkpt lat="48.40876" lon="2.62722">
        <ele>128</ele>
        <time>2012-01-12T14:35:30Z</time>
      </trkpt>
      <trkpt lat="48.40876" lon="2.62698">
        <ele>127</ele>
        <time>2012-01-12T14:35:40Z</time>
      </trkpt>
      <trkpt lat="48.40882" lon="2.62672">
        <ele>128</ele>
        <time>2012-01-12T14:35:51Z</time>
      </trkpt>
      <trkpt lat="48.4088" lon="2.62654">
        <ele>126</ele>
        <time>2012-01-12T14:35:59Z</time>
      </trkpt>
      <trkpt lat="48.40885" lon="2.62649">
        <ele>126</ele>
        <time>2012-01-12T14:36:02Z</time>
      </trkpt>
      <trkpt lat="48.40888" lon="2.62622">
        <ele>126</ele>
        <time>2012-01-12T14:36:15Z</time>
      </trkpt>
      <trkpt lat="48.40897" lon="2.62582">
        <ele>126</ele>
        <time>2012-01-12T14:36:29Z</time>
      </trkpt>
      <trkpt lat="48.40901" lon="2.62573">
        <ele>126</ele>
        <time>2012-01-12T14:36:44Z</time>
      </trkpt>
      <trkpt lat="48.40901" lon="2.62573">
        <ele>126</ele>
        <time>2012-01-12T14:36:45Z</time>
      </trkpt>
      <trkpt lat="48.40901" lon="2.62577">
        <ele>127</ele>
        <time>2012-01-12T14:37:10Z</time>
      </trkpt>
      <trkpt lat="48.40899" lon="2.62573">
        <ele>126</ele>
        <time>2012-01-12T14:38:08Z</time>
      </trkpt>
      <trkpt lat="48.40908" lon="2.62568">
        <ele>127</ele>
        <time>2012-01-12T14:38:20Z</time>
      </trkpt>
      <trkpt lat="48.40908" lon="2.62568">
        <ele>127</ele>
        <time>2012-01-12T14:38:27Z</time>
      </trkpt>
      <trkpt lat="48.4091" lon="2.62559">
        <ele>126</ele>
        <time>2012-01-12T14:38:35Z</time>
      </trkpt>
      <trkpt lat="48.40908" lon="2.62523">
        <ele>126</ele>
        <time>2012-01-12T14:38:49Z</time>
      </trkpt>
      <trkpt lat="48.40909" lon="2.6252">
        <ele>126</ele>
        <time>2012-01-12T14:38:51Z</time>
      </trkpt>
      <trkpt lat="48.40903" lon="2.62492">
        <ele>126</ele>
        <time>2012-01-12T14:39:01Z</time>
      </trkpt>
      <trkpt lat="48.40907" lon="2.62483">
        <ele>126</ele>
        <time>2012-01-12T14:39:05Z</time>
      </trkpt>
      <trkpt lat="48.40915" lon="2.62463">
        <ele>126</ele>
        <time>2012-01-12T14:39:12Z</time>
      </trkpt>
      <trkpt lat="48.40927" lon="2.62427">
        <ele>129</ele>
        <time>2012-01-12T14:39:22Z</time>
      </trkpt>
      <trkpt lat="48.40931" lon="2.62392">
        <ele>129</ele>
        <time>2012-01-12T14:39:38Z</time>
      </trkpt>
      <trkpt lat="48.40929" lon="2.62388">
        <ele>129</ele>
        <time>2012-01-12T14:39:42Z</time>
      </trkpt>
      <trkpt lat="48.40925" lon="2.62371">
        <ele>128</ele>
        <time>2012-01-12T14:39:50Z</time>
      </trkpt>
      <trkpt lat="48.40924" lon="2.6236">
        <ele>128</ele>
        <time>2012-01-12T14:39:55Z</time>
      </trkpt>
      <trkpt lat="48.4092" lon="2.62353">
        <ele>128</ele>
        <time>2012-01-12T14:39:59Z</time>
      </trkpt>
      <trkpt lat="48.40919" lon="2.62351">
        <ele>128</ele>
        <time>2012-01-12T14:40:13Z</time>
      </trkpt>
      <trkpt lat="48.40919" lon="2.62352">
        <ele>128</ele>
        <time>2012-01-12T14:40:14Z</time>
      </trkpt>
      <trkpt lat="48.40922" lon="2.6236">
        <ele>128</ele>
        <time>2012-01-12T14:40:18Z</time>
      </trkpt>
      <trkpt lat="48.40925" lon="2.62368">
        <ele>128</ele>
        <time>2012-01-12T14:40:22Z</time>
      </trkpt>
      <trkpt lat="48.40932" lon="2.62372">
        <ele>128</ele>
        <time>2012-01-12T14:40:26Z</time>
      </trkpt>
      <trkpt lat="48.40937" lon="2.62375">
        <ele>128</ele>
        <time>2012-01-12T14:40:31Z</time>
      </trkpt>
      <trkpt lat="48.40949" lon="2.62372">
        <ele>128</ele>
        <time>2012-01-12T14:40:37Z</time>
      </trkpt>
      <trkpt lat="48.40948" lon="2.62364">
        <ele>128</ele>
        <time>2012-01-12T14:40:42Z</time>
      </trkpt>
      <trkpt lat="48.40949" lon="2.62359">
        <ele>128</ele>
        <time>2012-01-12T14:40:45Z</time>
      </trkpt>
      <trkpt lat="48.40952" lon="2.62344">
        <ele>128</ele>
        <time>2012-01-12T14:40:57Z</time>
      </trkpt>
      <trkpt lat="48.40949" lon="2.6233">
        <ele>128</ele>
        <time>2012-01-12T14:41:14Z</time>
      </trkpt>
      <trkpt lat="48.40949" lon="2.62321">
        <ele>128</ele>
        <time>2012-01-12T14:41:25Z</time>
      </trkpt>
      <trkpt lat="48.40949" lon="2.62317">
        <ele>128</ele>
        <time>2012-01-12T14:41:28Z</time>
      </trkpt>
      <trkpt lat="48.40954" lon="2.62309">
        <ele>128</ele>
        <time>2012-01-12T14:41:32Z</time>
      </trkpt>
      <trkpt lat="48.40954" lon="2.62292">
        <ele>128</ele>
        <time>2012-01-12T14:41:40Z</time>
      </trkpt>
      <trkpt lat="48.40952" lon="2.62289">
        <ele>128</ele>
        <time>2012-01-12T14:41:43Z</time>
      </trkpt>
      <trkpt lat="48.40949" lon="2.62286">
        <ele>128</ele>
        <time>2012-01-12T14:41:46Z</time>
      </trkpt>
      <trkpt lat="48.40947" lon="2.62279">
        <ele>128</ele>
        <time>2012-01-12T14:41:51Z</time>
      </trkpt>
      <trkpt lat="48.40934" lon="2.6227">
        <ele>127</ele>
        <time>2012-01-12T14:42:05Z</time>
      </trkpt>
      <trkpt lat="48.40922" lon="2.62261">
        <ele>127</ele>
        <time>2012-01-12T14:42:13Z</time>
      </trkpt>
      <trkpt lat="48.40914" lon="2.62217">
        <ele>123</ele>
        <time>2012-01-12T14:42:31Z</time>
      </trkpt>
      <trkpt lat="48.40911" lon="2.62205">
        <ele>123</ele>
        <time>2012-01-12T14:42:36Z</time>
      </trkpt>
      <trkpt lat="48.40906" lon="2.62184">
        <ele>124</ele>
        <time>2012-01-12T14:42:45Z</time>
      </trkpt>
      <trkpt lat="48.40899" lon="2.6218">
        <ele>123</ele>
        <time>2012-01-12T14:42:51Z</time>
      </trkpt>
      <trkpt lat="48.40897" lon="2.62177">
        <ele>123</ele>
        <time>2012-01-12T14:42:53Z</time>
      </trkpt>
      <trkpt lat="48.40897" lon="2.62169">
        <ele>123</ele>
        <time>2012-01-12T14:42:56Z</time>
      </trkpt>
      <trkpt lat="48.40899" lon="2.62161">
        <ele>123</ele>
        <time>2012-01-12T14:42:59Z</time>
      </trkpt>
      <trkpt lat="48.409" lon="2.62153">
        <ele>122</ele>
        <time>2012-01-12T14:43:03Z</time>
      </trkpt>
      <trkpt lat="48.40899" lon="2.62118">
        <ele>121</ele>
        <time>2012-01-12T14:43:16Z</time>
      </trkpt>
      <trkpt lat="48.40903" lon="2.6211">
        <ele>121</ele>
        <time>2012-01-12T14:43:19Z</time>
      </trkpt>
      <trkpt lat="48.40906" lon="2.62093">
        <ele>122</ele>
        <time>2012-01-12T14:43:25Z</time>
      </trkpt>
      <trkpt lat="48.40907" lon="2.62083">
        <ele>122</ele>
        <time>2012-01-12T14:43:36Z</time>
      </trkpt>
      <trkpt lat="48.40913" lon="2.62082">
        <ele>124</ele>
        <time>2012-01-12T14:44:18Z</time>
      </trkpt>
      <trkpt lat="48.40913" lon="2.62069">
        <ele>121</ele>
        <time>2012-01-12T14:44:42Z</time>
      </trkpt>
      <trkpt lat="48.40916" lon="2.62048">
        <ele>119</ele>
        <time>2012-01-12T14:44:53Z</time>
      </trkpt>
      <trkpt lat="48.40925" lon="2.62026">
        <ele>124</ele>
        <time>2012-01-12T14:45:05Z</time>
      </trkpt>
      <trkpt lat="48.40925" lon="2.62021">
        <ele>124</ele>
        <time>2012-01-12T14:45:07Z</time>
      </trkpt>
      <trkpt lat="48.4094" lon="2.61992">
        <ele>124</ele>
        <time>2012-01-12T14:45:21Z</time>
      </trkpt>
      <trkpt lat="48.40948" lon="2.61972">
        <ele>124</ele>
        <time>2012-01-12T14:45:33Z</time>
      </trkpt>
      <trkpt lat="48.4095" lon="2.61961">
        <ele>124</ele>
        <time>2012-01-12T14:45:39Z</time>
      </trkpt>
      <trkpt lat="48.4096" lon="2.61955">
        <ele>125</ele>
        <time>2012-01-12T14:45:46Z</time>
      </trkpt>
      <trkpt lat="48.40963" lon="2.61953">
        <ele>125</ele>
        <time>2012-01-12T14:45:48Z</time>
      </trkpt>
      <trkpt lat="48.40965" lon="2.61948">
        <ele>125</ele>
        <time>2012-01-12T14:45:51Z</time>
      </trkpt>
      <trkpt lat="48.40965" lon="2.6194">
        <ele>125</ele>
        <time>2012-01-12T14:45:59Z</time>
      </trkpt>
      <trkpt lat="48.40954" lon="2.61927">
        <ele>124</ele>
        <time>2012-01-12T14:46:11Z</time>
      </trkpt>
      <trkpt lat="48.4095" lon="2.61922">
        <ele>124</ele>
        <time>2012-01-12T14:46:35Z</time>
      </trkpt>
      <trkpt lat="48.4095" lon="2.6192">
        <ele>124</ele>
        <time>2012-01-12T14:46:40Z</time>
      </trkpt>
      <trkpt lat="48.40948" lon="2.61892">
        <ele>123</ele>
        <time>2012-01-12T14:46:48Z</time>
      </trkpt>
      <trkpt lat="48.40945" lon="2.61878">
        <ele>123</ele>
        <time>2012-01-12T14:46:55Z</time>
      </trkpt>
      <trkpt lat="48.40939" lon="2.61872">
        <ele>122</ele>
        <time>2012-01-12T14:47:00Z</time>
      </trkpt>
      <trkpt lat="48.40939" lon="2.61868">
        <ele>122</ele>
        <time>2012-01-12T14:47:02Z</time>
      </trkpt>
      <trkpt lat="48.40942" lon="2.61827">
        <ele>121</ele>
        <time>2012-01-12T14:47:16Z</time>
      </trkpt>
      <trkpt lat="48.40959" lon="2.61816">
        <ele>122</ele>
        <time>2012-01-12T14:47:26Z</time>
      </trkpt>
      <trkpt lat="48.40965" lon="2.61809">
        <ele>122</ele>
        <time>2012-01-12T14:47:30Z</time>
      </trkpt>
      <trkpt lat="48.40968" lon="2.61806">
        <ele>122</ele>
        <time>2012-01-12T14:47:32Z</time>
      </trkpt>
      <trkpt lat="48.40969" lon="2.6178">
        <ele>123</ele>
        <time>2012-01-12T14:47:43Z</time>
      </trkpt>
      <trkpt lat="48.40971" lon="2.61759">
        <ele>123</ele>
        <time>2012-01-12T14:47:54Z</time>
      </trkpt>
      <trkpt lat="48.40967" lon="2.61757">
        <ele>123</ele>
        <time>2012-01-12T14:48:30Z</time>
      </trkpt>
      <trkpt lat="48.40975" lon="2.61752">
        <ele>123</ele>
        <time>2012-01-12T14:48:56Z</time>
      </trkpt>
      <trkpt lat="48.40971" lon="2.61739">
        <ele>124</ele>
        <time>2012-01-12T14:49:04Z</time>
      </trkpt>
      <trkpt lat="48.40959" lon="2.61723">
        <ele>123</ele>
        <time>2012-01-12T14:49:14Z</time>
      </trkpt>
      <trkpt lat="48.40938" lon="2.61708">
        <ele>122</ele>
        <time>2012-01-12T14:49:23Z</time>
      </trkpt>
      <trkpt lat="48.4093" lon="2.61695">
        <ele>122</ele>
        <time>2012-01-12T14:49:29Z</time>
      </trkpt>
      <trkpt lat="48.40918" lon="2.61663">
        <ele>119</ele>
        <time>2012-01-12T14:49:39Z</time>
      </trkpt>
      <trkpt lat="48.40916" lon="2.6166">
        <ele>117</ele>
        <time>2012-01-12T14:49:41Z</time>
      </trkpt>
      <trkpt lat="48.40911" lon="2.61639">
        <ele>114</ele>
        <time>2012-01-12T14:49:54Z</time>
      </trkpt>
      <trkpt lat="48.40915" lon="2.61631">
        <ele>114</ele>
        <time>2012-01-12T14:51:15Z</time>
      </trkpt>
      <trkpt lat="48.40911" lon="2.61628">
        <ele>113</ele>
        <time>2012-01-12T14:51:41Z</time>
      </trkpt>
      <trkpt lat="48.40882" lon="2.61612">
        <ele>112</ele>
        <time>2012-01-12T14:51:51Z</time>
      </trkpt>
      <trkpt lat="48.40862" lon="2.61606">
        <ele>110</ele>
        <time>2012-01-12T14:51:57Z</time>
      </trkpt>
      <trkpt lat="48.40853" lon="2.61596">
        <ele>110</ele>
        <time>2012-01-12T14:52:07Z</time>
      </trkpt>
      <trkpt lat="48.40852" lon="2.61592">
        <ele>109</ele>
        <time>2012-01-12T14:52:11Z</time>
      </trkpt>
      <trkpt lat="48.40869" lon="2.61554">
        <ele>110</ele>
        <time>2012-01-12T14:52:30Z</time>
      </trkpt>
      <trkpt lat="48.40875" lon="2.61535">
        <ele>110</ele>
        <time>2012-01-12T14:52:35Z</time>
      </trkpt>
      <trkpt lat="48.40884" lon="2.61517">
        <ele>110</ele>
        <time>2012-01-12T14:52:47Z</time>
      </trkpt>
      <trkpt lat="48.40884" lon="2.61509">
        <ele>110</ele>
        <time>2012-01-12T14:52:51Z</time>
      </trkpt>
      <trkpt lat="48.40887" lon="2.61499">
        <ele>110</ele>
        <time>2012-01-12T14:52:54Z</time>
      </trkpt>
      <trkpt lat="48.40901" lon="2.61458">
        <ele>110</ele>
        <time>2012-01-12T14:53:03Z</time>
      </trkpt>
      <trkpt lat="48.40895" lon="2.61397">
        <ele>108</ele>
        <time>2012-01-12T14:53:14Z</time>
      </trkpt>
      <trkpt lat="48.40896" lon="2.61369">
        <ele>107</ele>
        <time>2012-01-12T14:53:21Z</time>
      </trkpt>
      <trkpt lat="48.40882" lon="2.61314">
        <ele>105</ele>
        <time>2012-01-12T14:53:32Z</time>
      </trkpt>
      <trkpt lat="48.40883" lon="2.6126">
        <ele>104</ele>
        <time>2012-01-12T14:53:44Z</time>
      </trkpt>
      <trkpt lat="48.40891" lon="2.61186">
        <ele>105</ele>
        <time>2012-01-12T14:53:59Z</time>
      </trkpt>
      <trkpt lat="48.40888" lon="2.61135">
        <ele>108</ele>
        <time>2012-01-12T14:54:12Z</time>
      </trkpt>
      <trkpt lat="48.40886" lon="2.611">
        <ele>109</ele>
        <time>2012-01-12T14:54:27Z</time>
      </trkpt>
      <trkpt lat="48.40879" lon="2.61071">
        <ele>112</ele>
        <time>2012-01-12T14:54:48Z</time>
      </trkpt>
      <trkpt lat="48.4087" lon="2.61026">
        <ele>114</ele>
        <time>2012-01-12T14:55:11Z</time>
      </trkpt>
      <trkpt lat="48.4086" lon="2.60978">
        <ele>116</ele>
        <time>2012-01-12T14:55:33Z</time>
      </trkpt>
      <trkpt lat="48.40845" lon="2.60958">
        <ele>116</ele>
        <time>2012-01-12T14:55:48Z</time>
      </trkpt>
      <trkpt lat="48.40844" lon="2.60957">
        <ele>116</ele>
        <time>2012-01-12T14:55:50Z</time>
      </trkpt>
      <trkpt lat="48.4083" lon="2.60939">
        <ele>116</ele>
        <time>2012-01-12T14:55:56Z</time>
      </trkpt>
      <trkpt lat="48.40824" lon="2.60922">
        <ele>116</ele>
        <time>2012-01-12T14:56:03Z</time>
      </trkpt>
      <trkpt lat="48.40822" lon="2.60914">
        <ele>115</ele>
        <time>2012-01-12T14:56:05Z</time>
      </trkpt>
      <trkpt lat="48.40812" lon="2.60912">
        <ele>114</ele>
        <time>2012-01-12T14:56:12Z</time>
      </trkpt>
      <trkpt lat="48.40796" lon="2.60905">
        <ele>113</ele>
        <time>2012-01-12T14:56:22Z</time>
      </trkpt>
      <trkpt lat="48.40785" lon="2.60883">
        <ele>113</ele>
        <time>2012-01-12T14:56:29Z</time>
      </trkpt>
      <trkpt lat="48.4078" lon="2.6085">
        <ele>112</ele>
        <time>2012-01-12T14:56:36Z</time>
      </trkpt>
      <trkpt lat="48.40786" lon="2.60807">
        <ele>111</ele>
        <time>2012-01-12T14:56:50Z</time>
      </trkpt>
      <trkpt lat="48.40784" lon="2.60759">
        <ele>111</ele>
        <time>2012-01-12T14:57:02Z</time>
      </trkpt>
      <trkpt lat="48.40784" lon="2.60698">
        <ele>111</ele>
        <time>2012-01-12T14:57:16Z</time>
      </trkpt>
      <trkpt lat="48.40781" lon="2.60693">
        <ele>111</ele>
        <time>2012-01-12T14:57:21Z</time>
      </trkpt>
      <trkpt lat="48.40762" lon="2.60693">
        <ele>113</ele>
        <time>2012-01-12T14:57:35Z</time>
      </trkpt>
      <trkpt lat="48.40743" lon="2.6069">
        <ele>120</ele>
        <time>2012-01-12T14:57:51Z</time>
      </trkpt>
      <trkpt lat="48.40739" lon="2.60687">
        <ele>120</ele>
        <time>2012-01-12T14:58:08Z</time>
      </trkpt>
      <trkpt lat="48.40723" lon="2.60685">
        <ele>121</ele>
        <time>2012-01-12T14:58:28Z</time>
      </trkpt>
      <trkpt lat="48.4071" lon="2.60685">
        <ele>123</ele>
        <time>2012-01-12T14:58:48Z</time>
      </trkpt>
      <trkpt lat="48.40704" lon="2.60674">
        <ele>123</ele>
        <time>2012-01-12T14:59:12Z</time>
      </trkpt>
      <trkpt lat="48.40702" lon="2.60665">
        <ele>123</ele>
        <time>2012-01-12T14:59:52Z</time>
      </trkpt>
      <trkpt lat="48.40698" lon="2.60638">
        <ele>123</ele>
        <time>2012-01-12T15:00:08Z</time>
      </trkpt>
      <trkpt lat="48.40691" lon="2.60629">
        <ele>123</ele>
        <time>2012-01-12T15:00:16Z</time>
      </trkpt>
      <trkpt lat="48.4069" lon="2.60621">
        <ele>123</ele>
        <time>2012-01-12T15:00:20Z</time>
      </trkpt>
      <trkpt lat="48.40684" lon="2.60612">
        <ele>123</ele>
        <time>2012-01-12T15:00:28Z</time>
      </trkpt>
      <trkpt lat="48.40686" lon="2.606">
        <ele>124</ele>
        <time>2012-01-12T15:00:33Z</time>
      </trkpt>
      <trkpt lat="48.4069" lon="2.60592">
        <ele>123</ele>
        <time>2012-01-12T15:00:36Z</time>
      </trkpt>
      <trkpt lat="48.40692" lon="2.60583">
        <ele>123</ele>
        <time>2012-01-12T15:00:41Z</time>
      </trkpt>
      <trkpt lat="48.407" lon="2.6053">
        <ele>122</ele>
        <time>2012-01-12T15:00:57Z</time>
      </trkpt>
      <trkpt lat="48.40696" lon="2.60473">
        <ele>122</ele>
        <time>2012-01-12T15:01:09Z</time>
      </trkpt>
      <trkpt lat="48.40697" lon="2.60416">
        <ele>122</ele>
        <time>2012-01-12T15:01:21Z</time>
      </trkpt>
      <trkpt lat="48.40673" lon="2.60394">
        <ele>124</ele>
        <time>2012-01-12T15:01:33Z</time>
      </trkpt>
      <trkpt lat="48.40646" lon="2.60361">
        <ele>128</ele>
        <time>2012-01-12T15:01:44Z</time>
      </trkpt>
      <trkpt lat="48.40615" lon="2.6032">
        <ele>128</ele>
        <time>2012-01-12T15:01:55Z</time>
      </trkpt>
      <trkpt lat="48.40609" lon="2.60321">
        <ele>128</ele>
        <time>2012-01-12T15:02:16Z</time>
      </trkpt>
      <trkpt lat="48.40609" lon="2.60321">
        <ele>128</ele>
        <time>2012-01-12T15:03:04Z</time>
      </trkpt>
      <trkpt lat="48.40608" lon="2.6032">
        <ele>128</ele>
        <time>2012-01-12T15:03:17Z</time>
      </trkpt>
      <trkpt lat="48.40605" lon="2.60293">
        <ele>128</ele>
        <time>2012-01-12T15:03:23Z</time>
      </trkpt>
      <trkpt lat="48.40614" lon="2.60225">
        <ele>128</ele>
        <time>2012-01-12T15:03:37Z</time>
      </trkpt>
      <trkpt lat="48.40632" lon="2.60147">
        <ele>127</ele>
        <time>2012-01-12T15:03:51Z</time>
      </trkpt>
      <trkpt lat="48.4064" lon="2.60085">
        <ele>126</ele>
        <time>2012-01-12T15:04:02Z</time>
      </trkpt>
      <trkpt lat="48.40643" lon="2.60008">
        <ele>128</ele>
        <time>2012-01-12T15:04:15Z</time>
      </trkpt>
      <trkpt lat="48.40643" lon="2.59957">
        <ele>129</ele>
        <time>2012-01-12T15:04:25Z</time>
      </trkpt>
      <trkpt lat="48.40635" lon="2.59884">
        <ele>128</ele>
        <time>2012-01-12T15:04:38Z</time>
      </trkpt>
      <trkpt lat="48.40616" lon="2.59846">
        <ele>128</ele>
        <time>2012-01-12T15:04:48Z</time>
      </trkpt>
      <trkpt lat="48.40605" lon="2.59837">
        <ele>128</ele>
        <time>2012-01-12T15:04:58Z</time>
      </trkpt>
      <trkpt lat="48.40594" lon="2.59834">
        <ele>129</ele>
        <time>2012-01-12T15:05:10Z</time>
      </trkpt>
      <trkpt lat="48.40592" lon="2.59833">
        <ele>128</ele>
        <time>2012-01-12T15:05:52Z</time>
      </trkpt>
      <trkpt lat="48.40589" lon="2.5983">
        <ele>128</ele>
        <time>2012-01-12T15:06:23Z</time>
      </trkpt>
      <trkpt lat="48.40589" lon="2.59829">
        <ele>128</ele>
        <time>2012-01-12T15:06:24Z</time>
      </trkpt>
      <trkpt lat="48.40594" lon="2.59819">
        <ele>127</ele>
        <time>2012-01-12T15:08:25Z</time>
      </trkpt>
      <trkpt lat="48.40615" lon="2.59783">
        <ele>126</ele>
        <time>2012-01-12T15:08:36Z</time>
      </trkpt>
      <trkpt lat="48.40613" lon="2.59751">
        <ele>126</ele>
        <time>2012-01-12T15:08:48Z</time>
      </trkpt>
      <trkpt lat="48.40614" lon="2.59749">
        <ele>125</ele>
        <time>2012-01-12T15:08:49Z</time>
      </trkpt>
      <trkpt lat="48.40615" lon="2.59742">
        <ele>125</ele>
        <time>2012-01-12T15:08:51Z</time>
      </trkpt>
      <trkpt lat="48.40615" lon="2.59725">
        <ele>125</ele>
        <time>2012-01-12T15:08:56Z</time>
      </trkpt>
      <trkpt lat="48.40619" lon="2.59721">
        <ele>125</ele>
        <time>2012-01-12T15:08:59Z</time>
      </trkpt>
      <trkpt lat="48.40623" lon="2.5968">
        <ele>124</ele>
        <time>2012-01-12T15:09:11Z</time>
      </trkpt>
      <trkpt lat="48.40625" lon="2.59657">
        <ele>123</ele>
        <time>2012-01-12T15:09:22Z</time>
      </trkpt>
      <trkpt lat="48.40625" lon="2.59656">
        <ele>123</ele>
        <time>2012-01-12T15:09:23Z</time>
      </trkpt>
      <trkpt lat="48.40629" lon="2.59645">
        <ele>123</ele>
        <time>2012-01-12T15:09:27Z</time>
      </trkpt>
      <trkpt lat="48.40631" lon="2.59629">
        <ele>123</ele>
        <time>2012-01-12T15:09:31Z</time>
      </trkpt>
      <trkpt lat="48.40642" lon="2.59588">
        <ele>124</ele>
        <time>2012-01-12T15:09:42Z</time>
      </trkpt>
      <trkpt lat="48.40652" lon="2.59583">
        <ele>123</ele>
        <time>2012-01-12T15:09:46Z</time>
      </trkpt>
      <trkpt lat="48.40669" lon="2.59549">
        <ele>122</ele>
        <time>2012-01-12T15:09:56Z</time>
      </trkpt>
      <trkpt lat="48.40684" lon="2.59515">
        <ele>121</ele>
        <time>2012-01-12T15:10:05Z</time>
      </trkpt>
      <trkpt lat="48.40686" lon="2.5947">
        <ele>119</ele>
        <time>2012-01-12T15:10:14Z</time>
      </trkpt>
      <trkpt lat="48.40679" lon="2.59456">
        <ele>119</ele>
        <time>2012-01-12T15:10:29Z</time>
      </trkpt>
      <trkpt lat="48.40673" lon="2.59453">
        <ele>119</ele>
        <time>2012-01-12T15:10:41Z</time>
      </trkpt>
      <trkpt lat="48.40669" lon="2.59444">
        <ele>120</ele>
        <time>2012-01-12T15:10:53Z</time>
      </trkpt>
      <trkpt lat="48.40659" lon="2.59433">
        <ele>120</ele>
        <time>2012-01-12T15:11:07Z</time>
      </trkpt>
      <trkpt lat="48.40655" lon="2.59423">
        <ele>121</ele>
        <time>2012-01-12T15:11:11Z</time>
      </trkpt>
      <trkpt lat="48.40649" lon="2.59396">
        <ele>121</ele>
        <time>2012-01-12T15:11:22Z</time>
      </trkpt>
      <trkpt lat="48.40636" lon="2.59366">
        <ele>121</ele>
        <time>2012-01-12T15:11:33Z</time>
      </trkpt>
      <trkpt lat="48.40634" lon="2.59351">
        <ele>121</ele>
        <time>2012-01-12T15:11:39Z</time>
      </trkpt>
      <trkpt lat="48.40637" lon="2.59336">
        <ele>122</ele>
        <time>2012-01-12T15:11:44Z</time>
      </trkpt>
      <trkpt lat="48.40641" lon="2.59334">
        <ele>122</ele>
        <time>2012-01-12T15:11:47Z</time>
      </trkpt>
      <trkpt lat="48.40652" lon="2.59336">
        <ele>123</ele>
        <time>2012-01-12T15:11:53Z</time>
      </trkpt>
      <trkpt lat="48.40664" lon="2.59344">
        <ele>123</ele>
        <time>2012-01-12T15:11:58Z</time>
      </trkpt>
      <trkpt lat="48.40671" lon="2.59339">
        <ele>123</ele>
        <time>2012-01-12T15:12:01Z</time>
      </trkpt>
      <trkpt lat="48.40674" lon="2.59338">
        <ele>123</ele>
        <time>2012-01-12T15:12:03Z</time>
      </trkpt>
      <trkpt lat="48.40675" lon="2.59341">
        <ele>122</ele>
        <time>2012-01-12T15:12:05Z</time>
      </trkpt>
      <trkpt lat="48.4067" lon="2.59366">
        <ele>120</ele>
        <time>2012-01-12T15:12:13Z</time>
      </trkpt>
      <trkpt lat="48.40679" lon="2.59361">
        <ele>120</ele>
        <time>2012-01-12T15:12:17Z</time>
      </trkpt>
      <trkpt lat="48.40717" lon="2.59343">
        <ele>117</ele>
        <time>2012-01-12T15:12:26Z</time>
      </trkpt>
      <trkpt lat="48.40719" lon="2.59343">
        <ele>117</ele>
        <time>2012-01-12T15:12:27Z</time>
      </trkpt>
      <trkpt lat="48.40725" lon="2.59349">
        <ele>116</ele>
        <time>2012-01-12T15:12:31Z</time>
      </trkpt>
      <trkpt lat="48.4074" lon="2.59371">
        <ele>116</ele>
        <time>2012-01-12T15:12:42Z</time>
      </trkpt>
      <trkpt lat="48.40752" lon="2.59394">
        <ele>110</ele>
        <time>2012-01-12T15:12:54Z</time>
      </trkpt>
      <trkpt lat="48.40758" lon="2.59415">
        <ele>112</ele>
        <time>2012-01-12T15:13:03Z</time>
      </trkpt>
      <trkpt lat="48.40758" lon="2.59421">
        <ele>112</ele>
        <time>2012-01-12T15:13:06Z</time>
      </trkpt>
      <trkpt lat="48.40773" lon="2.59435">
        <ele>110</ele>
        <time>2012-01-12T15:13:13Z</time>
      </trkpt>
      <trkpt lat="48.40776" lon="2.59436">
        <ele>110</ele>
        <time>2012-01-12T15:13:16Z</time>
      </trkpt>
      <trkpt lat="48.40805" lon="2.59441">
        <ele>108</ele>
        <time>2012-01-12T15:13:26Z</time>
      </trkpt>
      <trkpt lat="48.40819" lon="2.59439">
        <ele>107</ele>
        <time>2012-01-12T15:13:31Z</time>
      </trkpt>
      <trkpt lat="48.40822" lon="2.59436">
        <ele>107</ele>
        <time>2012-01-12T15:13:35Z</time>
      </trkpt>
      <trkpt lat="48.40825" lon="2.59417">
        <ele>106</ele>
        <time>2012-01-12T15:13:44Z</time>
      </trkpt>
      <trkpt lat="48.40828" lon="2.59406">
        <ele>105</ele>
        <time>2012-01-12T15:13:49Z</time>
      </trkpt>
      <trkpt lat="48.4083" lon="2.594">
        <ele>106</ele>
        <time>2012-01-12T15:13:53Z</time>
      </trkpt>
      <trkpt lat="48.4083" lon="2.59394">
        <ele>106</ele>
        <time>2012-01-12T15:13:58Z</time>
      </trkpt>
      <trkpt lat="48.40832" lon="2.59387">
        <ele>106</ele>
        <time>2012-01-12T15:14:05Z</time>
      </trkpt>
      <trkpt lat="48.40837" lon="2.59375">
        <ele>99</ele>
        <time>2012-01-12T15:14:10Z</time>
      </trkpt>
      <trkpt lat="48.40842" lon="2.59346">
        <ele>100</ele>
        <time>2012-01-12T15:14:19Z</time>
      </trkpt>
      <trkpt lat="48.40858" lon="2.59302">
        <ele>98</ele>
        <time>2012-01-12T15:14:30Z</time>
      </trkpt>
      <trkpt lat="48.40873" lon="2.59259">
        <ele>97</ele>
        <time>2012-01-12T15:14:41Z</time>
      </trkpt>
      <trkpt lat="48.4089" lon="2.59248">
        <ele>96</ele>
        <time>2012-01-12T15:14:47Z</time>
      </trkpt>
      <trkpt lat="48.40926" lon="2.59231">
        <ele>90</ele>
        <time>2012-01-12T15:14:58Z</time>
      </trkpt>
      <trkpt lat="48.40936" lon="2.59222">
        <ele>89</ele>
        <time>2012-01-12T15:15:01Z</time>
      </trkpt>
      <trkpt lat="48.40944" lon="2.59219">
        <ele>89</ele>
        <time>2012-01-12T15:15:03Z</time>
      </trkpt>
      <trkpt lat="48.4095" lon="2.59213">
        <ele>89</ele>
        <time>2012-01-12T15:15:05Z</time>
      </trkpt>
      <trkpt lat="48.40974" lon="2.592">
        <ele>88</ele>
        <time>2012-01-12T15:15:15Z</time>
      </trkpt>
      <trkpt lat="48.40975" lon="2.59197">
        <ele>88</ele>
        <time>2012-01-12T15:15:16Z</time>
      </trkpt>
      <trkpt lat="48.4098" lon="2.5918">
        <ele>87</ele>
        <time>2012-01-12T15:15:30Z</time>
      </trkpt>
      <trkpt lat="48.40988" lon="2.5918">
        <ele>87</ele>
        <time>2012-01-12T15:15:42Z</time>
      </trkpt>
      <trkpt lat="48.40995" lon="2.59167">
        <ele>86</ele>
        <time>2012-01-12T15:15:49Z</time>
      </trkpt>
      <trkpt lat="48.40997" lon="2.59152">
        <ele>87</ele>
        <time>2012-01-12T15:15:54Z</time>
      </trkpt>
      <trkpt lat="48.40992" lon="2.59143">
        <ele>88</ele>
        <time>2012-01-12T15:16:03Z</time>
      </trkpt>
      <trkpt lat="48.4098" lon="2.59044">
        <ele>88</ele>
        <time>2012-01-12T15:17:34Z</time>
      </trkpt>
      <trkpt lat="48.40993" lon="2.58983">
        <ele>88</ele>
        <time>2012-01-12T15:17:49Z</time>
      </trkpt>
      <trkpt lat="48.41002" lon="2.58933">
        <ele>85</ele>
        <time>2012-01-12T15:18:00Z</time>
      </trkpt>
      <trkpt lat="48.41013" lon="2.58873">
        <ele>86</ele>
        <time>2012-01-12T15:18:11Z</time>
      </trkpt>
      <trkpt lat="48.41029" lon="2.58781">
        <ele>86</ele>
        <time>2012-01-12T15:18:26Z</time>
      </trkpt>
      <trkpt lat="48.41029" lon="2.58764">
        <ele>86</ele>
        <time>2012-01-12T15:18:29Z</time>
      </trkpt>
      <trkpt lat="48.41025" lon="2.58686">
        <ele>87</ele>
        <time>2012-01-12T15:18:42Z</time>
      </trkpt>
      <trkpt lat="48.41028" lon="2.58609">
        <ele>87</ele>
        <time>2012-01-12T15:18:54Z</time>
      </trkpt>
      <trkpt lat="48.4104" lon="2.58556">
        <ele>83</ele>
        <time>2012-01-12T15:19:05Z</time>
      </trkpt>
      <trkpt lat="48.41039" lon="2.58546">
        <ele>83</ele>
        <time>2012-01-12T15:19:12Z</time>
      </trkpt>
      <trkpt lat="48.41024" lon="2.58542">
        <ele>84</ele>
        <time>2012-01-12T15:19:21Z</time>
      </trkpt>
      <trkpt lat="48.41016" lon="2.58533">
        <ele>84</ele>
        <time>2012-01-12T15:19:26Z</time>
      </trkpt>
      <trkpt lat="48.41004" lon="2.58515">
        <ele>84</ele>
        <time>2012-01-12T15:19:32Z</time>
      </trkpt>
      <trkpt lat="48.40997" lon="2.5851">
        <ele>87</ele>
        <time>2012-01-12T15:19:36Z</time>
      </trkpt>
      <trkpt lat="48.40966" lon="2.58513">
        <ele>91</ele>
        <time>2012-01-12T15:19:50Z</time>
      </trkpt>
      <trkpt lat="48.40956" lon="2.58515">
        <ele>92</ele>
        <time>2012-01-12T15:19:55Z</time>
      </trkpt>
      <trkpt lat="48.40949" lon="2.5852">
        <ele>92</ele>
        <time>2012-01-12T15:20:00Z</time>
      </trkpt>
      <trkpt lat="48.40944" lon="2.5852">
        <ele>93</ele>
        <time>2012-01-12T15:20:03Z</time>
      </trkpt>
      <trkpt lat="48.40927" lon="2.58522">
        <ele>94</ele>
        <time>2012-01-12T15:20:11Z</time>
      </trkpt>
      <trkpt lat="48.4092" lon="2.58536">
        <ele>94</ele>
        <time>2012-01-12T15:20:20Z</time>
      </trkpt>
      <trkpt lat="48.40904" lon="2.58542">
        <ele>97</ele>
        <time>2012-01-12T15:20:26Z</time>
      </trkpt>
      <trkpt lat="48.40875" lon="2.58543">
        <ele>97</ele>
        <time>2012-01-12T15:20:41Z</time>
      </trkpt>
      <trkpt lat="48.40875" lon="2.58544">
        <ele>97</ele>
        <time>2012-01-12T15:20:42Z</time>
      </trkpt>
      <trkpt lat="48.40869" lon="2.58553">
        <ele>97</ele>
        <time>2012-01-12T15:20:47Z</time>
      </trkpt>
      <trkpt lat="48.40857" lon="2.58581">
        <ele>97</ele>
        <time>2012-01-12T15:20:58Z</time>
      </trkpt>
      <trkpt lat="48.40833" lon="2.58608">
        <ele>99</ele>
        <time>2012-01-12T15:21:12Z</time>
      </trkpt>
      <trkpt lat="48.40822" lon="2.58615">
        <ele>99</ele>
        <time>2012-01-12T15:21:18Z</time>
      </trkpt>
      <trkpt lat="48.40812" lon="2.58632">
        <ele>100</ele>
        <time>2012-01-12T15:21:24Z</time>
      </trkpt>
      <trkpt lat="48.40793" lon="2.58654">
        <ele>100</ele>
        <time>2012-01-12T15:21:34Z</time>
      </trkpt>
      <trkpt lat="48.40783" lon="2.58666">
        <ele>100</ele>
        <time>2012-01-12T15:21:39Z</time>
      </trkpt>
      <trkpt lat="48.40763" lon="2.587">
        <ele>105</ele>
        <time>2012-01-12T15:21:52Z</time>
      </trkpt>
      <trkpt lat="48.40747" lon="2.58711">
        <ele>101</ele>
        <time>2012-01-12T15:22:00Z</time>
      </trkpt>
      <trkpt lat="48.40735" lon="2.58743">
        <ele>104</ele>
        <time>2012-01-12T15:22:10Z</time>
      </trkpt>
      <trkpt lat="48.40732" lon="2.58756">
        <ele>108</ele>
        <time>2012-01-12T15:22:15Z</time>
      </trkpt>
      <trkpt lat="48.40737" lon="2.58779">
        <ele>109</ele>
        <time>2012-01-12T15:22:22Z</time>
      </trkpt>
      <trkpt lat="48.40744" lon="2.58781">
        <ele>109</ele>
        <time>2012-01-12T15:22:27Z</time>
      </trkpt>
      <trkpt lat="48.40748" lon="2.58784">
        <ele>110</ele>
        <time>2012-01-12T15:22:31Z</time>
      </trkpt>
      <trkpt lat="48.40754" lon="2.58803">
        <ele>113</ele>
        <time>2012-01-12T15:22:43Z</time>
      </trkpt>
      <trkpt lat="48.40748" lon="2.5881">
        <ele>112</ele>
        <time>2012-01-12T15:22:50Z</time>
      </trkpt>
      <trkpt lat="48.40727" lon="2.58827">
        <ele>112</ele>
        <time>2012-01-12T15:23:08Z</time>
      </trkpt>
      <trkpt lat="48.40722" lon="2.58828">
        <ele>112</ele>
        <time>2012-01-12T15:23:11Z</time>
      </trkpt>
      <trkpt lat="48.40711" lon="2.58841">
        <ele>117</ele>
        <time>2012-01-12T15:23:18Z</time>
      </trkpt>
      <trkpt lat="48.40711" lon="2.58853">
        <ele>117</ele>
        <time>2012-01-12T15:23:23Z</time>
      </trkpt>
      <trkpt lat="48.4071" lon="2.58857">
        <ele>118</ele>
        <time>2012-01-12T15:23:25Z</time>
      </trkpt>
      <trkpt lat="48.40709" lon="2.58869">
        <ele>118</ele>
        <time>2012-01-12T15:23:31Z</time>
      </trkpt>
      <trkpt lat="48.4071" lon="2.58878">
        <ele>118</ele>
        <time>2012-01-12T15:23:36Z</time>
      </trkpt>
      <trkpt lat="48.4071" lon="2.589">
        <ele>119</ele>
        <time>2012-01-12T15:23:48Z</time>
      </trkpt>
      <trkpt lat="48.40711" lon="2.58905">
        <ele>120</ele>
        <time>2012-01-12T15:23:50Z</time>
      </trkpt>
      <trkpt lat="48.40712" lon="2.58953">
        <ele>122</ele>
        <time>2012-01-12T15:24:05Z</time>
      </trkpt>
      <trkpt lat="48.40712" lon="2.58955">
        <ele>122</ele>
        <time>2012-01-12T15:24:06Z</time>
      </trkpt>
      <trkpt lat="48.40723" lon="2.58966">
        <ele>122</ele>
        <time>2012-01-12T15:24:13Z</time>
      </trkpt>
      <trkpt lat="48.4073" lon="2.58975">
        <ele>122</ele>
        <time>2012-01-12T15:24:17Z</time>
      </trkpt>
      <trkpt lat="48.40738" lon="2.58998">
        <ele>123</ele>
        <time>2012-01-12T15:24:23Z</time>
      </trkpt>
      <trkpt lat="48.40738" lon="2.59002">
        <ele>122</ele>
        <time>2012-01-12T15:24:25Z</time>
      </trkpt>
      <trkpt lat="48.4076" lon="2.59044">
        <ele>118</ele>
        <time>2012-01-12T15:24:35Z</time>
      </trkpt>
      <trkpt lat="48.40768" lon="2.59094">
        <ele>116</ele>
        <time>2012-01-12T15:24:46Z</time>
      </trkpt>
      <trkpt lat="48.40767" lon="2.59121">
        <ele>116</ele>
        <time>2012-01-12T15:24:58Z</time>
      </trkpt>
      <trkpt lat="48.40766" lon="2.59121">
        <ele>116</ele>
        <time>2012-01-12T15:24:59Z</time>
      </trkpt>
      <trkpt lat="48.40757" lon="2.59121">
        <ele>116</ele>
        <time>2012-01-12T15:25:06Z</time>
      </trkpt>
      <trkpt lat="48.40749" lon="2.5913">
        <ele>120</ele>
        <time>2012-01-12T15:25:13Z</time>
      </trkpt>
      <trkpt lat="48.40739" lon="2.5915">
        <ele>120</ele>
        <time>2012-01-12T15:25:28Z</time>
      </trkpt>
      <trkpt lat="48.4073" lon="2.59166">
        <ele>120</ele>
        <time>2012-01-12T15:25:49Z</time>
      </trkpt>
      <trkpt lat="48.40727" lon="2.59169">
        <ele>120</ele>
        <time>2012-01-12T15:25:53Z</time>
      </trkpt>
      <trkpt lat="48.40687" lon="2.59183">
        <ele>120</ele>
        <time>2012-01-12T15:26:16Z</time>
      </trkpt>
      <trkpt lat="48.40681" lon="2.59187">
        <ele>120</ele>
        <time>2012-01-12T15:26:19Z</time>
      </trkpt>
      <trkpt lat="48.40673" lon="2.59189">
        <ele>120</ele>
        <time>2012-01-12T15:26:23Z</time>
      </trkpt>
      <trkpt lat="48.40656" lon="2.59192">
        <ele>120</ele>
        <time>2012-01-12T15:26:36Z</time>
      </trkpt>
      <trkpt lat="48.40649" lon="2.59195">
        <ele>120</ele>
        <time>2012-01-12T15:26:43Z</time>
      </trkpt>
      <trkpt lat="48.40637" lon="2.59218">
        <ele>120</ele>
        <time>2012-01-12T15:26:56Z</time>
      </trkpt>
      <trkpt lat="48.40637" lon="2.59235">
        <ele>120</ele>
        <time>2012-01-12T15:27:05Z</time>
      </trkpt>
      <trkpt lat="48.40637" lon="2.59237">
        <ele>120</ele>
        <time>2012-01-12T15:27:07Z</time>
      </trkpt>
      <trkpt lat="48.4064" lon="2.59261">
        <ele>122</ele>
        <time>2012-01-12T15:27:22Z</time>
      </trkpt>
      <trkpt lat="48.40636" lon="2.59298">
        <ele>122</ele>
        <time>2012-01-12T15:27:35Z</time>
      </trkpt>
      <trkpt lat="48.40631" lon="2.59302">
        <ele>122</ele>
        <time>2012-01-12T15:27:48Z</time>
      </trkpt>
      <trkpt lat="48.4063" lon="2.59301">
        <ele>122</ele>
        <time>2012-01-12T15:30:07Z</time>
      </trkpt>
      <trkpt lat="48.40632" lon="2.59302">
        <ele>122</ele>
        <time>2012-01-12T15:30:24Z</time>
      </trkpt>
      <trkpt lat="48.40634" lon="2.59303">
        <ele>122</ele>
        <time>2012-01-12T15:30:29Z</time>
      </trkpt>
      <trkpt lat="48.40635" lon="2.59302">
        <ele>122</ele>
        <time>2012-01-12T15:30:50Z</time>
      </trkpt>
      <trkpt lat="48.40634" lon="2.59303">
        <ele>122</ele>
        <time>2012-01-12T15:32:12Z</time>
      </trkpt>
      <trkpt lat="48.40634" lon="2.59304">
        <ele>122</ele>
        <time>2012-01-12T15:32:25Z</time>
      </trkpt>
      <trkpt lat="48.40634" lon="2.59299">
        <ele>122</ele>
        <time>2012-01-12T15:32:36Z</time>
      </trkpt>
      <trkpt lat="48.40632" lon="2.59274">
        <ele>122</ele>
        <time>2012-01-12T15:32:48Z</time>
      </trkpt>
      <trkpt lat="48.40621" lon="2.59271">
        <ele>121</ele>
        <time>2012-01-12T15:33:01Z</time>
      </trkpt>
      <trkpt lat="48.40619" lon="2.59267">
        <ele>121</ele>
        <time>2012-01-12T15:33:09Z</time>
      </trkpt>
      <trkpt lat="48.40615" lon="2.59235">
        <ele>119</ele>
        <time>2012-01-12T15:33:22Z</time>
      </trkpt>
      <trkpt lat="48.40616" lon="2.59214">
        <ele>119</ele>
        <time>2012-01-12T15:33:27Z</time>
      </trkpt>
      <trkpt lat="48.4061" lon="2.59195">
        <ele>118</ele>
        <time>2012-01-12T15:33:38Z</time>
      </trkpt>
      <trkpt lat="48.40604" lon="2.59191">
        <ele>118</ele>
        <time>2012-01-12T15:33:55Z</time>
      </trkpt>
      <trkpt lat="48.40593" lon="2.59186">
        <ele>117</ele>
        <time>2012-01-12T15:34:03Z</time>
      </trkpt>
      <trkpt lat="48.4057" lon="2.59196">
        <ele>111</ele>
        <time>2012-01-12T15:34:11Z</time>
      </trkpt>
      <trkpt lat="48.40551" lon="2.5919">
        <ele>109</ele>
        <time>2012-01-12T15:34:19Z</time>
      </trkpt>
      <trkpt lat="48.40549" lon="2.5919">
        <ele>109</ele>
        <time>2012-01-12T15:34:20Z</time>
      </trkpt>
      <trkpt lat="48.40525" lon="2.59194">
        <ele>107</ele>
        <time>2012-01-12T15:34:33Z</time>
      </trkpt>
      <trkpt lat="48.40523" lon="2.59196">
        <ele>106</ele>
        <time>2012-01-12T15:34:35Z</time>
      </trkpt>
      <trkpt lat="48.40505" lon="2.59226">
        <ele>105</ele>
        <time>2012-01-12T15:34:45Z</time>
      </trkpt>
      <trkpt lat="48.40478" lon="2.59235">
        <ele>102</ele>
        <time>2012-01-12T15:34:54Z</time>
      </trkpt>
      <trkpt lat="48.40478" lon="2.59235">
        <ele>102</ele>
        <time>2012-01-12T15:35:01Z</time>
      </trkpt>
      <trkpt lat="48.40466" lon="2.59214">
        <ele>102</ele>
        <time>2012-01-12T15:35:14Z</time>
      </trkpt>
      <trkpt lat="48.4045" lon="2.59193">
        <ele>102</ele>
        <time>2012-01-12T15:35:24Z</time>
      </trkpt>
      <trkpt lat="48.40427" lon="2.59179">
        <ele>102</ele>
        <time>2012-01-12T15:35:36Z</time>
      </trkpt>
      <trkpt lat="48.40402" lon="2.59167">
        <ele>102</ele>
        <time>2012-01-12T15:35:49Z</time>
      </trkpt>
      <trkpt lat="48.404" lon="2.59168">
        <ele>102</ele>
        <time>2012-01-12T15:35:50Z</time>
      </trkpt>
      <trkpt lat="48.40362" lon="2.5919">
        <ele>103</ele>
        <time>2012-01-12T15:36:04Z</time>
      </trkpt>
      <trkpt lat="48.40337" lon="2.59203">
        <ele>103</ele>
        <time>2012-01-12T15:36:11Z</time>
      </trkpt>
      <trkpt lat="48.40324" lon="2.59249">
        <ele>103</ele>
        <time>2012-01-12T15:36:18Z</time>
      </trkpt>
      <trkpt lat="48.40315" lon="2.59265">
        <ele>105</ele>
        <time>2012-01-12T15:36:21Z</time>
      </trkpt>
      <trkpt lat="48.40305" lon="2.59287">
        <ele>105</ele>
        <time>2012-01-12T15:36:25Z</time>
      </trkpt>
      <trkpt lat="48.4028" lon="2.59313">
        <ele>105</ele>
        <time>2012-01-12T15:36:36Z</time>
      </trkpt>
      <trkpt lat="48.40264" lon="2.59319">
        <ele>104</ele>
        <time>2012-01-12T15:36:43Z</time>
      </trkpt>
      <trkpt lat="48.40237" lon="2.59332">
        <ele>106</ele>
        <time>2012-01-12T15:36:58Z</time>
      </trkpt>
      <trkpt lat="48.40222" lon="2.59348">
        <ele>111</ele>
        <time>2012-01-12T15:37:10Z</time>
      </trkpt>
      <trkpt lat="48.40214" lon="2.59362">
        <ele>113</ele>
        <time>2012-01-12T15:37:21Z</time>
      </trkpt>
      <trkpt lat="48.40203" lon="2.59368">
        <ele>114</ele>
        <time>2012-01-12T15:37:36Z</time>
      </trkpt>
      <trkpt lat="48.40182" lon="2.59371">
        <ele>116</ele>
        <time>2012-01-12T15:37:51Z</time>
      </trkpt>
      <trkpt lat="48.40172" lon="2.59379">
        <ele>116</ele>
        <time>2012-01-12T15:38:08Z</time>
      </trkpt>
      <trkpt lat="48.40162" lon="2.59377">
        <ele>123</ele>
        <time>2012-01-12T15:38:22Z</time>
      </trkpt>
      <trkpt lat="48.40154" lon="2.59369">
        <ele>123</ele>
        <time>2012-01-12T15:38:37Z</time>
      </trkpt>
      <trkpt lat="48.40155" lon="2.59364">
        <ele>123</ele>
        <time>2012-01-12T15:38:41Z</time>
      </trkpt>
      <trkpt lat="48.40155" lon="2.59331">
        <ele>121</ele>
        <time>2012-01-12T15:38:54Z</time>
      </trkpt>
      <trkpt lat="48.40156" lon="2.59316">
        <ele>121</ele>
        <time>2012-01-12T15:39:02Z</time>
      </trkpt>
      <trkpt lat="48.40152" lon="2.593">
        <ele>120</ele>
        <time>2012-01-12T15:39:08Z</time>
      </trkpt>
      <trkpt lat="48.4015" lon="2.59294">
        <ele>120</ele>
        <time>2012-01-12T15:39:11Z</time>
      </trkpt>
      <trkpt lat="48.40134" lon="2.59264">
        <ele>120</ele>
        <time>2012-01-12T15:39:26Z</time>
      </trkpt>
      <trkpt lat="48.40129" lon="2.59245">
        <ele>116</ele>
        <time>2012-01-12T15:40:13Z</time>
      </trkpt>
      <trkpt lat="48.40132" lon="2.59234">
        <ele>116</ele>
      </trkpt>
      <trkpt lat="48.40135" lon="2.59209">
        <ele>115</ele>
      </trkpt>
      <trkpt lat="48.40136" lon="2.59185">
        <ele>113</ele>
      </trkpt>
      <trkpt lat="48.4014" lon="2.5918">
        <ele>113</ele>
      </trkpt>
      <trkpt lat="48.40143" lon="2.59174">
        <ele>112</ele>
      </trkpt>
      <trkpt lat="48.40149" lon="2.5917">
        <ele>110</ele>
      </trkpt>
      <trkpt lat="48.40157" lon="2.5917">
        <ele>109</ele>
      </trkpt>
      <trkpt lat="48.40162" lon="2.59167">
        <ele>107</ele>
      </trkpt>
      <trkpt lat="48.40175" lon="2.59161">
        <ele>103</ele>
      </trkpt>
      <trkpt lat="48.4018" lon="2.59154">
        <ele>101</ele>
      </trkpt>
      <trkpt lat="48.40186" lon="2.59139">
        <ele>100</ele>
      </trkpt>
      <trkpt lat="48.40195" lon="2.59134">
        <ele>99</ele>
      </trkpt>
      <trkpt lat="48.40203" lon="2.59124">
        <ele>98</ele>
      </trkpt>
      <trkpt lat="48.40211" lon="2.59115">
        <ele>97</ele>
      </trkpt>
      <trkpt lat="48.40217" lon="2.59098">
        <ele>97</ele>
      </trkpt>
      <trkpt lat="48.40219" lon="2.59096">
        <ele>96</ele>
      </trkpt>
      <trkpt lat="48.40219" lon="2.5909">
        <ele>96</ele>
      </trkpt>
      <trkpt lat="48.40238" lon="2.59071">
        <ele>93</ele>
      </trkpt>
      <trkpt lat="48.4024" lon="2.5907">
        <ele>93</ele>
      </trkpt>
      <trkpt lat="48.40247" lon="2.59058">
        <ele>93</ele>
      </trkpt>
      <trkpt lat="48.4025" lon="2.59046">
        <ele>93</ele>
      </trkpt>
      <trkpt lat="48.4026" lon="2.59033">
        <ele>93</ele>
      </trkpt>
      <trkpt lat="48.40261" lon="2.59032">
        <ele>93</ele>
      </trkpt>
      <trkpt lat="48.40259" lon="2.59024">
        <ele>93</ele>
      </trkpt>
      <trkpt lat="48.40252" lon="2.58956">
        <ele>91</ele>
      </trkpt>
      <trkpt lat="48.40243" lon="2.58856">
        <ele>88</ele>
      </trkpt>
      <trkpt lat="48.40242" lon="2.58842">
        <ele>87</ele>
      </trkpt>
      <trkpt lat="48.40228" lon="2.58775">
        <ele>86</ele>
      </trkpt>
      <trkpt lat="48.40225" lon="2.58772">
        <ele>86</ele>
      </trkpt>
      <trkpt lat="48.40181" lon="2.58751">
        <ele>87</ele>
      </trkpt>
      <trkpt lat="48.40151" lon="2.58727">
        <ele>89</ele>
      </trkpt>
      <trkpt lat="48.40119" lon="2.58738">
        <ele>89</ele>
      </trkpt>
      <trkpt lat="48.40086" lon="2.58769">
        <ele>90</ele>
      </trkpt>
      <trkpt lat="48.40061" lon="2.58818">
        <ele>96</ele>
      </trkpt>
      <trkpt lat="48.40053" lon="2.58839">
        <ele>97</ele>
      </trkpt>
      <trkpt lat="48.40037" lon="2.58913">
        <ele>99</ele>
      </trkpt>
      <trkpt lat="48.40037" lon="2.58918">
        <ele>101</ele>
      </trkpt>
      <trkpt lat="48.40027" lon="2.58941">
        <ele>102</ele>
      </trkpt>
      <trkpt lat="48.40024" lon="2.58947">
        <ele>102</ele>
      </trkpt>
      <trkpt lat="48.40021" lon="2.58958">
        <ele>102</ele>
      </trkpt>
      <trkpt lat="48.40035" lon="2.58938">
        <ele>101</ele>
      </trkpt>
      <trkpt lat="48.40037" lon="2.58948">
        <ele>101</ele>
      </trkpt>
      <trkpt lat="48.40033" lon="2.58957">
        <ele>102</ele>
      </trkpt>
      <trkpt lat="48.40032" lon="2.5897">
        <ele>102</ele>
      </trkpt>
      <trkpt lat="48.40024" lon="2.58978">
        <ele>102</ele>
      </trkpt>
      <trkpt lat="48.40017" lon="2.58984">
        <ele>102</ele>
      </trkpt>
      <trkpt lat="48.40014" lon="2.58991">
        <ele>103</ele>
      </trkpt>
      <trkpt lat="48.40006" lon="2.58997">
        <ele>103</ele>
      </trkpt>
      <trkpt lat="48.40001" lon="2.59015">
        <ele>105</ele>
      </trkpt>
      <trkpt lat="48.4" lon="2.59026">
        <ele>106</ele>
      </trkpt>
      <trkpt lat="48.39991" lon="2.59035">
        <ele>109</ele>
      </trkpt>
      <trkpt lat="48.39993" lon="2.59046">
        <ele>110</ele>
      </trkpt>
      <trkpt lat="48.39992" lon="2.59052">
        <ele>110</ele>
      </trkpt>
      <trkpt lat="48.39987" lon="2.59057">
        <ele>110</ele>
      </trkpt>
      <trkpt lat="48.39985" lon="2.59058">
        <ele>110</ele>
      </trkpt>
      <trkpt lat="48.39984" lon="2.59057">
        <ele>110</ele>
      </trkpt>
      <trkpt lat="48.39984" lon="2.59049">
        <ele>110</ele>
      </trkpt>
      <trkpt lat="48.39973" lon="2.5904">
        <ele>110</ele>
      </trkpt>
      <trkpt lat="48.39969" lon="2.59042">
        <ele>110</ele>
      </trkpt>
      <trkpt lat="48.39966" lon="2.59046">
        <ele>111</ele>
      </trkpt>
      <trkpt lat="48.39965" lon="2.5905">
        <ele>111</ele>
      </trkpt>
      <trkpt lat="48.39963" lon="2.59053">
        <ele>111</ele>
      </trkpt>
      <trkpt lat="48.39958" lon="2.59054">
        <ele>111</ele>
      </trkpt>
      <trkpt lat="48.39956" lon="2.59055">
        <ele>111</ele>
      </trkpt>
      <trkpt lat="48.3994" lon="2.59068">
        <ele>113</ele>
      </trkpt>
      <trkpt lat="48.39937" lon="2.5907">
        <ele>113</ele>
      </trkpt>
      <trkpt lat="48.39936" lon="2.59073">
        <ele>113</ele>
      </trkpt>
      <trkpt lat="48.39934" lon="2.59063">
        <ele>113</ele>
      </trkpt>
      <trkpt lat="48.39923" lon="2.5911">
        <ele>116</ele>
      </trkpt>
      <trkpt lat="48.39929" lon="2.5919">
        <ele>120</ele>
      </trkpt>
      <trkpt lat="48.39943" lon="2.59236">
        <ele>120</ele>
      </trkpt>
      <trkpt lat="48.39951" lon="2.59233">
        <ele>120</ele>
      </trkpt>
      <trkpt lat="48.39954" lon="2.59224">
        <ele>120</ele>
      </trkpt>
      <trkpt lat="48.39956" lon="2.5922">
        <ele>120</ele>
      </trkpt>
      <trkpt lat="48.39966" lon="2.59218">
        <ele>120</ele>
      </trkpt>
      <trkpt lat="48.39973" lon="2.59221">
        <ele>120</ele>
      </trkpt>
      <trkpt lat="48.39978" lon="2.59221">
        <ele>120</ele>
      </trkpt>
      <trkpt lat="48.39989" lon="2.59234">
        <ele>120</ele>
      </trkpt>
      <trkpt lat="48.40018" lon="2.59271">
        <ele>122</ele>
      </trkpt>
      <trkpt lat="48.40022" lon="2.59266">
        <ele>122</ele>
      </trkpt>
      <trkpt lat="48.40026" lon="2.59256">
        <ele>122</ele>
      </trkpt>
      <trkpt lat="48.40027" lon="2.59247">
        <ele>121</ele>
      </trkpt>
      <trkpt lat="48.40028" lon="2.59247">
        <ele>121</ele>
      </trkpt>
      <trkpt lat="48.40032" lon="2.59246">
        <ele>121</ele>
      </trkpt>
      <trkpt lat="48.40034" lon="2.5924">
        <ele>121</ele>
      </trkpt>
      <trkpt lat="48.40037" lon="2.59234">
        <ele>121</ele>
      </trkpt>
      <trkpt lat="48.40037" lon="2.59223">
        <ele>120</ele>
      </trkpt>
      <trkpt lat="48.40035" lon="2.59217">
        <ele>120</ele>
      </trkpt>
      <trkpt lat="48.40037" lon="2.59197">
        <ele>120</ele>
      </trkpt>
      <trkpt lat="48.4004" lon="2.59191">
        <ele>120</ele>
      </trkpt>
      <trkpt lat="48.40047" lon="2.59168">
        <ele>120</ele>
      </trkpt>
      <trkpt lat="48.40047" lon="2.59168">
        <ele>120</ele>
      </trkpt>
      <trkpt lat="48.40048" lon="2.59159">
        <ele>116</ele>
      </trkpt>
      <trkpt lat="48.40055" lon="2.59152">
        <ele>116</ele>
      </trkpt>
      <trkpt lat="48.4006" lon="2.59152">
        <ele>116</ele>
      </trkpt>
      <trkpt lat="48.40061" lon="2.59151">
        <ele>116</ele>
      </trkpt>
      <trkpt lat="48.40065" lon="2.59151">
        <ele>116</ele>
      </trkpt>
      <trkpt lat="48.40066" lon="2.59152">
        <ele>117</ele>
      </trkpt>
      <trkpt lat="48.40069" lon="2.59161">
        <ele>117</ele>
      </trkpt>
      <trkpt lat="48.40074" lon="2.59173">
        <ele>119</ele>
      </trkpt>
      <trkpt lat="48.40082" lon="2.59189">
        <ele>120</ele>
      </trkpt>
      <trkpt lat="48.40085" lon="2.59188">
        <ele>117</ele>
      </trkpt>
      <trkpt lat="48.40096" lon="2.59194">
        <ele>117</ele>
      </trkpt>
      <trkpt lat="48.40099" lon="2.59199">
        <ele>117</ele>
      </trkpt>
      <trkpt lat="48.40102" lon="2.59207">
        <ele>117</ele>
      </trkpt>
      <trkpt lat="48.40106" lon="2.59218">
        <ele>117</ele>
      </trkpt>
      <trkpt lat="48.40125" lon="2.59233">
        <ele>116</ele>
      </trkpt>
      <trkpt lat="48.40125" lon="2.59266">
        <ele>121</ele>
        <time>2012-01-12T15:40:25Z</time>
      </trkpt>
      <trkpt lat="48.40125" lon="2.59311">
        <ele>122</ele>
        <time>2012-01-12T15:40:38Z</time>
      </trkpt>
      <trkpt lat="48.40126" lon="2.59371">
        <ele>124</ele>
        <time>2012-01-12T15:40:51Z</time>
      </trkpt>
      <trkpt lat="48.40125" lon="2.59381">
        <ele>125</ele>
        <time>2012-01-12T15:40:53Z</time>
      </trkpt>
      <trkpt lat="48.40096" lon="2.59414">
        <ele>127</ele>
        <time>2012-01-12T15:41:05Z</time>
      </trkpt>
      <trkpt lat="48.40055" lon="2.59452">
        <ele>127</ele>
        <time>2012-01-12T15:41:20Z</time>
      </trkpt>
      <trkpt lat="48.40039" lon="2.59476">
        <ele>126</ele>
        <time>2012-01-12T15:41:25Z</time>
      </trkpt>
      <trkpt lat="48.40016" lon="2.59479">
        <ele>124</ele>
        <time>2012-01-12T15:41:35Z</time>
      </trkpt>
      <trkpt lat="48.40013" lon="2.59481">
        <ele>124</ele>
        <time>2012-01-12T15:41:37Z</time>
      </trkpt>
      <trkpt lat="48.40001" lon="2.59482">
        <ele>123</ele>
        <time>2012-01-12T15:41:46Z</time>
      </trkpt>
      <trkpt lat="48.39999" lon="2.59484">
        <ele>121</ele>
        <time>2012-01-12T15:41:56Z</time>
      </trkpt>
      <trkpt lat="48.40001" lon="2.59485">
        <ele>123</ele>
        <time>2012-01-12T15:42:07Z</time>
      </trkpt>
      <trkpt lat="48.40002" lon="2.59484">
        <ele>123</ele>
        <time>2012-01-12T15:42:19Z</time>
      </trkpt>
      <trkpt lat="48.39981" lon="2.59485">
        <ele>121</ele>
        <time>2012-01-12T15:42:29Z</time>
      </trkpt>
      <trkpt lat="48.39963" lon="2.59489">
        <ele>120</ele>
        <time>2012-01-12T15:42:34Z</time>
      </trkpt>
      <trkpt lat="48.39937" lon="2.59501">
        <ele>119</ele>
        <time>2012-01-12T15:42:41Z</time>
      </trkpt>
      <trkpt lat="48.39906" lon="2.59479">
        <ele>119</ele>
        <time>2012-01-12T15:42:51Z</time>
      </trkpt>
      <trkpt lat="48.39892" lon="2.59472">
        <ele>119</ele>
        <time>2012-01-12T15:43:02Z</time>
      </trkpt>
      <trkpt lat="48.39892" lon="2.59471">
        <ele>119</ele>
        <time>2012-01-12T15:43:28Z</time>
      </trkpt>
      <trkpt lat="48.39794" lon="2.59402">
        <ele>120</ele>
      </trkpt>
      <trkpt lat="48.39776" lon="2.59381">
        <ele>119</ele>
      </trkpt>
      <trkpt lat="48.39748" lon="2.59363">
        <ele>111</ele>
      </trkpt>
      <trkpt lat="48.39735" lon="2.59342">
        <ele>110</ele>
      </trkpt>
      <trkpt lat="48.396" lon="2.59285">
        <ele>90</ele>
      </trkpt>
      <trkpt lat="48.39644" lon="2.58866">
        <ele>87</ele>
      </trkpt>
      <trkpt lat="48.39667" lon="2.58933">
        <ele>90</ele>
      </trkpt>
      <trkpt lat="48.3969" lon="2.58975">
        <ele>92</ele>
      </trkpt>
      <trkpt lat="48.39728" lon="2.58987">
        <ele>96</ele>
      </trkpt>
      <trkpt lat="48.39764" lon="2.5897">
        <ele>102</ele>
      </trkpt>
      <trkpt lat="48.39802" lon="2.58974">
        <ele>104</ele>
      </trkpt>
      <trkpt lat="48.39828" lon="2.59011">
        <ele>109</ele>
      </trkpt>
      <trkpt lat="48.39863" lon="2.59011">
        <ele>113</ele>
      </trkpt>
      <trkpt lat="48.39898" lon="2.58991">
        <ele>113</ele>
      </trkpt>
      <trkpt lat="48.39918" lon="2.59038">
        <ele>113</ele>
      </trkpt>
      <trkpt lat="48.39909" lon="2.59131">
        <ele>119</ele>
      </trkpt>
      <trkpt lat="48.39933" lon="2.59276">
        <ele>121</ele>
      </trkpt>
      <trkpt lat="48.39927" lon="2.59328">
        <ele>122</ele>
      </trkpt>
      <trkpt lat="48.39931" lon="2.59391">
        <ele>122</ele>
      </trkpt>
      <trkpt lat="48.39929" lon="2.59433">
        <ele>121</ele>
      </trkpt>
      <trkpt lat="48.39893" lon="2.59463">
        <ele>120</ele>
      </trkpt>
      <trkpt lat="48.39892" lon="2.59462">
        <ele>120</ele>
      </trkpt>
      <trkpt lat="48.39887" lon="2.59507">
        <ele>118</ele>
      </trkpt>
      <trkpt lat="48.3989" lon="2.59581">
        <ele>118</ele>
      </trkpt>
      <trkpt lat="48.39894" lon="2.59666">
        <ele>118</ele>
      </trkpt>
      <trkpt lat="48.39901" lon="2.5978">
        <ele>119</ele>
      </trkpt>
      <trkpt lat="48.39912" lon="2.5986">
        <ele>120</ele>
      </trkpt>
      <trkpt lat="48.39889" lon="2.59908">
        <ele>120</ele>
      </trkpt>
      <trkpt lat="48.39853" lon="2.59976">
        <ele>120</ele>
      </trkpt>
      <trkpt lat="48.39829" lon="2.60038">
        <ele>118</ele>
      </trkpt>
      <trkpt lat="48.39811" lon="2.60128">
        <ele>117</ele>
      </trkpt>
      <trkpt lat="48.39799" lon="2.60185">
        <ele>117</ele>
      </trkpt>
      <trkpt lat="48.39789" lon="2.60183">
        <ele>117</ele>
      </trkpt>
      <trkpt lat="48.39775" lon="2.60147">
        <ele>117</ele>
      </trkpt>
      <trkpt lat="48.39757" lon="2.60131">
        <ele>117</ele>
      </trkpt>
      <trkpt lat="48.39748" lon="2.60116">
        <ele>116</ele>
      </trkpt>
      <trkpt lat="48.39743" lon="2.60112">
        <ele>116</ele>
      </trkpt>
      <trkpt lat="48.39737" lon="2.60095">
        <ele>116</ele>
      </trkpt>
      <trkpt lat="48.39709" lon="2.60057">
        <ele>113</ele>
      </trkpt>
      <trkpt lat="48.39697" lon="2.60051">
        <ele>113</ele>
      </trkpt>
      <trkpt lat="48.39689" lon="2.60052">
        <ele>113</ele>
      </trkpt>
      <trkpt lat="48.3968" lon="2.60052">
        <ele>112</ele>
      </trkpt>
      <trkpt lat="48.39667" lon="2.60035">
        <ele>112</ele>
      </trkpt>
      <trkpt lat="48.39657" lon="2.60016">
        <ele>106</ele>
      </trkpt>
      <trkpt lat="48.39646" lon="2.59997">
        <ele>105</ele>
      </trkpt>
      <trkpt lat="48.39638" lon="2.59974">
        <ele>104</ele>
      </trkpt>
      <trkpt lat="48.39627" lon="2.59966">
        <ele>103</ele>
      </trkpt>
      <trkpt lat="48.39618" lon="2.59965">
        <ele>102</ele>
      </trkpt>
      <trkpt lat="48.39611" lon="2.59966">
        <ele>101</ele>
      </trkpt>
      <trkpt lat="48.39599" lon="2.59967">
        <ele>100</ele>
      </trkpt>
      <trkpt lat="48.39579" lon="2.59973">
        <ele>93</ele>
      </trkpt>
      <trkpt lat="48.39525" lon="2.59979">
        <ele>92</ele>
      </trkpt>
      <trkpt lat="48.39492" lon="2.59973">
        <ele>92</ele>
      </trkpt>
      <trkpt lat="48.39492" lon="2.59973">
        <ele>92</ele>
        <time>2011-11-27T10:00:45Z</time>
      </trkpt>
      <trkpt lat="48.39461" lon="2.59955">
        <ele>94</ele>
        <time>2011-11-27T10:00:57Z</time>
      </trkpt>
      <trkpt lat="48.39417" lon="2.5993">
        <ele>97</ele>
        <time>2011-11-27T10:01:15Z</time>
      </trkpt>
      <trkpt lat="48.39373" lon="2.59904">
        <ele>103</ele>
        <time>2011-11-27T10:01:34Z</time>
      </trkpt>
      <trkpt lat="48.39328" lon="2.59875">
        <ele>110</ele>
        <time>2011-11-27T10:01:52Z</time>
      </trkpt>
      <trkpt lat="48.39299" lon="2.59858">
        <ele>112</ele>
        <time>2011-11-27T10:02:04Z</time>
      </trkpt>
      <trkpt lat="48.39265" lon="2.59852">
        <ele>115</ele>
        <time>2011-11-27T10:02:16Z</time>
      </trkpt>
      <trkpt lat="48.3923" lon="2.59846">
        <ele>122</ele>
        <time>2011-11-27T10:02:31Z</time>
      </trkpt>
      <trkpt lat="48.39188" lon="2.59837">
        <ele>125</ele>
        <time>2011-11-27T10:02:48Z</time>
      </trkpt>
      <trkpt lat="48.39151" lon="2.59831">
        <ele>128</ele>
        <time>2011-11-27T10:03:02Z</time>
      </trkpt>
      <trkpt lat="48.39119" lon="2.59823">
        <ele>129</ele>
        <time>2011-11-27T10:03:14Z</time>
      </trkpt>
      <trkpt lat="48.39068" lon="2.59816">
        <ele>129</ele>
        <time>2011-11-27T10:03:31Z</time>
      </trkpt>
      <trkpt lat="48.39005" lon="2.59804">
        <ele>129</ele>
        <time>2011-11-27T10:03:49Z</time>
      </trkpt>
      <trkpt lat="48.38958" lon="2.59795">
        <ele>127</ele>
        <time>2011-11-27T10:04:02Z</time>
      </trkpt>
      <trkpt lat="48.38911" lon="2.59782">
        <ele>125</ele>
        <time>2011-11-27T10:04:16Z</time>
      </trkpt>
      <trkpt lat="48.38918" lon="2.59727">
        <ele>126</ele>
        <time>2011-11-27T10:04:28Z</time>
      </trkpt>
      <trkpt lat="48.38938" lon="2.59651">
        <ele>126</ele>
        <time>2011-11-27T10:04:45Z</time>
      </trkpt>
      <trkpt lat="48.3896" lon="2.59562">
        <ele>126</ele>
        <time>2011-11-27T10:05:03Z</time>
      </trkpt>
      <trkpt lat="48.38981" lon="2.59479">
        <ele>126</ele>
        <time>2011-11-27T10:05:19Z</time>
      </trkpt>
      <trkpt lat="48.39015" lon="2.59401">
        <ele>128</ele>
        <time>2011-11-27T10:05:36Z</time>
      </trkpt>
      <trkpt lat="48.39047" lon="2.59319">
        <ele>126</ele>
        <time>2011-11-27T10:05:54Z</time>
      </trkpt>
      <trkpt lat="48.39066" lon="2.59251">
        <ele>127</ele>
        <time>2011-11-27T10:06:07Z</time>
      </trkpt>
      <trkpt lat="48.39078" lon="2.59213">
        <ele>125</ele>
        <time>2011-11-27T10:06:16Z</time>
      </trkpt>
      <trkpt lat="48.39071" lon="2.59207">
        <ele>125</ele>
        <time>2011-11-27T10:06:20Z</time>
      </trkpt>
      <trkpt lat="48.39014" lon="2.59223">
        <ele>123</ele>
        <time>2011-11-27T10:06:37Z</time>
      </trkpt>
      <trkpt lat="48.39011" lon="2.59225">
        <ele>123</ele>
        <time>2011-11-27T10:06:38Z</time>
      </trkpt>
      <trkpt lat="48.39002" lon="2.59239">
        <ele>123</ele>
        <time>2011-11-27T10:06:42Z</time>
      </trkpt>
      <trkpt lat="48.38995" lon="2.59254">
        <ele>122</ele>
        <time>2011-11-27T10:06:46Z</time>
      </trkpt>
      <trkpt lat="48.38987" lon="2.5926">
        <ele>123</ele>
        <time>2011-11-27T10:06:52Z</time>
      </trkpt>
      <trkpt lat="48.38975" lon="2.5927">
        <ele>123</ele>
        <time>2011-11-27T10:06:57Z</time>
      </trkpt>
      <trkpt lat="48.38959" lon="2.59271">
        <ele>123</ele>
        <time>2011-11-27T10:07:06Z</time>
      </trkpt>
      <trkpt lat="48.38951" lon="2.59283">
        <ele>123</ele>
        <time>2011-11-27T10:07:22Z</time>
      </trkpt>
      <trkpt lat="48.3894" lon="2.59296">
        <ele>123</ele>
        <time>2011-11-27T10:07:38Z</time>
      </trkpt>
      <trkpt lat="48.38934" lon="2.59304">
        <ele>123</ele>
        <time>2011-11-27T10:07:50Z</time>
      </trkpt>
      <trkpt lat="48.38919" lon="2.59311">
        <ele>123</ele>
        <time>2011-11-27T10:08:02Z</time>
      </trkpt>
      <trkpt lat="48.3892" lon="2.59296">
        <ele>123</ele>
        <time>2011-11-27T10:08:08Z</time>
      </trkpt>
      <trkpt lat="48.38934" lon="2.59258">
        <ele>123</ele>
        <time>2011-11-27T10:08:21Z</time>
      </trkpt>
      <trkpt lat="48.38935" lon="2.59247">
        <ele>123</ele>
        <time>2011-11-27T10:08:24Z</time>
      </trkpt>
      <trkpt lat="48.38937" lon="2.59234">
        <ele>123</ele>
        <time>2011-11-27T10:08:27Z</time>
      </trkpt>
      <trkpt lat="48.38942" lon="2.59207">
        <ele>123</ele>
        <time>2011-11-27T10:08:33Z</time>
      </trkpt>
      <trkpt lat="48.38938" lon="2.59155">
        <ele>122</ele>
        <time>2011-11-27T10:08:44Z</time>
      </trkpt>
      <trkpt lat="48.38934" lon="2.59125">
        <ele>122</ele>
        <time>2011-11-27T10:08:51Z</time>
      </trkpt>
      <trkpt lat="48.38936" lon="2.59065">
        <ele>121</ele>
        <time>2011-11-27T10:09:05Z</time>
      </trkpt>
      <trkpt lat="48.38943" lon="2.59052">
        <ele>121</ele>
        <time>2011-11-27T10:09:09Z</time>
      </trkpt>
      <trkpt lat="48.38943" lon="2.59038">
        <ele>121</ele>
        <time>2011-11-27T10:09:13Z</time>
      </trkpt>
      <trkpt lat="48.38945" lon="2.59022">
        <ele>121</ele>
        <time>2011-11-27T10:09:17Z</time>
      </trkpt>
      <trkpt lat="48.38944" lon="2.59009">
        <ele>121</ele>
        <time>2011-11-27T10:09:20Z</time>
      </trkpt>
      <trkpt lat="48.38935" lon="2.58986">
        <ele>122</ele>
        <time>2011-11-27T10:09:26Z</time>
      </trkpt>
      <trkpt lat="48.38937" lon="2.58975">
        <ele>121</ele>
        <time>2011-11-27T10:09:29Z</time>
      </trkpt>
      <trkpt lat="48.3894" lon="2.58942">
        <ele>121</ele>
        <time>2011-11-27T10:09:37Z</time>
      </trkpt>
      <trkpt lat="48.38933" lon="2.58911">
        <ele>122</ele>
        <time>2011-11-27T10:09:45Z</time>
      </trkpt>
      <trkpt lat="48.38934" lon="2.58895">
        <ele>121</ele>
        <time>2011-11-27T10:09:49Z</time>
      </trkpt>
      <trkpt lat="48.38936" lon="2.5886">
        <ele>120</ele>
        <time>2011-11-27T10:09:56Z</time>
      </trkpt>
      <trkpt lat="48.38933" lon="2.58844">
        <ele>121</ele>
        <time>2011-11-27T10:10:00Z</time>
      </trkpt>
      <trkpt lat="48.38931" lon="2.5883">
        <ele>121</ele>
        <time>2011-11-27T10:10:04Z</time>
      </trkpt>
      <trkpt lat="48.3893" lon="2.58787">
        <ele>120</ele>
        <time>2011-11-27T10:10:14Z</time>
      </trkpt>
      <trkpt lat="48.38942" lon="2.58742">
        <ele>121</ele>
        <time>2011-11-27T10:10:24Z</time>
      </trkpt>
      <trkpt lat="48.38944" lon="2.58737">
        <ele>120</ele>
        <time>2011-11-27T10:10:25Z</time>
      </trkpt>
      <trkpt lat="48.38949" lon="2.58672">
        <ele>121</ele>
        <time>2011-11-27T10:10:38Z</time>
      </trkpt>
      <trkpt lat="48.3895" lon="2.5866">
        <ele>122</ele>
        <time>2011-11-27T10:10:40Z</time>
      </trkpt>
      <trkpt lat="48.38959" lon="2.58631">
        <ele>122</ele>
        <time>2011-11-27T10:10:46Z</time>
      </trkpt>
      <trkpt lat="48.38958" lon="2.5862">
        <ele>122</ele>
        <time>2011-11-27T10:10:48Z</time>
      </trkpt>
      <trkpt lat="48.38971" lon="2.5859">
        <ele>122</ele>
        <time>2011-11-27T10:10:55Z</time>
      </trkpt>
      <trkpt lat="48.38975" lon="2.58583">
        <ele>122</ele>
        <time>2011-11-27T10:10:57Z</time>
      </trkpt>
      <trkpt lat="48.38988" lon="2.58534">
        <ele>123</ele>
        <time>2011-11-27T10:11:09Z</time>
      </trkpt>
      <trkpt lat="48.38991" lon="2.58509">
        <ele>123</ele>
        <time>2011-11-27T10:11:14Z</time>
      </trkpt>
      <trkpt lat="48.39006" lon="2.58479">
        <ele>118</ele>
        <time>2011-11-27T10:11:22Z</time>
      </trkpt>
      <trkpt lat="48.39015" lon="2.58458">
        <ele>117</ele>
        <time>2011-11-27T10:11:27Z</time>
      </trkpt>
      <trkpt lat="48.39024" lon="2.584">
        <ele>118</ele>
        <time>2011-11-27T10:11:40Z</time>
      </trkpt>
      <trkpt lat="48.39029" lon="2.58376">
        <ele>117</ele>
        <time>2011-11-27T10:11:45Z</time>
      </trkpt>
      <trkpt lat="48.39026" lon="2.58356">
        <ele>118</ele>
        <time>2011-11-27T10:11:50Z</time>
      </trkpt>
      <trkpt lat="48.39026" lon="2.58345">
        <ele>118</ele>
        <time>2011-11-27T10:11:53Z</time>
      </trkpt>
      <trkpt lat="48.39024" lon="2.58332">
        <ele>119</ele>
        <time>2011-11-27T10:11:56Z</time>
      </trkpt>
      <trkpt lat="48.39027" lon="2.58323">
        <ele>119</ele>
        <time>2011-11-27T10:11:59Z</time>
      </trkpt>
      <trkpt lat="48.39024" lon="2.58311">
        <ele>119</ele>
        <time>2011-11-27T10:12:03Z</time>
      </trkpt>
      <trkpt lat="48.39026" lon="2.58289">
        <ele>118</ele>
        <time>2011-11-27T10:12:08Z</time>
      </trkpt>
      <trkpt lat="48.39022" lon="2.58266">
        <ele>119</ele>
        <time>2011-11-27T10:12:14Z</time>
      </trkpt>
      <trkpt lat="48.39004" lon="2.58244">
        <ele>122</ele>
        <time>2011-11-27T10:12:24Z</time>
      </trkpt>
      <trkpt lat="48.38997" lon="2.58231">
        <ele>124</ele>
        <time>2011-11-27T10:12:27Z</time>
      </trkpt>
      <trkpt lat="48.39002" lon="2.58199">
        <ele>120</ele>
        <time>2011-11-27T10:12:34Z</time>
      </trkpt>
      <trkpt lat="48.39009" lon="2.58175">
        <ele>121</ele>
        <time>2011-11-27T10:12:39Z</time>
      </trkpt>
      <trkpt lat="48.39013" lon="2.58164">
        <ele>122</ele>
        <time>2011-11-27T10:12:42Z</time>
      </trkpt>
      <trkpt lat="48.39022" lon="2.58143">
        <ele>120</ele>
        <time>2011-11-27T10:12:48Z</time>
      </trkpt>
      <trkpt lat="48.39027" lon="2.58137">
        <ele>119</ele>
        <time>2011-11-27T10:12:51Z</time>
      </trkpt>
      <trkpt lat="48.39037" lon="2.58123">
        <ele>119</ele>
        <time>2011-11-27T10:12:58Z</time>
      </trkpt>
      <trkpt lat="48.39038" lon="2.5812">
        <ele>119</ele>
        <time>2011-11-27T10:12:59Z</time>
      </trkpt>
      <trkpt lat="48.39041" lon="2.58115">
        <ele>119</ele>
        <time>2011-11-27T10:13:01Z</time>
      </trkpt>
      <trkpt lat="48.39042" lon="2.581">
        <ele>119</ele>
        <time>2011-11-27T10:13:06Z</time>
      </trkpt>
      <trkpt lat="48.39043" lon="2.58093">
        <ele>119</ele>
        <time>2011-11-27T10:13:08Z</time>
      </trkpt>
      <trkpt lat="48.39046" lon="2.58059">
        <ele>118</ele>
        <time>2011-11-27T10:13:17Z</time>
      </trkpt>
      <trkpt lat="48.3905" lon="2.5805">
        <ele>118</ele>
        <time>2011-11-27T10:13:20Z</time>
      </trkpt>
      <trkpt lat="48.39045" lon="2.58039">
        <ele>118</ele>
        <time>2011-11-27T10:13:24Z</time>
      </trkpt>
      <trkpt lat="48.39043" lon="2.58023">
        <ele>118</ele>
        <time>2011-11-27T10:13:28Z</time>
      </trkpt>
      <trkpt lat="48.39038" lon="2.57976">
        <ele>119</ele>
        <time>2011-11-27T10:13:38Z</time>
      </trkpt>
      <trkpt lat="48.39048" lon="2.5794">
        <ele>118</ele>
        <time>2011-11-27T10:13:47Z</time>
      </trkpt>
      <trkpt lat="48.3905" lon="2.57932">
        <ele>118</ele>
        <time>2011-11-27T10:13:49Z</time>
      </trkpt>
      <trkpt lat="48.39047" lon="2.57918">
        <ele>118</ele>
        <time>2011-11-27T10:13:53Z</time>
      </trkpt>
      <trkpt lat="48.39047" lon="2.57905">
        <ele>119</ele>
        <time>2011-11-27T10:13:56Z</time>
      </trkpt>
      <trkpt lat="48.39037" lon="2.57889">
        <ele>119</ele>
        <time>2011-11-27T10:14:00Z</time>
      </trkpt>
      <trkpt lat="48.39008" lon="2.57839">
        <ele>122</ele>
        <time>2011-11-27T10:14:12Z</time>
      </trkpt>
      <trkpt lat="48.39004" lon="2.57824">
        <ele>122</ele>
        <time>2011-11-27T10:14:16Z</time>
      </trkpt>
      <trkpt lat="48.39009" lon="2.57785">
        <ele>121</ele>
        <time>2011-11-27T10:14:27Z</time>
      </trkpt>
      <trkpt lat="48.39006" lon="2.57766">
        <ele>122</ele>
        <time>2011-11-27T10:14:35Z</time>
      </trkpt>
      <trkpt lat="48.39016" lon="2.57732">
        <ele>122</ele>
        <time>2011-11-27T10:14:43Z</time>
      </trkpt>
      <trkpt lat="48.39017" lon="2.57711">
        <ele>121</ele>
        <time>2011-11-27T10:14:48Z</time>
      </trkpt>
      <trkpt lat="48.39019" lon="2.57704">
        <ele>121</ele>
        <time>2011-11-27T10:14:50Z</time>
      </trkpt>
      <trkpt lat="48.39026" lon="2.57692">
        <ele>121</ele>
        <time>2011-11-27T10:14:53Z</time>
      </trkpt>
      <trkpt lat="48.3903" lon="2.57657">
        <ele>121</ele>
        <time>2011-11-27T10:15:00Z</time>
      </trkpt>
      <trkpt lat="48.39037" lon="2.57644">
        <ele>121</ele>
        <time>2011-11-27T10:15:04Z</time>
      </trkpt>
      <trkpt lat="48.39036" lon="2.57589">
        <ele>121</ele>
        <time>2011-11-27T10:15:16Z</time>
      </trkpt>
      <trkpt lat="48.3904" lon="2.57569">
        <ele>120</ele>
        <time>2011-11-27T10:15:20Z</time>
      </trkpt>
      <trkpt lat="48.39036" lon="2.57543">
        <ele>119</ele>
        <time>2011-11-27T10:15:27Z</time>
      </trkpt>
      <trkpt lat="48.39039" lon="2.57541">
        <ele>119</ele>
        <time>2011-11-27T10:15:29Z</time>
      </trkpt>
      <trkpt lat="48.39047" lon="2.57514">
        <ele>119</ele>
        <time>2011-11-27T10:15:36Z</time>
      </trkpt>
      <trkpt lat="48.39044" lon="2.575">
        <ele>119</ele>
        <time>2011-11-27T10:15:39Z</time>
      </trkpt>
      <trkpt lat="48.39027" lon="2.57475">
        <ele>118</ele>
        <time>2011-11-27T10:15:48Z</time>
      </trkpt>
      <trkpt lat="48.3903" lon="2.57453">
        <ele>118</ele>
        <time>2011-11-27T10:15:54Z</time>
      </trkpt>
      <trkpt lat="48.39026" lon="2.5744">
        <ele>118</ele>
        <time>2011-11-27T10:15:58Z</time>
      </trkpt>
      <trkpt lat="48.39026" lon="2.57426">
        <ele>118</ele>
        <time>2011-11-27T10:16:04Z</time>
      </trkpt>
      <trkpt lat="48.39025" lon="2.57403">
        <ele>118</ele>
        <time>2011-11-27T10:16:11Z</time>
      </trkpt>
      <trkpt lat="48.39026" lon="2.57385">
        <ele>118</ele>
        <time>2011-11-27T10:16:16Z</time>
      </trkpt>
      <trkpt lat="48.3903" lon="2.57385">
        <ele>118</ele>
        <time>2011-11-27T10:16:26Z</time>
      </trkpt>
      <trkpt lat="48.3903" lon="2.57381">
        <ele>118</ele>
        <time>2011-11-27T10:16:37Z</time>
      </trkpt>
      <trkpt lat="48.39031" lon="2.5738">
        <ele>118</ele>
        <time>2011-11-27T10:16:39Z</time>
      </trkpt>
      <trkpt lat="48.39034" lon="2.57377">
        <ele>118</ele>
        <time>2011-11-27T10:16:44Z</time>
      </trkpt>
      <trkpt lat="48.39035" lon="2.5737">
        <ele>118</ele>
        <time>2011-11-27T10:16:47Z</time>
      </trkpt>
      <trkpt lat="48.39046" lon="2.57345">
        <ele>118</ele>
        <time>2011-11-27T10:16:55Z</time>
      </trkpt>
      <trkpt lat="48.39061" lon="2.57304">
        <ele>117</ele>
        <time>2011-11-27T10:17:04Z</time>
      </trkpt>
      <trkpt lat="48.39063" lon="2.57302">
        <ele>117</ele>
        <time>2011-11-27T10:17:05Z</time>
      </trkpt>
      <trkpt lat="48.39069" lon="2.57301">
        <ele>117</ele>
        <time>2011-11-27T10:17:07Z</time>
      </trkpt>
      <trkpt lat="48.39075" lon="2.5729">
        <ele>117</ele>
        <time>2011-11-27T10:17:12Z</time>
      </trkpt>
      <trkpt lat="48.39076" lon="2.57275">
        <ele>117</ele>
        <time>2011-11-27T10:17:16Z</time>
      </trkpt>
      <trkpt lat="48.39074" lon="2.57256">
        <ele>117</ele>
        <time>2011-11-27T10:17:20Z</time>
      </trkpt>
      <trkpt lat="48.39089" lon="2.57205">
        <ele>117</ele>
        <time>2011-11-27T10:17:31Z</time>
      </trkpt>
      <trkpt lat="48.39092" lon="2.57197">
        <ele>117</ele>
        <time>2011-11-27T10:17:33Z</time>
      </trkpt>
      <trkpt lat="48.39102" lon="2.57186">
        <ele>117</ele>
        <time>2011-11-27T10:17:38Z</time>
      </trkpt>
      <trkpt lat="48.39113" lon="2.57165">
        <ele>118</ele>
        <time>2011-11-27T10:17:44Z</time>
      </trkpt>
      <trkpt lat="48.39117" lon="2.57161">
        <ele>118</ele>
        <time>2011-11-27T10:17:46Z</time>
      </trkpt>
      <trkpt lat="48.39124" lon="2.57145">
        <ele>118</ele>
        <time>2011-11-27T10:17:52Z</time>
      </trkpt>
      <trkpt lat="48.39127" lon="2.57119">
        <ele>118</ele>
        <time>2011-11-27T10:17:57Z</time>
      </trkpt>
      <trkpt lat="48.39135" lon="2.57097">
        <ele>118</ele>
        <time>2011-11-27T10:18:01Z</time>
      </trkpt>
      <trkpt lat="48.3914" lon="2.57047">
        <ele>117</ele>
        <time>2011-11-27T10:18:10Z</time>
      </trkpt>
      <trkpt lat="48.39143" lon="2.57032">
        <ele>117</ele>
        <time>2011-11-27T10:18:13Z</time>
      </trkpt>
      <trkpt lat="48.39149" lon="2.57011">
        <ele>118</ele>
        <time>2011-11-27T10:18:17Z</time>
      </trkpt>
      <trkpt lat="48.39153" lon="2.56994">
        <ele>117</ele>
        <time>2011-11-27T10:18:20Z</time>
      </trkpt>
      <trkpt lat="48.39158" lon="2.56988">
        <ele>117</ele>
        <time>2011-11-27T10:18:22Z</time>
      </trkpt>
      <trkpt lat="48.39163" lon="2.56974">
        <ele>116</ele>
        <time>2011-11-27T10:18:25Z</time>
      </trkpt>
      <trkpt lat="48.39168" lon="2.56955">
        <ele>114</ele>
        <time>2011-11-27T10:18:29Z</time>
      </trkpt>
      <trkpt lat="48.39158" lon="2.5693">
        <ele>116</ele>
        <time>2011-11-27T10:18:34Z</time>
      </trkpt>
      <trkpt lat="48.39159" lon="2.56899">
        <ele>115</ele>
        <time>2011-11-27T10:18:42Z</time>
      </trkpt>
      <trkpt lat="48.39169" lon="2.56885">
        <ele>114</ele>
        <time>2011-11-27T10:18:47Z</time>
      </trkpt>
      <trkpt lat="48.39177" lon="2.56848">
        <ele>115</ele>
        <time>2011-11-27T10:18:57Z</time>
      </trkpt>
      <trkpt lat="48.39177" lon="2.56823">
        <ele>116</ele>
        <time>2011-11-27T10:19:02Z</time>
      </trkpt>
      <trkpt lat="48.39176" lon="2.56777">
        <ele>115</ele>
        <time>2011-11-27T10:19:11Z</time>
      </trkpt>
      <trkpt lat="48.39182" lon="2.56745">
        <ele>115</ele>
        <time>2011-11-27T10:19:18Z</time>
      </trkpt>
      <trkpt lat="48.39187" lon="2.56733">
        <ele>114</ele>
        <time>2011-11-27T10:19:22Z</time>
      </trkpt>
      <trkpt lat="48.39196" lon="2.56721">
        <ele>113</ele>
        <time>2011-11-27T10:19:26Z</time>
      </trkpt>
      <trkpt lat="48.392" lon="2.56675">
        <ele>112</ele>
        <time>2011-11-27T10:19:36Z</time>
      </trkpt>
      <trkpt lat="48.39203" lon="2.56665">
        <ele>111</ele>
        <time>2011-11-27T10:19:48Z</time>
      </trkpt>
      <trkpt lat="48.39204" lon="2.56657">
        <ele>111</ele>
        <time>2011-11-27T10:19:58Z</time>
      </trkpt>
      <trkpt lat="48.39211" lon="2.56628">
        <ele>111</ele>
        <time>2011-11-27T10:20:06Z</time>
      </trkpt>
      <trkpt lat="48.39209" lon="2.56594">
        <ele>111</ele>
        <time>2011-11-27T10:20:16Z</time>
      </trkpt>
      <trkpt lat="48.39208" lon="2.5659">
        <ele>111</ele>
        <time>2011-11-27T10:20:30Z</time>
      </trkpt>
      <trkpt lat="48.39208" lon="2.5659">
        <ele>111</ele>
        <time>2011-11-27T10:20:48Z</time>
      </trkpt>
      <trkpt lat="48.39201" lon="2.5658">
        <ele>110</ele>
        <time>2011-11-27T10:20:53Z</time>
      </trkpt>
      <trkpt lat="48.39193" lon="2.56556">
        <ele>110</ele>
        <time>2011-11-27T10:21:02Z</time>
      </trkpt>
      <trkpt lat="48.39193" lon="2.56532">
        <ele>110</ele>
        <time>2011-11-27T10:21:09Z</time>
      </trkpt>
      <trkpt lat="48.39197" lon="2.56529">
        <ele>110</ele>
        <time>2011-11-27T10:21:11Z</time>
      </trkpt>
      <trkpt lat="48.39205" lon="2.5652">
        <ele>110</ele>
        <time>2011-11-27T10:21:15Z</time>
      </trkpt>
      <trkpt lat="48.39206" lon="2.56499">
        <ele>109</ele>
        <time>2011-11-27T10:21:21Z</time>
      </trkpt>
      <trkpt lat="48.39214" lon="2.56486">
        <ele>110</ele>
        <time>2011-11-27T10:21:27Z</time>
      </trkpt>
      <trkpt lat="48.39235" lon="2.56472">
        <ele>111</ele>
        <time>2011-11-27T10:21:37Z</time>
      </trkpt>
      <trkpt lat="48.39238" lon="2.56456">
        <ele>110</ele>
        <time>2011-11-27T10:21:41Z</time>
      </trkpt>
      <trkpt lat="48.39243" lon="2.56428">
        <ele>111</ele>
        <time>2011-11-27T10:21:48Z</time>
      </trkpt>
      <trkpt lat="48.39245" lon="2.564">
        <ele>110</ele>
        <time>2011-11-27T10:21:56Z</time>
      </trkpt>
      <trkpt lat="48.39245" lon="2.56391">
        <ele>109</ele>
        <time>2011-11-27T10:22:00Z</time>
      </trkpt>
      <trkpt lat="48.39254" lon="2.56364">
        <ele>105</ele>
        <time>2011-11-27T10:22:10Z</time>
      </trkpt>
      <trkpt lat="48.39254" lon="2.56359">
        <ele>106</ele>
        <time>2011-11-27T10:22:24Z</time>
      </trkpt>
      <trkpt lat="48.39254" lon="2.56352">
        <ele>106</ele>
        <time>2011-11-27T10:22:34Z</time>
      </trkpt>
      <trkpt lat="48.39254" lon="2.56351">
        <ele>107</ele>
        <time>2011-11-27T10:22:35Z</time>
      </trkpt>
      <trkpt lat="48.39254" lon="2.56328">
        <ele>109</ele>
        <time>2011-11-27T10:22:46Z</time>
      </trkpt>
      <trkpt lat="48.39247" lon="2.56296">
        <ele>105</ele>
        <time>2011-11-27T10:22:54Z</time>
      </trkpt>
      <trkpt lat="48.39249" lon="2.56287">
        <ele>105</ele>
        <time>2011-11-27T10:23:08Z</time>
      </trkpt>
      <trkpt lat="48.39246" lon="2.56284">
        <ele>104</ele>
        <time>2011-11-27T10:23:23Z</time>
      </trkpt>
      <trkpt lat="48.39248" lon="2.56278">
        <ele>104</ele>
        <time>2011-11-27T10:23:35Z</time>
      </trkpt>
      <trkpt lat="48.39247" lon="2.56274">
        <ele>104</ele>
        <time>2011-11-27T10:23:56Z</time>
      </trkpt>
      <trkpt lat="48.39248" lon="2.56268">
        <ele>105</ele>
        <time>2011-11-27T10:24:09Z</time>
      </trkpt>
      <trkpt lat="48.39249" lon="2.56261">
        <ele>105</ele>
        <time>2011-11-27T10:24:22Z</time>
      </trkpt>
      <trkpt lat="48.39249" lon="2.56255">
        <ele>106</ele>
        <time>2011-11-27T10:24:41Z</time>
      </trkpt>
      <trkpt lat="48.39247" lon="2.56239">
        <ele>103</ele>
        <time>2011-11-27T10:24:50Z</time>
      </trkpt>
      <trkpt lat="48.39245" lon="2.56217">
        <ele>100</ele>
        <time>2011-11-27T10:24:57Z</time>
      </trkpt>
      <trkpt lat="48.39247" lon="2.56213">
        <ele>100</ele>
        <time>2011-11-27T10:25:00Z</time>
      </trkpt>
      <trkpt lat="48.39248" lon="2.56202">
        <ele>99</ele>
        <time>2011-11-27T10:25:04Z</time>
      </trkpt>
      <trkpt lat="48.39251" lon="2.56191">
        <ele>100</ele>
        <time>2011-11-27T10:25:06Z</time>
      </trkpt>
      <trkpt lat="48.39262" lon="2.56184">
        <ele>99</ele>
        <time>2011-11-27T10:25:10Z</time>
      </trkpt>
      <trkpt lat="48.39278" lon="2.56171">
        <ele>99</ele>
        <time>2011-11-27T10:25:18Z</time>
      </trkpt>
      <trkpt lat="48.39284" lon="2.56167">
        <ele>99</ele>
        <time>2011-11-27T10:25:20Z</time>
      </trkpt>
      <trkpt lat="48.39288" lon="2.56157">
        <ele>99</ele>
        <time>2011-11-27T10:25:24Z</time>
      </trkpt>
      <trkpt lat="48.39293" lon="2.56111">
        <ele>99</ele>
        <time>2011-11-27T10:25:34Z</time>
      </trkpt>
      <trkpt lat="48.39294" lon="2.56081">
        <ele>101</ele>
        <time>2011-11-27T10:25:42Z</time>
      </trkpt>
      <trkpt lat="48.39296" lon="2.56075">
        <ele>101</ele>
        <time>2011-11-27T10:25:44Z</time>
      </trkpt>
      <trkpt lat="48.39298" lon="2.56068">
        <ele>101</ele>
        <time>2011-11-27T10:25:47Z</time>
      </trkpt>
      <trkpt lat="48.39304" lon="2.56054">
        <ele>101</ele>
        <time>2011-11-27T10:25:52Z</time>
      </trkpt>
      <trkpt lat="48.39307" lon="2.56043">
        <ele>101</ele>
        <time>2011-11-27T10:25:56Z</time>
      </trkpt>
      <trkpt lat="48.39307" lon="2.55999">
        <ele>101</ele>
        <time>2011-11-27T10:26:08Z</time>
      </trkpt>
      <trkpt lat="48.39297" lon="2.55991">
        <ele>100</ele>
        <time>2011-11-27T10:26:12Z</time>
      </trkpt>
      <trkpt lat="48.39285" lon="2.55982">
        <ele>100</ele>
        <time>2011-11-27T10:26:17Z</time>
      </trkpt>
      <trkpt lat="48.3928" lon="2.55953">
        <ele>99</ele>
        <time>2011-11-27T10:26:24Z</time>
      </trkpt>
      <trkpt lat="48.39287" lon="2.55938">
        <ele>99</ele>
        <time>2011-11-27T10:26:28Z</time>
      </trkpt>
      <trkpt lat="48.39288" lon="2.55915">
        <ele>97</ele>
        <time>2011-11-27T10:26:32Z</time>
      </trkpt>
      <trkpt lat="48.39289" lon="2.55907">
        <ele>97</ele>
        <time>2011-11-27T10:26:34Z</time>
      </trkpt>
      <trkpt lat="48.3929" lon="2.55899">
        <ele>97</ele>
        <time>2011-11-27T10:26:38Z</time>
      </trkpt>
      <trkpt lat="48.39287" lon="2.55879">
        <ele>97</ele>
        <time>2011-11-27T10:26:44Z</time>
      </trkpt>
      <trkpt lat="48.3929" lon="2.55869">
        <ele>97</ele>
        <time>2011-11-27T10:26:46Z</time>
      </trkpt>
      <trkpt lat="48.39296" lon="2.55842">
        <ele>97</ele>
        <time>2011-11-27T10:26:54Z</time>
      </trkpt>
      <trkpt lat="48.393" lon="2.55833">
        <ele>96</ele>
        <time>2011-11-27T10:27:06Z</time>
      </trkpt>
      <trkpt lat="48.39324" lon="2.55804">
        <ele>97</ele>
        <time>2011-11-27T10:27:15Z</time>
      </trkpt>
      <trkpt lat="48.39324" lon="2.55775">
        <ele>97</ele>
        <time>2011-11-27T10:27:23Z</time>
      </trkpt>
      <trkpt lat="48.39323" lon="2.55772">
        <ele>97</ele>
        <time>2011-11-27T10:27:24Z</time>
      </trkpt>
      <trkpt lat="48.39317" lon="2.55765">
        <ele>96</ele>
        <time>2011-11-27T10:27:29Z</time>
      </trkpt>
      <trkpt lat="48.3932" lon="2.55743">
        <ele>95</ele>
        <time>2011-11-27T10:27:35Z</time>
      </trkpt>
      <trkpt lat="48.39335" lon="2.55705">
        <ele>94</ele>
        <time>2011-11-27T10:27:46Z</time>
      </trkpt>
      <trkpt lat="48.39334" lon="2.55702">
        <ele>93</ele>
        <time>2011-11-27T10:27:50Z</time>
      </trkpt>
      <trkpt lat="48.3932" lon="2.55686">
        <ele>91</ele>
        <time>2011-11-27T10:27:58Z</time>
      </trkpt>
      <trkpt lat="48.39302" lon="2.55654">
        <ele>85</ele>
        <time>2011-11-27T10:28:07Z</time>
      </trkpt>
      <trkpt lat="48.39289" lon="2.55637">
        <ele>83</ele>
        <time>2011-11-27T10:28:13Z</time>
      </trkpt>
      <trkpt lat="48.3928" lon="2.55621">
        <ele>82</ele>
        <time>2011-11-27T10:28:19Z</time>
      </trkpt>
      <trkpt lat="48.39275" lon="2.55615">
        <ele>82</ele>
        <time>2011-11-27T10:28:21Z</time>
      </trkpt>
      <trkpt lat="48.39262" lon="2.55607">
        <ele>81</ele>
        <time>2011-11-27T10:28:26Z</time>
      </trkpt>
      <trkpt lat="48.39242" lon="2.5559">
        <ele>77</ele>
        <time>2011-11-27T10:28:36Z</time>
      </trkpt>
      <trkpt lat="48.39242" lon="2.55591">
        <ele>77</ele>
        <time>2011-11-27T10:29:00Z</time>
      </trkpt>
      <trkpt lat="48.39235" lon="2.55603">
        <ele>77</ele>
        <time>2011-11-27T10:29:06Z</time>
      </trkpt>
      <trkpt lat="48.39233" lon="2.55617">
        <ele>78</ele>
        <time>2011-11-27T10:29:10Z</time>
      </trkpt>
      <trkpt lat="48.39215" lon="2.55696">
        <ele>79</ele>
        <time>2011-11-27T10:29:29Z</time>
      </trkpt>
      <trkpt lat="48.39202" lon="2.55747">
        <ele>79</ele>
        <time>2011-11-27T10:29:40Z</time>
      </trkpt>
      <trkpt lat="48.3918" lon="2.55825">
        <ele>81</ele>
        <time>2011-11-27T10:29:56Z</time>
      </trkpt>
      <trkpt lat="48.39161" lon="2.55903">
        <ele>81</ele>
        <time>2011-11-27T10:30:11Z</time>
      </trkpt>
      <trkpt lat="48.39153" lon="2.56047">
        <ele>84</ele>
        <time>2011-11-27T10:30:37Z</time>
      </trkpt>
      <trkpt lat="48.39148" lon="2.56113">
        <ele>86</ele>
        <time>2011-11-27T10:30:51Z</time>
      </trkpt>
      <trkpt lat="48.39147" lon="2.56152">
        <ele>87</ele>
        <time>2011-11-27T10:31:04Z</time>
      </trkpt>
      <trkpt lat="48.39147" lon="2.5615">
        <ele>87</ele>
        <time>2011-11-27T10:31:13Z</time>
      </trkpt>
      <trkpt lat="48.3915" lon="2.56145">
        <ele>87</ele>
        <time>2011-11-27T10:31:17Z</time>
      </trkpt>
      <trkpt lat="48.39156" lon="2.56148">
        <ele>87</ele>
        <time>2011-11-27T10:31:21Z</time>
      </trkpt>
      <trkpt lat="48.39159" lon="2.56151">
        <ele>87</ele>
        <time>2011-11-27T10:31:24Z</time>
      </trkpt>
      <trkpt lat="48.39161" lon="2.56154">
        <ele>87</ele>
        <time>2011-11-27T10:31:26Z</time>
      </trkpt>
      <trkpt lat="48.39164" lon="2.56157">
        <ele>87</ele>
        <time>2011-11-27T10:31:29Z</time>
      </trkpt>
      <trkpt lat="48.39166" lon="2.56161">
        <ele>88</ele>
        <time>2011-11-27T10:31:31Z</time>
      </trkpt>
      <trkpt lat="48.39171" lon="2.56158">
        <ele>90</ele>
        <time>2011-11-27T10:31:44Z</time>
      </trkpt>
      <trkpt lat="48.39173" lon="2.56157">
        <ele>90</ele>
        <time>2011-11-27T10:31:48Z</time>
      </trkpt>
      <trkpt lat="48.39182" lon="2.56151">
        <ele>91</ele>
        <time>2011-11-27T10:32:02Z</time>
      </trkpt>
      <trkpt lat="48.39191" lon="2.56151">
        <ele>92</ele>
        <time>2011-11-27T10:32:16Z</time>
      </trkpt>
      <trkpt lat="48.3919" lon="2.56151">
        <ele>92</ele>
        <time>2011-11-27T10:32:18Z</time>
      </trkpt>
      <trkpt lat="48.39195" lon="2.56149">
        <ele>93</ele>
        <time>2011-11-27T10:32:27Z</time>
      </trkpt>
      <trkpt lat="48.39197" lon="2.56149">
        <ele>93</ele>
        <time>2011-11-27T10:32:31Z</time>
      </trkpt>
      <trkpt lat="48.39208" lon="2.56148">
        <ele>94</ele>
        <time>2011-11-27T10:32:46Z</time>
      </trkpt>
      <trkpt lat="48.39213" lon="2.56164">
        <ele>94</ele>
        <time>2011-11-27T10:33:01Z</time>
      </trkpt>
      <trkpt lat="48.3921" lon="2.56168">
        <ele>96</ele>
        <time>2011-11-27T10:33:05Z</time>
      </trkpt>
      <trkpt lat="48.39218" lon="2.5618">
        <ele>97</ele>
        <time>2011-11-27T10:33:16Z</time>
      </trkpt>
      <trkpt lat="48.39218" lon="2.56189">
        <ele>97</ele>
        <time>2011-11-27T10:33:29Z</time>
      </trkpt>
      <trkpt lat="48.3922" lon="2.56192">
        <ele>97</ele>
        <time>2011-11-27T10:33:33Z</time>
      </trkpt>
      <trkpt lat="48.39228" lon="2.56193">
        <ele>98</ele>
        <time>2011-11-27T10:33:42Z</time>
      </trkpt>
      <trkpt lat="48.39232" lon="2.56194">
        <ele>98</ele>
        <time>2011-11-27T10:33:51Z</time>
      </trkpt>
      <trkpt lat="48.39232" lon="2.56194">
        <ele>98</ele>
        <time>2011-11-27T10:33:56Z</time>
      </trkpt>
      <trkpt lat="48.39235" lon="2.56193">
        <ele>98</ele>
        <time>2011-11-27T10:33:59Z</time>
      </trkpt>
      <trkpt lat="48.39247" lon="2.56196">
        <ele>99</ele>
        <time>2011-11-27T10:34:11Z</time>
      </trkpt>
      <trkpt lat="48.3925" lon="2.56206">
        <ele>100</ele>
        <time>2011-11-27T10:34:23Z</time>
      </trkpt>
      <trkpt lat="48.39251" lon="2.56214">
        <ele>101</ele>
        <time>2011-11-27T10:34:37Z</time>
      </trkpt>
      <trkpt lat="48.39256" lon="2.56219">
        <ele>101</ele>
        <time>2011-11-27T10:34:45Z</time>
      </trkpt>
      <trkpt lat="48.39261" lon="2.56221">
        <ele>101</ele>
        <time>2011-11-27T10:34:52Z</time>
      </trkpt>
      <trkpt lat="48.39263" lon="2.56232">
        <ele>102</ele>
        <time>2011-11-27T10:35:01Z</time>
      </trkpt>
      <trkpt lat="48.39262" lon="2.56239">
        <ele>103</ele>
        <time>2011-11-27T10:35:08Z</time>
      </trkpt>
      <trkpt lat="48.39263" lon="2.56243">
        <ele>103</ele>
        <time>2011-11-27T10:35:11Z</time>
      </trkpt>
      <trkpt lat="48.39261" lon="2.56251">
        <ele>105</ele>
        <time>2011-11-27T10:35:21Z</time>
      </trkpt>
      <trkpt lat="48.3926" lon="2.56254">
        <ele>105</ele>
        <time>2011-11-27T10:35:34Z</time>
      </trkpt>
      <trkpt lat="48.39255" lon="2.56261">
        <ele>105</ele>
        <time>2011-11-27T10:35:46Z</time>
      </trkpt>
      <trkpt lat="48.39254" lon="2.56263">
        <ele>105</ele>
        <time>2011-11-27T10:35:49Z</time>
      </trkpt>
      <trkpt lat="48.39253" lon="2.56263">
        <ele>105</ele>
        <time>2011-11-27T10:35:51Z</time>
      </trkpt>
      <trkpt lat="48.39252" lon="2.56263">
        <ele>105</ele>
        <time>2011-11-27T10:36:01Z</time>
      </trkpt>
      <trkpt lat="48.39253" lon="2.56271">
        <ele>104</ele>
        <time>2011-11-27T10:36:15Z</time>
      </trkpt>
      <trkpt lat="48.39252" lon="2.56279">
        <ele>104</ele>
        <time>2011-11-27T10:36:26Z</time>
      </trkpt>
      <trkpt lat="48.39252" lon="2.56282">
        <ele>104</ele>
        <time>2011-11-27T10:36:30Z</time>
      </trkpt>
      <trkpt lat="48.39251" lon="2.56291">
        <ele>104</ele>
        <time>2011-11-27T10:36:43Z</time>
      </trkpt>
      <trkpt lat="48.39249" lon="2.5629">
        <ele>105</ele>
        <time>2011-11-27T10:37:03Z</time>
      </trkpt>
      <trkpt lat="48.39251" lon="2.56294">
        <ele>104</ele>
        <time>2011-11-27T10:37:09Z</time>
      </trkpt>
      <trkpt lat="48.39251" lon="2.56301">
        <ele>104</ele>
        <time>2011-11-27T10:37:19Z</time>
      </trkpt>
      <trkpt lat="48.39254" lon="2.56311">
        <ele>105</ele>
        <time>2011-11-27T10:37:33Z</time>
      </trkpt>
      <trkpt lat="48.39254" lon="2.56313">
        <ele>106</ele>
        <time>2011-11-27T10:37:35Z</time>
      </trkpt>
      <trkpt lat="48.39255" lon="2.56333">
        <ele>110</ele>
        <time>2011-11-27T10:37:44Z</time>
      </trkpt>
      <trkpt lat="48.39255" lon="2.56344">
        <ele>108</ele>
        <time>2011-11-27T10:37:49Z</time>
      </trkpt>
      <trkpt lat="48.39251" lon="2.56349">
        <ele>107</ele>
        <time>2011-11-27T10:37:53Z</time>
      </trkpt>
      <trkpt lat="48.39248" lon="2.56357">
        <ele>108</ele>
        <time>2011-11-27T10:37:57Z</time>
      </trkpt>
      <trkpt lat="48.39247" lon="2.56361">
        <ele>108</ele>
        <time>2011-11-27T10:37:59Z</time>
      </trkpt>
      <trkpt lat="48.39246" lon="2.56369">
        <ele>108</ele>
        <time>2011-11-27T10:38:03Z</time>
      </trkpt>
      <trkpt lat="48.39245" lon="2.56371">
        <ele>108</ele>
        <time>2011-11-27T10:38:17Z</time>
      </trkpt>
      <trkpt lat="48.39244" lon="2.56372">
        <ele>108</ele>
        <time>2011-11-27T10:38:30Z</time>
      </trkpt>
      <trkpt lat="48.39244" lon="2.56382">
        <ele>108</ele>
        <time>2011-11-27T10:38:38Z</time>
      </trkpt>
      <trkpt lat="48.39241" lon="2.56393">
        <ele>109</ele>
        <time>2011-11-27T10:38:43Z</time>
      </trkpt>
      <trkpt lat="48.39243" lon="2.56406">
        <ele>110</ele>
        <time>2011-11-27T10:38:48Z</time>
      </trkpt>
      <trkpt lat="48.3924" lon="2.56413">
        <ele>110</ele>
        <time>2011-11-27T10:38:51Z</time>
      </trkpt>
      <trkpt lat="48.3924" lon="2.56425">
        <ele>111</ele>
        <time>2011-11-27T10:38:55Z</time>
      </trkpt>
      <trkpt lat="48.39238" lon="2.56453">
        <ele>110</ele>
        <time>2011-11-27T10:39:05Z</time>
      </trkpt>
      <trkpt lat="48.39237" lon="2.56457">
        <ele>110</ele>
        <time>2011-11-27T10:39:06Z</time>
      </trkpt>
      <trkpt lat="48.39241" lon="2.56479">
        <ele>111</ele>
        <time>2011-11-27T10:39:11Z</time>
      </trkpt>
      <trkpt lat="48.39241" lon="2.5651">
        <ele>113</ele>
        <time>2011-11-27T10:39:19Z</time>
      </trkpt>
      <trkpt lat="48.39241" lon="2.56514">
        <ele>113</ele>
        <time>2011-11-27T10:39:21Z</time>
      </trkpt>
      <trkpt lat="48.39228" lon="2.56549">
        <ele>111</ele>
        <time>2011-11-27T10:39:30Z</time>
      </trkpt>
      <trkpt lat="48.39226" lon="2.56554">
        <ele>111</ele>
        <time>2011-11-27T10:39:31Z</time>
      </trkpt>
      <trkpt lat="48.39225" lon="2.56577">
        <ele>111</ele>
        <time>2011-11-27T10:39:36Z</time>
      </trkpt>
      <trkpt lat="48.39211" lon="2.56596">
        <ele>111</ele>
        <time>2011-11-27T10:39:42Z</time>
      </trkpt>
      <trkpt lat="48.39211" lon="2.56633">
        <ele>111</ele>
        <time>2011-11-27T10:39:52Z</time>
      </trkpt>
      <trkpt lat="48.392" lon="2.56669">
        <ele>112</ele>
        <time>2011-11-27T10:40:03Z</time>
      </trkpt>
      <trkpt lat="48.39198" lon="2.56675">
        <ele>112</ele>
        <time>2011-11-27T10:40:09Z</time>
      </trkpt>
      <trkpt lat="48.39197" lon="2.56695">
        <ele>113</ele>
        <time>2011-11-27T10:40:14Z</time>
      </trkpt>
      <trkpt lat="48.39183" lon="2.56731">
        <ele>114</ele>
        <time>2011-11-27T10:40:24Z</time>
      </trkpt>
      <trkpt lat="48.39175" lon="2.56754">
        <ele>117</ele>
        <time>2011-11-27T10:40:30Z</time>
      </trkpt>
      <trkpt lat="48.39174" lon="2.56786">
        <ele>115</ele>
        <time>2011-11-27T10:40:35Z</time>
      </trkpt>
      <trkpt lat="48.39175" lon="2.56802">
        <ele>115</ele>
        <time>2011-11-27T10:40:38Z</time>
      </trkpt>
      <trkpt lat="48.39175" lon="2.56855">
        <ele>115</ele>
        <time>2011-11-27T10:40:48Z</time>
      </trkpt>
      <trkpt lat="48.39173" lon="2.56871">
        <ele>114</ele>
        <time>2011-11-27T10:40:52Z</time>
      </trkpt>
      <trkpt lat="48.39168" lon="2.56884">
        <ele>114</ele>
        <time>2011-11-27T10:40:56Z</time>
      </trkpt>
      <trkpt lat="48.39159" lon="2.56897">
        <ele>114</ele>
        <time>2011-11-27T10:41:00Z</time>
      </trkpt>
      <trkpt lat="48.39155" lon="2.56917">
        <ele>116</ele>
        <time>2011-11-27T10:41:10Z</time>
      </trkpt>
      <trkpt lat="48.39167" lon="2.56958">
        <ele>114</ele>
        <time>2011-11-27T10:41:18Z</time>
      </trkpt>
      <trkpt lat="48.39154" lon="2.57004">
        <ele>118</ele>
        <time>2011-11-27T10:41:27Z</time>
      </trkpt>
      <trkpt lat="48.39143" lon="2.57025">
        <ele>117</ele>
        <time>2011-11-27T10:41:32Z</time>
      </trkpt>
      <trkpt lat="48.3914" lon="2.57045">
        <ele>117</ele>
        <time>2011-11-27T10:41:36Z</time>
      </trkpt>
      <trkpt lat="48.39135" lon="2.57063">
        <ele>117</ele>
        <time>2011-11-27T10:41:40Z</time>
      </trkpt>
      <trkpt lat="48.39131" lon="2.57105">
        <ele>118</ele>
        <time>2011-11-27T10:41:47Z</time>
      </trkpt>
      <trkpt lat="48.39127" lon="2.57117">
        <ele>118</ele>
        <time>2011-11-27T10:41:49Z</time>
      </trkpt>
      <trkpt lat="48.3912" lon="2.57151">
        <ele>118</ele>
        <time>2011-11-27T10:41:55Z</time>
      </trkpt>
      <trkpt lat="48.39116" lon="2.57162">
        <ele>118</ele>
        <time>2011-11-27T10:41:59Z</time>
      </trkpt>
      <trkpt lat="48.39113" lon="2.57165">
        <ele>118</ele>
        <time>2011-11-27T10:42:05Z</time>
      </trkpt>
      <trkpt lat="48.39109" lon="2.57167">
        <ele>117</ele>
        <time>2011-11-27T10:42:08Z</time>
      </trkpt>
      <trkpt lat="48.39106" lon="2.57174">
        <ele>117</ele>
        <time>2011-11-27T10:42:11Z</time>
      </trkpt>
      <trkpt lat="48.39097" lon="2.57192">
        <ele>117</ele>
        <time>2011-11-27T10:42:17Z</time>
      </trkpt>
      <trkpt lat="48.39093" lon="2.57195">
        <ele>117</ele>
        <time>2011-11-27T10:42:19Z</time>
      </trkpt>
      <trkpt lat="48.39084" lon="2.57215">
        <ele>118</ele>
        <time>2011-11-27T10:42:25Z</time>
      </trkpt>
      <trkpt lat="48.39073" lon="2.5725">
        <ele>116</ele>
        <time>2011-11-27T10:42:34Z</time>
      </trkpt>
      <trkpt lat="48.39073" lon="2.57274">
        <ele>117</ele>
        <time>2011-11-27T10:42:39Z</time>
      </trkpt>
      <trkpt lat="48.39076" lon="2.57281">
        <ele>117</ele>
        <time>2011-11-27T10:42:41Z</time>
      </trkpt>
      <trkpt lat="48.3907" lon="2.57303">
        <ele>117</ele>
        <time>2011-11-27T10:42:48Z</time>
      </trkpt>
      <trkpt lat="48.39062" lon="2.57304">
        <ele>117</ele>
        <time>2011-11-27T10:42:51Z</time>
      </trkpt>
      <trkpt lat="48.39047" lon="2.57337">
        <ele>118</ele>
        <time>2011-11-27T10:43:00Z</time>
      </trkpt>
      <trkpt lat="48.39047" lon="2.57345">
        <ele>118</ele>
        <time>2011-11-27T10:43:02Z</time>
      </trkpt>
      <trkpt lat="48.39032" lon="2.57373">
        <ele>118</ele>
        <time>2011-11-27T10:43:10Z</time>
      </trkpt>
      <trkpt lat="48.39024" lon="2.57389">
        <ele>118</ele>
        <time>2011-11-27T10:43:21Z</time>
      </trkpt>
      <trkpt lat="48.39024" lon="2.57399">
        <ele>117</ele>
        <time>2011-11-27T10:43:30Z</time>
      </trkpt>
      <trkpt lat="48.39022" lon="2.57406">
        <ele>117</ele>
        <time>2011-11-27T10:43:34Z</time>
      </trkpt>
      <trkpt lat="48.39024" lon="2.57441">
        <ele>118</ele>
        <time>2011-11-27T10:43:44Z</time>
      </trkpt>
      <trkpt lat="48.39027" lon="2.5746">
        <ele>118</ele>
        <time>2011-11-27T10:43:50Z</time>
      </trkpt>
      <trkpt lat="48.39025" lon="2.57475">
        <ele>118</ele>
        <time>2011-11-27T10:43:54Z</time>
      </trkpt>
      <trkpt lat="48.39042" lon="2.57502">
        <ele>119</ele>
        <time>2011-11-27T10:44:03Z</time>
      </trkpt>
      <trkpt lat="48.39041" lon="2.5754">
        <ele>119</ele>
        <time>2011-11-27T10:44:13Z</time>
      </trkpt>
      <trkpt lat="48.3904" lon="2.57562">
        <ele>120</ele>
        <time>2011-11-27T10:44:21Z</time>
      </trkpt>
      <trkpt lat="48.39038" lon="2.57612">
        <ele>121</ele>
        <time>2011-11-27T10:44:33Z</time>
      </trkpt>
      <trkpt lat="48.39036" lon="2.57647">
        <ele>121</ele>
        <time>2011-11-27T10:44:41Z</time>
      </trkpt>
      <trkpt lat="48.39028" lon="2.57681">
        <ele>121</ele>
        <time>2011-11-27T10:44:49Z</time>
      </trkpt>
      <trkpt lat="48.39018" lon="2.57706">
        <ele>121</ele>
        <time>2011-11-27T10:44:55Z</time>
      </trkpt>
      <trkpt lat="48.39014" lon="2.57718">
        <ele>122</ele>
        <time>2011-11-27T10:44:58Z</time>
      </trkpt>
      <trkpt lat="48.39014" lon="2.57731">
        <ele>122</ele>
        <time>2011-11-27T10:45:01Z</time>
      </trkpt>
      <trkpt lat="48.39006" lon="2.57775">
        <ele>121</ele>
        <time>2011-11-27T10:45:13Z</time>
      </trkpt>
      <trkpt lat="48.39002" lon="2.57799">
        <ele>121</ele>
        <time>2011-11-27T10:45:19Z</time>
      </trkpt>
      <trkpt lat="48.39004" lon="2.57834">
        <ele>122</ele>
        <time>2011-11-27T10:45:28Z</time>
      </trkpt>
      <trkpt lat="48.39025" lon="2.57877">
        <ele>120</ele>
        <time>2011-11-27T10:45:39Z</time>
      </trkpt>
      <trkpt lat="48.39048" lon="2.57905">
        <ele>119</ele>
        <time>2011-11-27T10:45:48Z</time>
      </trkpt>
      <trkpt lat="48.3905" lon="2.57944">
        <ele>118</ele>
        <time>2011-11-27T10:45:57Z</time>
      </trkpt>
      <trkpt lat="48.39048" lon="2.57949">
        <ele>118</ele>
        <time>2011-11-27T10:45:58Z</time>
      </trkpt>
      <trkpt lat="48.39042" lon="2.57967">
        <ele>118</ele>
        <time>2011-11-27T10:46:03Z</time>
      </trkpt>
      <trkpt lat="48.3904" lon="2.57987">
        <ele>118</ele>
        <time>2011-11-27T10:46:08Z</time>
      </trkpt>
      <trkpt lat="48.3904" lon="2.57996">
        <ele>118</ele>
        <time>2011-11-27T10:46:11Z</time>
      </trkpt>
      <trkpt lat="48.39044" lon="2.58011">
        <ele>118</ele>
        <time>2011-11-27T10:46:16Z</time>
      </trkpt>
      <trkpt lat="48.39045" lon="2.58029">
        <ele>118</ele>
        <time>2011-11-27T10:46:20Z</time>
      </trkpt>
      <trkpt lat="48.39049" lon="2.58045">
        <ele>118</ele>
        <time>2011-11-27T10:46:24Z</time>
      </trkpt>
      <trkpt lat="48.39044" lon="2.58071">
        <ele>119</ele>
        <time>2011-11-27T10:46:33Z</time>
      </trkpt>
      <trkpt lat="48.39043" lon="2.5809">
        <ele>119</ele>
        <time>2011-11-27T10:46:40Z</time>
      </trkpt>
      <trkpt lat="48.3904" lon="2.58115">
        <ele>119</ele>
        <time>2011-11-27T10:46:47Z</time>
      </trkpt>
      <trkpt lat="48.39035" lon="2.58129">
        <ele>119</ele>
        <time>2011-11-27T10:46:54Z</time>
      </trkpt>
      <trkpt lat="48.39029" lon="2.58139">
        <ele>119</ele>
        <time>2011-11-27T10:46:58Z</time>
      </trkpt>
      <trkpt lat="48.39024" lon="2.58142">
        <ele>120</ele>
        <time>2011-11-27T10:47:00Z</time>
      </trkpt>
      <trkpt lat="48.39019" lon="2.58157">
        <ele>121</ele>
        <time>2011-11-27T10:47:08Z</time>
      </trkpt>
      <trkpt lat="48.39014" lon="2.58167">
        <ele>121</ele>
        <time>2011-11-27T10:47:11Z</time>
      </trkpt>
      <trkpt lat="48.39006" lon="2.58187">
        <ele>121</ele>
        <time>2011-11-27T10:47:18Z</time>
      </trkpt>
      <trkpt lat="48.39005" lon="2.58191">
        <ele>120</ele>
        <time>2011-11-27T10:47:19Z</time>
      </trkpt>
      <trkpt lat="48.39002" lon="2.58199">
        <ele>120</ele>
        <time>2011-11-27T10:47:21Z</time>
      </trkpt>
      <trkpt lat="48.39002" lon="2.5821">
        <ele>120</ele>
        <time>2011-11-27T10:47:24Z</time>
      </trkpt>
      <trkpt lat="48.38997" lon="2.58229">
        <ele>124</ele>
        <time>2011-11-27T10:47:29Z</time>
      </trkpt>
      <trkpt lat="48.39004" lon="2.5825">
        <ele>123</ele>
        <time>2011-11-27T10:47:35Z</time>
      </trkpt>
      <trkpt lat="48.39022" lon="2.58264">
        <ele>119</ele>
        <time>2011-11-27T10:47:42Z</time>
      </trkpt>
      <trkpt lat="48.39023" lon="2.5827">
        <ele>119</ele>
        <time>2011-11-27T10:47:45Z</time>
      </trkpt>
      <trkpt lat="48.39024" lon="2.58282">
        <ele>118</ele>
        <time>2011-11-27T10:47:49Z</time>
      </trkpt>
      <trkpt lat="48.39027" lon="2.5829">
        <ele>118</ele>
        <time>2011-11-27T10:47:51Z</time>
      </trkpt>
      <trkpt lat="48.39026" lon="2.58322">
        <ele>119</ele>
        <time>2011-11-27T10:48:00Z</time>
      </trkpt>
      <trkpt lat="48.39024" lon="2.58338">
        <ele>119</ele>
        <time>2011-11-27T10:48:06Z</time>
      </trkpt>
      <trkpt lat="48.39026" lon="2.58348">
        <ele>118</ele>
        <time>2011-11-27T10:48:09Z</time>
      </trkpt>
      <trkpt lat="48.39025" lon="2.58357">
        <ele>118</ele>
        <time>2011-11-27T10:48:11Z</time>
      </trkpt>
      <trkpt lat="48.39032" lon="2.58377">
        <ele>117</ele>
        <time>2011-11-27T10:48:17Z</time>
      </trkpt>
      <trkpt lat="48.39026" lon="2.58401">
        <ele>118</ele>
        <time>2011-11-27T10:48:23Z</time>
      </trkpt>
      <trkpt lat="48.39026" lon="2.58406">
        <ele>118</ele>
        <time>2011-11-27T10:48:25Z</time>
      </trkpt>
      <trkpt lat="48.39022" lon="2.5842">
        <ele>118</ele>
        <time>2011-11-27T10:48:29Z</time>
      </trkpt>
      <trkpt lat="48.39016" lon="2.58462">
        <ele>117</ele>
        <time>2011-11-27T10:48:40Z</time>
      </trkpt>
      <trkpt lat="48.39013" lon="2.58475">
        <ele>117</ele>
        <time>2011-11-27T10:48:43Z</time>
      </trkpt>
      <trkpt lat="48.39009" lon="2.58482">
        <ele>118</ele>
        <time>2011-11-27T10:48:45Z</time>
      </trkpt>
      <trkpt lat="48.39004" lon="2.58498">
        <ele>121</ele>
        <time>2011-11-27T10:48:49Z</time>
      </trkpt>
      <trkpt lat="48.38992" lon="2.58514">
        <ele>123</ele>
        <time>2011-11-27T10:48:54Z</time>
      </trkpt>
      <trkpt lat="48.38988" lon="2.5853">
        <ele>123</ele>
        <time>2011-11-27T10:48:58Z</time>
      </trkpt>
      <trkpt lat="48.38987" lon="2.58542">
        <ele>123</ele>
        <time>2011-11-27T10:49:02Z</time>
      </trkpt>
      <trkpt lat="48.38983" lon="2.58553">
        <ele>123</ele>
        <time>2011-11-27T10:49:05Z</time>
      </trkpt>
      <trkpt lat="48.3897" lon="2.58593">
        <ele>122</ele>
        <time>2011-11-27T10:49:17Z</time>
      </trkpt>
      <trkpt lat="48.38957" lon="2.58621">
        <ele>122</ele>
        <time>2011-11-27T10:49:24Z</time>
      </trkpt>
      <trkpt lat="48.38957" lon="2.58634">
        <ele>122</ele>
        <time>2011-11-27T10:49:27Z</time>
      </trkpt>
      <trkpt lat="48.38949" lon="2.58658">
        <ele>122</ele>
        <time>2011-11-27T10:49:32Z</time>
      </trkpt>
      <trkpt lat="48.38942" lon="2.58739">
        <ele>121</ele>
        <time>2011-11-27T10:49:48Z</time>
      </trkpt>
      <trkpt lat="48.38928" lon="2.588">
        <ele>120</ele>
        <time>2011-11-27T10:50:00Z</time>
      </trkpt>
      <trkpt lat="48.3893" lon="2.58832">
        <ele>121</ele>
        <time>2011-11-27T10:50:07Z</time>
      </trkpt>
      <trkpt lat="48.38932" lon="2.58848">
        <ele>121</ele>
        <time>2011-11-27T10:50:11Z</time>
      </trkpt>
      <trkpt lat="48.38936" lon="2.58861">
        <ele>120</ele>
        <time>2011-11-27T10:50:15Z</time>
      </trkpt>
      <trkpt lat="48.38936" lon="2.58875">
        <ele>120</ele>
        <time>2011-11-27T10:50:18Z</time>
      </trkpt>
      <trkpt lat="48.38932" lon="2.58907">
        <ele>121</ele>
        <time>2011-11-27T10:50:25Z</time>
      </trkpt>
      <trkpt lat="48.38939" lon="2.5894">
        <ele>121</ele>
        <time>2011-11-27T10:50:33Z</time>
      </trkpt>
      <trkpt lat="48.38938" lon="2.58973">
        <ele>121</ele>
        <time>2011-11-27T10:50:41Z</time>
      </trkpt>
      <trkpt lat="48.38937" lon="2.58995">
        <ele>122</ele>
        <time>2011-11-27T10:50:47Z</time>
      </trkpt>
      <trkpt lat="48.38941" lon="2.59005">
        <ele>122</ele>
        <time>2011-11-27T10:50:50Z</time>
      </trkpt>
      <trkpt lat="48.38944" lon="2.59022">
        <ele>121</ele>
        <time>2011-11-27T10:50:54Z</time>
      </trkpt>
      <trkpt lat="48.38937" lon="2.5906">
        <ele>121</ele>
        <time>2011-11-27T10:51:04Z</time>
      </trkpt>
      <trkpt lat="48.38934" lon="2.59114">
        <ele>122</ele>
        <time>2011-11-27T10:51:15Z</time>
      </trkpt>
      <trkpt lat="48.38933" lon="2.59126">
        <ele>122</ele>
        <time>2011-11-27T10:51:18Z</time>
      </trkpt>
      <trkpt lat="48.38935" lon="2.59137">
        <ele>122</ele>
        <time>2011-11-27T10:51:21Z</time>
      </trkpt>
      <trkpt lat="48.3894" lon="2.59182">
        <ele>123</ele>
        <time>2011-11-27T10:51:32Z</time>
      </trkpt>
      <trkpt lat="48.38938" lon="2.59225">
        <ele>123</ele>
        <time>2011-11-27T10:51:42Z</time>
      </trkpt>
      <trkpt lat="48.38934" lon="2.59246">
        <ele>123</ele>
        <time>2011-11-27T10:51:47Z</time>
      </trkpt>
      <trkpt lat="48.38922" lon="2.59286">
        <ele>123</ele>
        <time>2011-11-27T10:51:58Z</time>
      </trkpt>
      <trkpt lat="48.38917" lon="2.59306">
        <ele>123</ele>
        <time>2011-11-27T10:52:03Z</time>
      </trkpt>
      <trkpt lat="48.38915" lon="2.59316">
        <ele>123</ele>
        <time>2011-11-27T10:52:15Z</time>
      </trkpt>
      <trkpt lat="48.38912" lon="2.59312">
        <ele>123</ele>
        <time>2011-11-27T10:52:36Z</time>
      </trkpt>
      <trkpt lat="48.38912" lon="2.59312">
        <ele>123</ele>
        <time>2011-11-27T10:52:42Z</time>
      </trkpt>
      <trkpt lat="48.38906" lon="2.5931">
        <ele>123</ele>
        <time>2011-11-27T10:52:49Z</time>
      </trkpt>
      <trkpt lat="48.38893" lon="2.5931">
        <ele>123</ele>
        <time>2011-11-27T10:53:01Z</time>
      </trkpt>
      <trkpt lat="48.38889" lon="2.59304">
        <ele>123</ele>
        <time>2011-11-27T10:53:09Z</time>
      </trkpt>
      <trkpt lat="48.38874" lon="2.59299">
        <ele>124</ele>
        <time>2011-11-27T10:53:17Z</time>
      </trkpt>
      <trkpt lat="48.38837" lon="2.593">
        <ele>124</ele>
        <time>2011-11-27T10:53:28Z</time>
      </trkpt>
      <trkpt lat="48.38811" lon="2.59295">
        <ele>123</ele>
        <time>2011-11-27T10:53:36Z</time>
      </trkpt>
      <trkpt lat="48.38789" lon="2.59289">
        <ele>123</ele>
        <time>2011-11-27T10:53:42Z</time>
      </trkpt>
      <trkpt lat="48.38756" lon="2.59311">
        <ele>122</ele>
        <time>2011-11-27T10:53:52Z</time>
      </trkpt>
      <trkpt lat="48.38739" lon="2.59329">
        <ele>121</ele>
        <time>2011-11-27T10:53:57Z</time>
      </trkpt>
      <trkpt lat="48.38737" lon="2.5934">
        <ele>121</ele>
        <time>2011-11-27T10:54:00Z</time>
      </trkpt>
      <trkpt lat="48.3873" lon="2.59352">
        <ele>121</ele>
        <time>2011-11-27T10:54:05Z</time>
      </trkpt>
      <trkpt lat="48.38722" lon="2.59349">
        <ele>121</ele>
        <time>2011-11-27T10:54:09Z</time>
      </trkpt>
      <trkpt lat="48.38717" lon="2.59341">
        <ele>121</ele>
        <time>2011-11-27T10:54:11Z</time>
      </trkpt>
      <trkpt lat="48.38705" lon="2.59351">
        <ele>121</ele>
        <time>2011-11-27T10:54:15Z</time>
      </trkpt>
      <trkpt lat="48.38691" lon="2.59364">
        <ele>121</ele>
        <time>2011-11-27T10:54:20Z</time>
      </trkpt>
      <trkpt lat="48.38683" lon="2.59355">
        <ele>121</ele>
        <time>2011-11-27T10:54:30Z</time>
      </trkpt>
      <trkpt lat="48.38676" lon="2.59358">
        <ele>121</ele>
        <time>2011-11-27T10:54:38Z</time>
      </trkpt>
      <trkpt lat="48.38673" lon="2.59361">
        <ele>121</ele>
        <time>2011-11-27T10:54:41Z</time>
      </trkpt>
      <trkpt lat="48.3867" lon="2.59366">
        <ele>121</ele>
        <time>2011-11-27T10:54:48Z</time>
      </trkpt>
      <trkpt lat="48.3866" lon="2.59375">
        <ele>122</ele>
        <time>2011-11-27T10:54:55Z</time>
      </trkpt>
      <trkpt lat="48.38657" lon="2.59383">
        <ele>122</ele>
        <time>2011-11-27T10:54:58Z</time>
      </trkpt>
      <trkpt lat="48.38655" lon="2.59385">
        <ele>122</ele>
        <time>2011-11-27T10:55:00Z</time>
      </trkpt>
      <trkpt lat="48.38656" lon="2.59395">
        <ele>122</ele>
        <time>2011-11-27T10:55:05Z</time>
      </trkpt>
      <trkpt lat="48.38667" lon="2.59448">
        <ele>123</ele>
        <time>2011-11-27T10:55:20Z</time>
      </trkpt>
      <trkpt lat="48.38668" lon="2.59541">
        <ele>125</ele>
        <time>2011-11-27T10:55:37Z</time>
      </trkpt>
      <trkpt lat="48.3866" lon="2.59624">
        <ele>127</ele>
        <time>2011-11-27T10:55:52Z</time>
      </trkpt>
      <trkpt lat="48.38653" lon="2.59702">
        <ele>128</ele>
        <time>2011-11-27T10:56:07Z</time>
      </trkpt>
      <trkpt lat="48.38648" lon="2.5977">
        <ele>128</ele>
        <time>2011-11-27T10:56:21Z</time>
      </trkpt>
      <trkpt lat="48.38648" lon="2.59775">
        <ele>128</ele>
        <time>2011-11-27T10:56:37Z</time>
      </trkpt>
      <trkpt lat="48.38653" lon="2.59775">
        <ele>128</ele>
        <time>2011-11-27T10:58:02Z</time>
      </trkpt>
      <trkpt lat="48.38672" lon="2.59788">
        <ele>126</ele>
        <time>2011-11-27T10:58:10Z</time>
      </trkpt>
      <trkpt lat="48.38714" lon="2.59809">
        <ele>126</ele>
        <time>2011-11-27T10:58:25Z</time>
      </trkpt>
      <trkpt lat="48.38723" lon="2.59812">
        <ele>126</ele>
        <time>2011-11-27T10:58:32Z</time>
      </trkpt>
      <trkpt lat="48.38761" lon="2.59836">
        <ele>125</ele>
        <time>2011-11-27T10:58:43Z</time>
      </trkpt>
      <trkpt lat="48.38787" lon="2.59868">
        <ele>126</ele>
        <time>2011-11-27T10:58:54Z</time>
      </trkpt>
      <trkpt lat="48.38805" lon="2.59946">
        <ele>126</ele>
        <time>2011-11-27T10:59:09Z</time>
      </trkpt>
      <trkpt lat="48.38811" lon="2.59976">
        <ele>126</ele>
        <time>2011-11-27T10:59:14Z</time>
      </trkpt>
      <trkpt lat="48.38817" lon="2.59993">
        <ele>126</ele>
        <time>2011-11-27T10:59:17Z</time>
      </trkpt>
      <trkpt lat="48.38824" lon="2.6001">
        <ele>126</ele>
        <time>2011-11-27T10:59:20Z</time>
      </trkpt>
      <trkpt lat="48.38833" lon="2.6003">
        <ele>127</ele>
        <time>2011-11-27T10:59:24Z</time>
      </trkpt>
      <trkpt lat="48.38834" lon="2.60056">
        <ele>127</ele>
        <time>2011-11-27T10:59:28Z</time>
      </trkpt>
      <trkpt lat="48.38838" lon="2.60094">
        <ele>127</ele>
        <time>2011-11-27T10:59:34Z</time>
      </trkpt>
      <trkpt lat="48.38847" lon="2.60194">
        <ele>127</ele>
        <time>2011-11-27T10:59:52Z</time>
      </trkpt>
      <trkpt lat="48.38847" lon="2.60255">
        <ele>127</ele>
        <time>2011-11-27T11:00:05Z</time>
      </trkpt>
      <trkpt lat="48.38848" lon="2.60255">
        <ele>127</ele>
        <time>2011-11-27T11:00:29Z</time>
      </trkpt>
      <trkpt lat="48.38838" lon="2.60309">
        <ele>127</ele>
        <time>2011-11-27T11:00:40Z</time>
      </trkpt>
      <trkpt lat="48.38822" lon="2.6044">
        <ele>129</ele>
        <time>2011-11-27T11:01:00Z</time>
      </trkpt>
      <trkpt lat="48.3881" lon="2.60533">
        <ele>129</ele>
        <time>2011-11-27T11:01:14Z</time>
      </trkpt>
      <trkpt lat="48.38794" lon="2.60647">
        <ele>130</ele>
        <time>2011-11-27T11:01:31Z</time>
      </trkpt>
      <trkpt lat="48.3878" lon="2.60758">
        <ele>130</ele>
        <time>2011-11-27T11:01:47Z</time>
      </trkpt>
      <trkpt lat="48.38765" lon="2.60877">
        <ele>130</ele>
        <time>2011-11-27T11:02:05Z</time>
      </trkpt>
      <trkpt lat="48.3875" lon="2.60994">
        <ele>133</ele>
        <time>2011-11-27T11:02:23Z</time>
      </trkpt>
      <trkpt lat="48.38741" lon="2.61054">
        <ele>133</ele>
        <time>2011-11-27T11:02:32Z</time>
      </trkpt>
      <trkpt lat="48.38727" lon="2.61182">
        <ele>132</ele>
        <time>2011-11-27T11:02:51Z</time>
      </trkpt>
      <trkpt lat="48.38709" lon="2.61326">
        <ele>133</ele>
        <time>2011-11-27T11:03:12Z</time>
      </trkpt>
      <trkpt lat="48.38703" lon="2.6138">
        <ele>134</ele>
        <time>2011-11-27T11:03:20Z</time>
      </trkpt>
      <trkpt lat="48.38692" lon="2.61455">
        <ele>134</ele>
        <time>2011-11-27T11:03:33Z</time>
      </trkpt>
      <trkpt lat="48.38686" lon="2.61503">
        <ele>134</ele>
        <time>2011-11-27T11:03:42Z</time>
      </trkpt>
      <trkpt lat="48.38694" lon="2.61503">
        <ele>134</ele>
        <time>2011-11-27T11:03:47Z</time>
      </trkpt>
      <trkpt lat="48.38709" lon="2.61493">
        <ele>134</ele>
        <time>2011-11-27T11:03:57Z</time>
      </trkpt>
      <trkpt lat="48.3872" lon="2.61487">
        <ele>134</ele>
        <time>2011-11-27T11:04:01Z</time>
      </trkpt>
      <trkpt lat="48.38738" lon="2.61517">
        <ele>134</ele>
        <time>2011-11-27T11:04:09Z</time>
      </trkpt>
      <trkpt lat="48.38743" lon="2.61528">
        <ele>134</ele>
        <time>2011-11-27T11:04:11Z</time>
      </trkpt>
      <trkpt lat="48.38798" lon="2.61596">
        <ele>133</ele>
        <time>2011-11-27T11:04:27Z</time>
      </trkpt>
      <trkpt lat="48.38845" lon="2.61642">
        <ele>133</ele>
        <time>2011-11-27T11:04:39Z</time>
      </trkpt>
      <trkpt lat="48.389" lon="2.61701">
        <ele>132</ele>
        <time>2011-11-27T11:04:53Z</time>
      </trkpt>
      <trkpt lat="48.38919" lon="2.61714">
        <ele>130</ele>
        <time>2011-11-27T11:04:57Z</time>
      </trkpt>
      <trkpt lat="48.38934" lon="2.61734">
        <ele>130</ele>
        <time>2011-11-27T11:05:01Z</time>
      </trkpt>
      <trkpt lat="48.38966" lon="2.61822">
        <ele>131</ele>
        <time>2011-11-27T11:05:15Z</time>
      </trkpt>
      <trkpt lat="48.38977" lon="2.61853">
        <ele>131</ele>
        <time>2011-11-27T11:05:20Z</time>
      </trkpt>
      <trkpt lat="48.38982" lon="2.61894">
        <ele>130</ele>
        <time>2011-11-27T11:05:26Z</time>
      </trkpt>
      <trkpt lat="48.39005" lon="2.61978">
        <ele>129</ele>
        <time>2011-11-27T11:05:38Z</time>
      </trkpt>
      <trkpt lat="48.39045" lon="2.62071">
        <ele>129</ele>
        <time>2011-11-27T11:05:53Z</time>
      </trkpt>
      <trkpt lat="48.39054" lon="2.62089">
        <ele>128</ele>
        <time>2011-11-27T11:05:57Z</time>
      </trkpt>
      <trkpt lat="48.39118" lon="2.61811">
        <ele>125</ele>
      </trkpt>
      <trkpt lat="48.39094" lon="2.61581">
        <ele>119</ele>
      </trkpt>
      <trkpt lat="48.39121" lon="2.61503">
        <ele>119</ele>
      </trkpt>
      <trkpt lat="48.39199" lon="2.61492">
        <ele>112</ele>
      </trkpt>
      <trkpt lat="48.3927" lon="2.61529">
        <ele>112</ele>
      </trkpt>
      <trkpt lat="48.39271" lon="2.61534">
        <ele>113</ele>
      </trkpt>
      <trkpt lat="48.39274" lon="2.61533">
        <ele>113</ele>
      </trkpt>
      <trkpt lat="48.39284" lon="2.6155">
        <ele>113</ele>
      </trkpt>
      <trkpt lat="48.39296" lon="2.61566">
        <ele>114</ele>
      </trkpt>
      <trkpt lat="48.39316" lon="2.61584">
        <ele>117</ele>
      </trkpt>
      <trkpt lat="48.39316" lon="2.61599">
        <ele>117</ele>
      </trkpt>
      <trkpt lat="48.39312" lon="2.61606">
        <ele>117</ele>
      </trkpt>
      <trkpt lat="48.39311" lon="2.61618">
        <ele>117</ele>
      </trkpt>
      <trkpt lat="48.39313" lon="2.61624">
        <ele>118</ele>
      </trkpt>
      <trkpt lat="48.3931" lon="2.61639">
        <ele>118</ele>
      </trkpt>
      <trkpt lat="48.39306" lon="2.61657">
        <ele>118</ele>
      </trkpt>
      <trkpt lat="48.39305" lon="2.61664">
        <ele>119</ele>
      </trkpt>
      <trkpt lat="48.39305" lon="2.61665">
        <ele>119</ele>
      </trkpt>
      <trkpt lat="48.39302" lon="2.61681">
        <ele>121</ele>
      </trkpt>
      <trkpt lat="48.39302" lon="2.61682">
        <ele>121</ele>
      </trkpt>
      <trkpt lat="48.39312" lon="2.61683">
        <ele>121</ele>
      </trkpt>
      <trkpt lat="48.39315" lon="2.61689">
        <ele>121</ele>
      </trkpt>
      <trkpt lat="48.39321" lon="2.61691">
        <ele>121</ele>
      </trkpt>
      <trkpt lat="48.39325" lon="2.61692">
        <ele>121</ele>
      </trkpt>
      <trkpt lat="48.39334" lon="2.61703">
        <ele>124</ele>
      </trkpt>
      <trkpt lat="48.39333" lon="2.61727">
        <ele>122</ele>
      </trkpt>
      <trkpt lat="48.39332" lon="2.61744">
        <ele>123</ele>
      </trkpt>
      <trkpt lat="48.39329" lon="2.61751">
        <ele>124</ele>
      </trkpt>
      <trkpt lat="48.39336" lon="2.6176">
        <ele>125</ele>
      </trkpt>
      <trkpt lat="48.3934" lon="2.61767">
        <ele>125</ele>
      </trkpt>
      <trkpt lat="48.39345" lon="2.61771">
        <ele>126</ele>
      </trkpt>
      <trkpt lat="48.3935" lon="2.61788">
        <ele>126</ele>
      </trkpt>
      <trkpt lat="48.39355" lon="2.61809">
        <ele>127</ele>
      </trkpt>
      <trkpt lat="48.39357" lon="2.61812">
        <ele>127</ele>
      </trkpt>
      <trkpt lat="48.39357" lon="2.61816">
        <ele>127</ele>
      </trkpt>
      <trkpt lat="48.39356" lon="2.61817">
        <ele>126</ele>
      </trkpt>
      <trkpt lat="48.39357" lon="2.61834">
        <ele>127</ele>
      </trkpt>
      <trkpt lat="48.39357" lon="2.61837">
        <ele>127</ele>
      </trkpt>
      <trkpt lat="48.39356" lon="2.61841">
        <ele>127</ele>
      </trkpt>
      <trkpt lat="48.39358" lon="2.61853">
        <ele>127</ele>
      </trkpt>
      <trkpt lat="48.39363" lon="2.61862">
        <ele>127</ele>
      </trkpt>
      <trkpt lat="48.39362" lon="2.61869">
        <ele>127</ele>
      </trkpt>
      <trkpt lat="48.3936" lon="2.61875">
        <ele>127</ele>
      </trkpt>
      <trkpt lat="48.39361" lon="2.61872">
        <ele>127</ele>
      </trkpt>
      <trkpt lat="48.39361" lon="2.61872">
        <ele>127</ele>
      </trkpt>
      <trkpt lat="48.3936" lon="2.61864">
        <ele>127</ele>
      </trkpt>
      <trkpt lat="48.39359" lon="2.61826">
        <ele>127</ele>
      </trkpt>
      <trkpt lat="48.39359" lon="2.61823">
        <ele>127</ele>
      </trkpt>
      <trkpt lat="48.39363" lon="2.61818">
        <ele>127</ele>
      </trkpt>
      <trkpt lat="48.39368" lon="2.61818">
        <ele>127</ele>
      </trkpt>
      <trkpt lat="48.39371" lon="2.61815">
        <ele>127</ele>
      </trkpt>
      <trkpt lat="48.39375" lon="2.61812">
        <ele>127</ele>
      </trkpt>
      <trkpt lat="48.39381" lon="2.61819">
        <ele>128</ele>
      </trkpt>
      <trkpt lat="48.39388" lon="2.61824">
        <ele>128</ele>
      </trkpt>
      <trkpt lat="48.39392" lon="2.61821">
        <ele>128</ele>
      </trkpt>
      <trkpt lat="48.39407" lon="2.6182">
        <ele>129</ele>
      </trkpt>
      <trkpt lat="48.39416" lon="2.6182">
        <ele>129</ele>
      </trkpt>
      <trkpt lat="48.39419" lon="2.61817">
        <ele>130</ele>
      </trkpt>
      <trkpt lat="48.39426" lon="2.61824">
        <ele>130</ele>
      </trkpt>
      <trkpt lat="48.3943" lon="2.61837">
        <ele>131</ele>
      </trkpt>
      <trkpt lat="48.39435" lon="2.61844">
        <ele>131</ele>
      </trkpt>
      <trkpt lat="48.39444" lon="2.61846">
        <ele>131</ele>
      </trkpt>
      <trkpt lat="48.39445" lon="2.61846">
        <ele>131</ele>
      </trkpt>
      <trkpt lat="48.39453" lon="2.61828">
        <ele>130</ele>
      </trkpt>
      <trkpt lat="48.39462" lon="2.61824">
        <ele>130</ele>
      </trkpt>
      <trkpt lat="48.39462" lon="2.61822">
        <ele>130</ele>
      </trkpt>
      <trkpt lat="48.39461" lon="2.61818">
        <ele>130</ele>
      </trkpt>
      <trkpt lat="48.39462" lon="2.61807">
        <ele>130</ele>
      </trkpt>
      <trkpt lat="48.39464" lon="2.61787">
        <ele>130</ele>
      </trkpt>
      <trkpt lat="48.39468" lon="2.61753">
        <ele>129</ele>
      </trkpt>
      <trkpt lat="48.39469" lon="2.6172">
        <ele>129</ele>
      </trkpt>
      <trkpt lat="48.39476" lon="2.61714">
        <ele>129</ele>
      </trkpt>
      <trkpt lat="48.39485" lon="2.61714">
        <ele>129</ele>
      </trkpt>
      <trkpt lat="48.3949" lon="2.61719">
        <ele>129</ele>
      </trkpt>
      <trkpt lat="48.39508" lon="2.61708">
        <ele>131</ele>
      </trkpt>
      <trkpt lat="48.39516" lon="2.61715">
        <ele>131</ele>
      </trkpt>
      <trkpt lat="48.39506" lon="2.61783">
        <ele>131</ele>
      </trkpt>
      <trkpt lat="48.39503" lon="2.61833">
        <ele>131</ele>
      </trkpt>
      <trkpt lat="48.39497" lon="2.61918">
        <ele>132</ele>
      </trkpt>
      <trkpt lat="48.39497" lon="2.61957">
        <ele>131</ele>
      </trkpt>
      <trkpt lat="48.39492" lon="2.62005">
        <ele>132</ele>
      </trkpt>
      <trkpt lat="48.39489" lon="2.62025">
        <ele>132</ele>
      </trkpt>
      <trkpt lat="48.39486" lon="2.62038">
        <ele>132</ele>
      </trkpt>
      <trkpt lat="48.39479" lon="2.6206">
        <ele>133</ele>
      </trkpt>
      <trkpt lat="48.39475" lon="2.62082">
        <ele>133</ele>
      </trkpt>
      <trkpt lat="48.39498" lon="2.62116">
        <ele>133</ele>
      </trkpt>
      <trkpt lat="48.39521" lon="2.62141">
        <ele>135</ele>
      </trkpt>
      <trkpt lat="48.3953" lon="2.62155">
        <ele>135</ele>
      </trkpt>
      <trkpt lat="48.39523" lon="2.62175">
        <ele>135</ele>
      </trkpt>
      <trkpt lat="48.3954" lon="2.62168">
        <ele>135</ele>
        <time>2011-11-27T11:10:20Z</time>
      </trkpt>
      <trkpt lat="48.39531" lon="2.62221">
        <ele>135</ele>
        <time>2011-11-27T11:10:32Z</time>
      </trkpt>
      <trkpt lat="48.39511" lon="2.62328">
        <ele>135</ele>
        <time>2011-11-27T11:10:49Z</time>
      </trkpt>
      <trkpt lat="48.39489" lon="2.62441">
        <ele>133</ele>
        <time>2011-11-27T11:11:05Z</time>
      </trkpt>
      <trkpt lat="48.39477" lon="2.62505">
        <ele>134</ele>
        <time>2011-11-27T11:11:14Z</time>
      </trkpt>
      <trkpt lat="48.3946" lon="2.62614">
        <ele>135</ele>
        <time>2011-11-27T11:11:30Z</time>
      </trkpt>
      <trkpt lat="48.39457" lon="2.62636">
        <ele>136</ele>
        <time>2011-11-27T11:11:33Z</time>
      </trkpt>
      <trkpt lat="48.3944" lon="2.62725">
        <ele>137</ele>
        <time>2011-11-27T11:11:46Z</time>
      </trkpt>
      <trkpt lat="48.39422" lon="2.62828">
        <ele>137</ele>
        <time>2011-11-27T11:12:01Z</time>
      </trkpt>
      <trkpt lat="48.39415" lon="2.62881">
        <ele>136</ele>
        <time>2011-11-27T11:12:08Z</time>
      </trkpt>
      <trkpt lat="48.39413" lon="2.62904">
        <ele>136</ele>
        <time>2011-11-27T11:12:11Z</time>
      </trkpt>
      <trkpt lat="48.39403" lon="2.62947">
        <ele>135</ele>
        <time>2011-11-27T11:12:19Z</time>
      </trkpt>
      <trkpt lat="48.39394" lon="2.63002">
        <ele>134</ele>
        <time>2011-11-27T11:12:32Z</time>
      </trkpt>
      <trkpt lat="48.39393" lon="2.63033">
        <ele>134</ele>
        <time>2011-11-27T11:12:37Z</time>
      </trkpt>
      <trkpt lat="48.39376" lon="2.63171">
        <ele>135</ele>
        <time>2011-11-27T11:12:56Z</time>
      </trkpt>
      <trkpt lat="48.39374" lon="2.63185">
        <ele>135</ele>
        <time>2011-11-27T11:12:58Z</time>
      </trkpt>
      <trkpt lat="48.39369" lon="2.63225">
        <ele>135</ele>
        <time>2011-11-27T11:13:04Z</time>
      </trkpt>
      <trkpt lat="48.3937" lon="2.63292">
        <ele>134</ele>
        <time>2011-11-27T11:13:13Z</time>
      </trkpt>
      <trkpt lat="48.3937" lon="2.63322">
        <ele>134</ele>
        <time>2011-11-27T11:13:17Z</time>
      </trkpt>
      <trkpt lat="48.39373" lon="2.6335">
        <ele>133</ele>
        <time>2011-11-27T11:13:21Z</time>
      </trkpt>
      <trkpt lat="48.39371" lon="2.63381">
        <ele>133</ele>
        <time>2011-11-27T11:13:25Z</time>
      </trkpt>
      <trkpt lat="48.39365" lon="2.63413">
        <ele>132</ele>
        <time>2011-11-27T11:13:29Z</time>
      </trkpt>
      <trkpt lat="48.39364" lon="2.63436">
        <ele>130</ele>
        <time>2011-11-27T11:13:32Z</time>
      </trkpt>
      <trkpt lat="48.39374" lon="2.63468">
        <ele>130</ele>
        <time>2011-11-27T11:13:37Z</time>
      </trkpt>
      <trkpt lat="48.39379" lon="2.63507">
        <ele>129</ele>
        <time>2011-11-27T11:13:42Z</time>
      </trkpt>
      <trkpt lat="48.39385" lon="2.63526">
        <ele>129</ele>
        <time>2011-11-27T11:13:45Z</time>
      </trkpt>
      <trkpt lat="48.39385" lon="2.63547">
        <ele>129</ele>
        <time>2011-11-27T11:13:48Z</time>
      </trkpt>
      <trkpt lat="48.39392" lon="2.63575">
        <ele>129</ele>
        <time>2011-11-27T11:13:52Z</time>
      </trkpt>
      <trkpt lat="48.39393" lon="2.63605">
        <ele>128</ele>
        <time>2011-11-27T11:13:56Z</time>
      </trkpt>
      <trkpt lat="48.39397" lon="2.63641">
        <ele>127</ele>
        <time>2011-11-27T11:14:01Z</time>
      </trkpt>
      <trkpt lat="48.39404" lon="2.63671">
        <ele>128</ele>
        <time>2011-11-27T11:14:05Z</time>
      </trkpt>
      <trkpt lat="48.39405" lon="2.63695">
        <ele>126</ele>
        <time>2011-11-27T11:14:08Z</time>
      </trkpt>
      <trkpt lat="48.39427" lon="2.63733">
        <ele>131</ele>
        <time>2011-11-27T11:14:15Z</time>
      </trkpt>
      <trkpt lat="48.39439" lon="2.63766">
        <ele>130</ele>
        <time>2011-11-27T11:14:24Z</time>
      </trkpt>
      <trkpt lat="48.39457" lon="2.63791">
        <ele>131</ele>
        <time>2011-11-27T11:14:33Z</time>
      </trkpt>
      <trkpt lat="48.39463" lon="2.63781">
        <ele>131</ele>
        <time>2011-11-27T11:14:37Z</time>
      </trkpt>
      <trkpt lat="48.39469" lon="2.63762">
        <ele>132</ele>
        <time>2011-11-27T11:14:51Z</time>
      </trkpt>
      <trkpt lat="48.39468" lon="2.63761">
        <ele>132</ele>
        <time>2011-11-27T11:19:30Z</time>
      </trkpt>
      <trkpt lat="48.39471" lon="2.63756">
        <ele>132</ele>
        <time>2011-11-27T11:19:33Z</time>
      </trkpt>
      <trkpt lat="48.39474" lon="2.63746">
        <ele>133</ele>
        <time>2011-11-27T11:19:36Z</time>
      </trkpt>
      <trkpt lat="48.39481" lon="2.637">
        <ele>134</ele>
        <time>2011-11-27T11:19:47Z</time>
      </trkpt>
      <trkpt lat="48.39498" lon="2.63619">
        <ele>135</ele>
        <time>2011-11-27T11:20:04Z</time>
      </trkpt>
      <trkpt lat="48.39519" lon="2.63529">
        <ele>138</ele>
        <time>2011-11-27T11:20:21Z</time>
      </trkpt>
      <trkpt lat="48.39534" lon="2.6352">
        <ele>138</ele>
        <time>2011-11-27T11:20:27Z</time>
      </trkpt>
      <trkpt lat="48.39544" lon="2.63523">
        <ele>138</ele>
        <time>2011-11-27T11:20:30Z</time>
      </trkpt>
      <trkpt lat="48.39573" lon="2.63523">
        <ele>138</ele>
        <time>2011-11-27T11:20:37Z</time>
      </trkpt>
      <trkpt lat="48.3962" lon="2.63526">
        <ele>136</ele>
        <time>2011-11-27T11:20:46Z</time>
      </trkpt>
      <trkpt lat="48.39654" lon="2.63531">
        <ele>135</ele>
        <time>2011-11-27T11:20:51Z</time>
      </trkpt>
      <trkpt lat="48.39675" lon="2.63534">
        <ele>133</ele>
        <time>2011-11-27T11:20:54Z</time>
      </trkpt>
      <trkpt lat="48.39686" lon="2.63563">
        <ele>132</ele>
        <time>2011-11-27T11:20:58Z</time>
      </trkpt>
      <trkpt lat="48.39698" lon="2.63623">
        <ele>128</ele>
        <time>2011-11-27T11:21:03Z</time>
      </trkpt>
      <trkpt lat="48.39733" lon="2.63639">
        <ele>126</ele>
        <time>2011-11-27T11:21:09Z</time>
      </trkpt>
      <trkpt lat="48.39763" lon="2.63645">
        <ele>121</ele>
        <time>2011-11-27T11:21:14Z</time>
      </trkpt>
      <trkpt lat="48.39768" lon="2.63654">
        <ele>121</ele>
        <time>2011-11-27T11:21:15Z</time>
      </trkpt>
      <trkpt lat="48.39818" lon="2.63756">
        <ele>111</ele>
        <time>2011-11-27T11:21:25Z</time>
      </trkpt>
      <trkpt lat="48.39831" lon="2.6377">
        <ele>110</ele>
        <time>2011-11-27T11:21:29Z</time>
      </trkpt>
      <trkpt lat="48.39854" lon="2.63734">
        <ele>116</ele>
        <time>2011-11-27T11:21:41Z</time>
      </trkpt>
      <trkpt lat="48.39876" lon="2.63701">
        <ele>119</ele>
        <time>2011-11-27T11:21:55Z</time>
      </trkpt>
      <trkpt lat="48.39885" lon="2.63699">
        <ele>120</ele>
        <time>2011-11-27T11:22:00Z</time>
      </trkpt>
      <trkpt lat="48.39894" lon="2.63695">
        <ele>121</ele>
        <time>2011-11-27T11:22:05Z</time>
      </trkpt>
      <trkpt lat="48.39916" lon="2.63691">
        <ele>122</ele>
        <time>2011-11-27T11:22:16Z</time>
      </trkpt>
      <trkpt lat="48.39935" lon="2.63685">
        <ele>127</ele>
        <time>2011-11-27T11:22:26Z</time>
      </trkpt>
      <trkpt lat="48.39952" lon="2.63651">
        <ele>129</ele>
        <time>2011-11-27T11:22:39Z</time>
      </trkpt>
      <trkpt lat="48.39967" lon="2.63637">
        <ele>129</ele>
        <time>2011-11-27T11:22:48Z</time>
      </trkpt>
      <trkpt lat="48.39993" lon="2.63615">
        <ele>130</ele>
        <time>2011-11-27T11:23:05Z</time>
      </trkpt>
      <trkpt lat="48.40002" lon="2.63606">
        <ele>132</ele>
        <time>2011-11-27T11:23:11Z</time>
      </trkpt>
      <trkpt lat="48.40018" lon="2.63599">
        <ele>132</ele>
        <time>2011-11-27T11:23:19Z</time>
      </trkpt>
      <trkpt lat="48.4004" lon="2.63591">
        <ele>133</ele>
        <time>2011-11-27T11:23:30Z</time>
      </trkpt>
      <trkpt lat="48.4005" lon="2.63585">
        <ele>133</ele>
        <time>2011-11-27T11:23:36Z</time>
      </trkpt>
      <trkpt lat="48.40056" lon="2.63585">
        <ele>134</ele>
        <time>2011-11-27T11:23:40Z</time>
      </trkpt>
      <trkpt lat="48.40082" lon="2.63595">
        <ele>135</ele>
        <time>2011-11-27T11:23:56Z</time>
      </trkpt>
      <trkpt lat="48.40103" lon="2.63615">
        <ele>137</ele>
        <time>2011-11-27T11:24:10Z</time>
      </trkpt>
      <trkpt lat="48.4012" lon="2.63639">
        <ele>137</ele>
        <time>2011-11-27T11:24:21Z</time>
      </trkpt>
      <trkpt lat="48.40144" lon="2.63681">
        <ele>137</ele>
        <time>2011-11-27T11:24:35Z</time>
      </trkpt>
      <trkpt lat="48.40167" lon="2.63717">
        <ele>139</ele>
        <time>2011-11-27T11:24:45Z</time>
      </trkpt>
      <trkpt lat="48.40197" lon="2.63767">
        <ele>138</ele>
        <time>2011-11-27T11:24:58Z</time>
      </trkpt>
      <trkpt lat="48.40229" lon="2.63825">
        <ele>138</ele>
        <time>2011-11-27T11:25:11Z</time>
      </trkpt>
      <trkpt lat="48.40256" lon="2.63872">
        <ele>138</ele>
        <time>2011-11-27T11:25:21Z</time>
      </trkpt>
      <trkpt lat="48.40281" lon="2.63877">
        <ele>138</ele>
        <time>2011-11-27T11:25:29Z</time>
      </trkpt>
      <trkpt lat="48.40325" lon="2.63864">
        <ele>139</ele>
        <time>2011-11-27T11:25:40Z</time>
      </trkpt>
      <trkpt lat="48.40329" lon="2.63863">
        <ele>139</ele>
        <time>2011-11-27T11:25:41Z</time>
      </trkpt>
      <trkpt lat="48.40345" lon="2.63858">
        <ele>139</ele>
        <time>2011-11-27T11:25:45Z</time>
      </trkpt>
      <trkpt lat="48.40381" lon="2.63848">
        <ele>138</ele>
        <time>2011-11-27T11:25:54Z</time>
      </trkpt>
      <trkpt lat="48.40382" lon="2.63863">
        <ele>138</ele>
        <time>2011-11-27T11:26:00Z</time>
      </trkpt>
      <trkpt lat="48.40376" lon="2.63871">
        <ele>138</ele>
        <time>2011-11-27T11:26:02Z</time>
      </trkpt>
      <trkpt lat="48.40361" lon="2.63913">
        <ele>138</ele>
        <time>2011-11-27T11:26:10Z</time>
      </trkpt>
      <trkpt lat="48.40362" lon="2.63926">
        <ele>137</ele>
        <time>2011-11-27T11:26:12Z</time>
      </trkpt>
      <trkpt lat="48.40365" lon="2.63939">
        <ele>137</ele>
        <time>2011-11-27T11:26:14Z</time>
      </trkpt>
      <trkpt lat="48.40358" lon="2.63957">
        <ele>136</ele>
        <time>2011-11-27T11:26:18Z</time>
      </trkpt>
      <trkpt lat="48.40354" lon="2.63984">
        <ele>136</ele>
        <time>2011-11-27T11:26:23Z</time>
      </trkpt>
      <trkpt lat="48.40342" lon="2.63999">
        <ele>135</ele>
        <time>2011-11-27T11:26:27Z</time>
      </trkpt>
      <trkpt lat="48.40324" lon="2.64006">
        <ele>135</ele>
        <time>2011-11-27T11:26:32Z</time>
      </trkpt>
      <trkpt lat="48.40313" lon="2.64023">
        <ele>134</ele>
        <time>2011-11-27T11:26:36Z</time>
      </trkpt>
      <trkpt lat="48.40289" lon="2.6408">
        <ele>134</ele>
        <time>2011-11-27T11:26:44Z</time>
      </trkpt>
      <trkpt lat="48.40286" lon="2.64086">
        <ele>134</ele>
        <time>2011-11-27T11:26:45Z</time>
      </trkpt>
      <trkpt lat="48.4028" lon="2.64096">
        <ele>134</ele>
        <time>2011-11-27T11:26:47Z</time>
      </trkpt>
      <trkpt lat="48.40279" lon="2.64131">
        <ele>134</ele>
        <time>2011-11-27T11:26:53Z</time>
      </trkpt>
      <trkpt lat="48.40282" lon="2.64157">
        <ele>134</ele>
        <time>2011-11-27T11:26:57Z</time>
      </trkpt>
      <trkpt lat="48.40282" lon="2.64213">
        <ele>133</ele>
        <time>2011-11-27T11:27:06Z</time>
      </trkpt>
      <trkpt lat="48.40279" lon="2.64237">
        <ele>133</ele>
        <time>2011-11-27T11:27:10Z</time>
      </trkpt>
      <trkpt lat="48.40279" lon="2.64246">
        <ele>133</ele>
        <time>2011-11-27T11:27:12Z</time>
      </trkpt>
      <trkpt lat="48.40262" lon="2.64288">
        <ele>132</ele>
        <time>2011-11-27T11:27:21Z</time>
      </trkpt>
      <trkpt lat="48.40251" lon="2.64334">
        <ele>134</ele>
        <time>2011-11-27T11:27:29Z</time>
      </trkpt>
      <trkpt lat="48.40243" lon="2.64357">
        <ele>134</ele>
        <time>2011-11-27T11:27:33Z</time>
      </trkpt>
      <trkpt lat="48.40243" lon="2.64375">
        <ele>133</ele>
        <time>2011-11-27T11:27:36Z</time>
      </trkpt>
      <trkpt lat="48.40243" lon="2.64386">
        <ele>133</ele>
        <time>2011-11-27T11:27:38Z</time>
      </trkpt>
      <trkpt lat="48.40245" lon="2.64418">
        <ele>130</ele>
        <time>2011-11-27T11:27:43Z</time>
      </trkpt>
      <trkpt lat="48.40237" lon="2.64501">
        <ele>128</ele>
        <time>2011-11-27T11:27:57Z</time>
      </trkpt>
      <trkpt lat="48.40228" lon="2.6455">
        <ele>129</ele>
        <time>2011-11-27T11:28:06Z</time>
      </trkpt>
      <trkpt lat="48.40205" lon="2.64619">
        <ele>127</ele>
        <time>2011-11-27T11:28:19Z</time>
      </trkpt>
      <trkpt lat="48.40176" lon="2.64675">
        <ele>129</ele>
        <time>2011-11-27T11:28:31Z</time>
      </trkpt>
      <trkpt lat="48.40144" lon="2.64732">
        <ele>131</ele>
        <time>2011-11-27T11:28:43Z</time>
      </trkpt>
      <trkpt lat="48.40125" lon="2.64798">
        <ele>132</ele>
        <time>2011-11-27T11:28:54Z</time>
      </trkpt>
      <trkpt lat="48.40118" lon="2.64831">
        <ele>132</ele>
        <time>2011-11-27T11:28:59Z</time>
      </trkpt>
      <trkpt lat="48.40119" lon="2.64879">
        <ele>131</ele>
        <time>2011-11-27T11:29:06Z</time>
      </trkpt>
      <trkpt lat="48.40114" lon="2.64915">
        <ele>131</ele>
        <time>2011-11-27T11:29:11Z</time>
      </trkpt>
      <trkpt lat="48.40115" lon="2.64952">
        <ele>128</ele>
      </trkpt>
      <trkpt lat="48.40146" lon="2.64937">
        <ele>126</ele>
      </trkpt>
      <trkpt lat="48.40166" lon="2.64938">
        <ele>125</ele>
      </trkpt>
      <trkpt lat="48.40174" lon="2.64948">
        <ele>117</ele>
      </trkpt>
      <trkpt lat="48.40177" lon="2.6498">
        <ele>116</ele>
      </trkpt>
      <trkpt lat="48.40202" lon="2.65002">
        <ele>111</ele>
      </trkpt>
      <trkpt lat="48.40219" lon="2.65029">
        <ele>109</ele>
      </trkpt>
      <trkpt lat="48.4025" lon="2.65148">
        <ele>103</ele>
      </trkpt>
      <trkpt lat="48.40277" lon="2.6518">
        <ele>102</ele>
      </trkpt>
      <trkpt lat="48.40331" lon="2.65191">
        <ele>103</ele>
      </trkpt>
      <trkpt lat="48.40338" lon="2.65181">
        <ele>103</ele>
      </trkpt>
      <trkpt lat="48.40351" lon="2.65184">
        <ele>103</ele>
      </trkpt>
      <trkpt lat="48.40376" lon="2.65155">
        <ele>103</ele>
      </trkpt>
      <trkpt lat="48.40374" lon="2.65134">
        <ele>104</ele>
      </trkpt>
      <trkpt lat="48.40345" lon="2.65118">
        <ele>104</ele>
      </trkpt>
      <trkpt lat="48.40302" lon="2.65063">
        <ele>105</ele>
      </trkpt>
      <trkpt lat="48.40218" lon="2.65031">
        <ele>109</ele>
      </trkpt>
      <trkpt lat="48.40176" lon="2.64976">
        <ele>116</ele>
      </trkpt>
      <trkpt lat="48.40176" lon="2.64969">
        <ele>116</ele>
      </trkpt>
      <trkpt lat="48.40142" lon="2.64939">
        <ele>126</ele>
      </trkpt>
      <trkpt lat="48.40122" lon="2.64945">
        <ele>127</ele>
      </trkpt>
      <trkpt lat="48.40115" lon="2.64954">
        <ele>128</ele>
      </trkpt>
      <trkpt lat="48.4011" lon="2.64937">
        <ele>128</ele>
      </trkpt>
      <trkpt lat="48.40115" lon="2.64952">
        <ele>128</ele>
      </trkpt>
      <trkpt lat="48.4007" lon="2.64954">
        <ele>129</ele>
      </trkpt>
      <trkpt lat="48.40022" lon="2.6494">
        <ele>127</ele>
      </trkpt>
      <trkpt lat="48.40021" lon="2.64932">
        <ele>127</ele>
      </trkpt>
      <trkpt lat="48.39983" lon="2.64934">
        <ele>119</ele>
      </trkpt>
      <trkpt lat="48.39974" lon="2.64929">
        <ele>118</ele>
      </trkpt>
      <trkpt lat="48.39968" lon="2.64911">
        <ele>117</ele>
      </trkpt>
      <trkpt lat="48.39967" lon="2.64876">
        <ele>116</ele>
      </trkpt>
      <trkpt lat="48.39941" lon="2.64842">
        <ele>113</ele>
      </trkpt>
      <trkpt lat="48.39919" lon="2.64841">
        <ele>110</ele>
      </trkpt>
      <trkpt lat="48.39897" lon="2.64911">
        <ele>106</ele>
      </trkpt>
      <trkpt lat="48.39873" lon="2.64955">
        <ele>104</ele>
      </trkpt>
      <trkpt lat="48.39822" lon="2.65029">
        <ele>99</ele>
      </trkpt>
      <trkpt lat="48.39825" lon="2.65041">
        <ele>99</ele>
      </trkpt>
      <trkpt lat="48.39855" lon="2.65073">
        <ele>104</ele>
      </trkpt>
      <trkpt lat="48.39902" lon="2.65201">
        <ele>114</ele>
      </trkpt>
      <trkpt lat="48.39946" lon="2.65238">
        <ele>124</ele>
      </trkpt>
      <trkpt lat="48.39954" lon="2.65259">
        <ele>124</ele>
      </trkpt>
      <trkpt lat="48.39965" lon="2.65249">
        <ele>126</ele>
      </trkpt>
      <trkpt lat="48.39969" lon="2.65156">
        <ele>124</ele>
      </trkpt>
      <trkpt lat="48.3999" lon="2.65114">
        <ele>124</ele>
      </trkpt>
      <trkpt lat="48.40008" lon="2.65101">
        <ele>127</ele>
      </trkpt>
      <trkpt lat="48.40031" lon="2.651">
        <ele>127</ele>
      </trkpt>
      <trkpt lat="48.40055" lon="2.65105">
        <ele>127</ele>
      </trkpt>
      <trkpt lat="48.40075" lon="2.65119">
        <ele>127</ele>
      </trkpt>
      <trkpt lat="48.40078" lon="2.65137">
        <ele>126</ele>
        <time>2011-11-27T11:29:46Z</time>
      </trkpt>
      <trkpt lat="48.4007" lon="2.65171">
        <ele>125</ele>
        <time>2011-11-27T11:29:52Z</time>
      </trkpt>
      <trkpt lat="48.40068" lon="2.65189">
        <ele>125</ele>
        <time>2011-11-27T11:29:55Z</time>
      </trkpt>
      <trkpt lat="48.40062" lon="2.65215">
        <ele>125</ele>
        <time>2011-11-27T11:29:59Z</time>
      </trkpt>
      <trkpt lat="48.40046" lon="2.65247">
        <ele>126</ele>
        <time>2011-11-27T11:30:05Z</time>
      </trkpt>
      <trkpt lat="48.40038" lon="2.65271">
        <ele>125</ele>
        <time>2011-11-27T11:30:09Z</time>
      </trkpt>
      <trkpt lat="48.40038" lon="2.65285">
        <ele>125</ele>
        <time>2011-11-27T11:30:11Z</time>
      </trkpt>
      <trkpt lat="48.40041" lon="2.65298">
        <ele>124</ele>
        <time>2011-11-27T11:30:13Z</time>
      </trkpt>
      <trkpt lat="48.4004" lon="2.65315">
        <ele>124</ele>
        <time>2011-11-27T11:30:16Z</time>
      </trkpt>
      <trkpt lat="48.40031" lon="2.65349">
        <ele>123</ele>
        <time>2011-11-27T11:30:21Z</time>
      </trkpt>
      <trkpt lat="48.40028" lon="2.65397">
        <ele>122</ele>
        <time>2011-11-27T11:30:28Z</time>
      </trkpt>
      <trkpt lat="48.40002" lon="2.65429">
        <ele>121</ele>
        <time>2011-11-27T11:30:37Z</time>
      </trkpt>
      <trkpt lat="48.39994" lon="2.65443">
        <ele>119</ele>
        <time>2011-11-27T11:30:42Z</time>
      </trkpt>
      <trkpt lat="48.39986" lon="2.6546">
        <ele>117</ele>
        <time>2011-11-27T11:30:46Z</time>
      </trkpt>
      <trkpt lat="48.39981" lon="2.65475">
        <ele>117</ele>
        <time>2011-11-27T11:30:49Z</time>
      </trkpt>
      <trkpt lat="48.39986" lon="2.65505">
        <ele>116</ele>
        <time>2011-11-27T11:30:56Z</time>
      </trkpt>
      <trkpt lat="48.39988" lon="2.65504">
        <ele>116</ele>
        <time>2011-11-27T11:30:59Z</time>
      </trkpt>
      <trkpt lat="48.39993" lon="2.65513">
        <ele>116</ele>
        <time>2011-11-27T11:31:08Z</time>
      </trkpt>
      <trkpt lat="48.39999" lon="2.65522">
        <ele>115</ele>
        <time>2011-11-27T11:31:19Z</time>
      </trkpt>
      <trkpt lat="48.39999" lon="2.65526">
        <ele>115</ele>
        <time>2011-11-27T11:31:33Z</time>
      </trkpt>
      <trkpt lat="48.40003" lon="2.65529">
        <ele>115</ele>
        <time>2011-11-27T11:31:44Z</time>
      </trkpt>
      <trkpt lat="48.40004" lon="2.65531">
        <ele>115</ele>
        <time>2011-11-27T11:31:46Z</time>
      </trkpt>
      <trkpt lat="48.40004" lon="2.65539">
        <ele>115</ele>
        <time>2011-11-27T11:31:54Z</time>
      </trkpt>
      <trkpt lat="48.40011" lon="2.65547">
        <ele>114</ele>
        <time>2011-11-27T11:32:04Z</time>
      </trkpt>
      <trkpt lat="48.40011" lon="2.65545">
        <ele>114</ele>
        <time>2011-11-27T11:32:06Z</time>
      </trkpt>
      <trkpt lat="48.40012" lon="2.65542">
        <ele>114</ele>
        <time>2011-11-27T11:32:11Z</time>
      </trkpt>
      <trkpt lat="48.40016" lon="2.65539">
        <ele>114</ele>
        <time>2011-11-27T11:32:13Z</time>
      </trkpt>
      <trkpt lat="48.40017" lon="2.65535">
        <ele>114</ele>
        <time>2011-11-27T11:32:15Z</time>
      </trkpt>
      <trkpt lat="48.40026" lon="2.6554">
        <ele>114</ele>
        <time>2011-11-27T11:32:20Z</time>
      </trkpt>
      <trkpt lat="48.40031" lon="2.65548">
        <ele>113</ele>
        <time>2011-11-27T11:32:23Z</time>
      </trkpt>
      <trkpt lat="48.4004" lon="2.65553">
        <ele>112</ele>
        <time>2011-11-27T11:32:32Z</time>
      </trkpt>
      <trkpt lat="48.40045" lon="2.65551">
        <ele>112</ele>
        <time>2011-11-27T11:32:52Z</time>
      </trkpt>
      <trkpt lat="48.4005" lon="2.65547">
        <ele>112</ele>
        <time>2011-11-27T11:33:03Z</time>
      </trkpt>
      <trkpt lat="48.40056" lon="2.65544">
        <ele>112</ele>
        <time>2011-11-27T11:33:15Z</time>
      </trkpt>
      <trkpt lat="48.40062" lon="2.65539">
        <ele>111</ele>
        <time>2011-11-27T11:33:19Z</time>
      </trkpt>
      <trkpt lat="48.40072" lon="2.6553">
        <ele>111</ele>
        <time>2011-11-27T11:33:30Z</time>
      </trkpt>
      <trkpt lat="48.40082" lon="2.65532">
        <ele>111</ele>
        <time>2011-11-27T11:33:36Z</time>
      </trkpt>
      <trkpt lat="48.40095" lon="2.65526">
        <ele>104</ele>
        <time>2011-11-27T11:33:42Z</time>
      </trkpt>
      <trkpt lat="48.40109" lon="2.65522">
        <ele>103</ele>
        <time>2011-11-27T11:33:46Z</time>
      </trkpt>
      <trkpt lat="48.4012" lon="2.65502">
        <ele>103</ele>
        <time>2011-11-27T11:33:50Z</time>
      </trkpt>
      <trkpt lat="48.40124" lon="2.65489">
        <ele>104</ele>
        <time>2011-11-27T11:33:53Z</time>
      </trkpt>
      <trkpt lat="48.40149" lon="2.65444">
        <ele>103</ele>
        <time>2011-11-27T11:34:04Z</time>
      </trkpt>
      <trkpt lat="48.40156" lon="2.65431">
        <ele>102</ele>
        <time>2011-11-27T11:34:08Z</time>
      </trkpt>
      <trkpt lat="48.4016" lon="2.6543">
        <ele>102</ele>
        <time>2011-11-27T11:34:10Z</time>
      </trkpt>
      <trkpt lat="48.40166" lon="2.65419">
        <ele>101</ele>
        <time>2011-11-27T11:34:26Z</time>
      </trkpt>
      <trkpt lat="48.40166" lon="2.65419">
        <ele>100</ele>
        <time>2011-11-27T11:34:35Z</time>
      </trkpt>
      <trkpt lat="48.40169" lon="2.65416">
        <ele>100</ele>
        <time>2011-11-27T11:34:39Z</time>
      </trkpt>
      <trkpt lat="48.4019" lon="2.65375">
        <ele>104</ele>
        <time>2011-11-27T11:34:55Z</time>
      </trkpt>
      <trkpt lat="48.40195" lon="2.65365">
        <ele>104</ele>
        <time>2011-11-27T11:34:59Z</time>
      </trkpt>
      <trkpt lat="48.402" lon="2.65356">
        <ele>105</ele>
        <time>2011-11-27T11:35:10Z</time>
      </trkpt>
      <trkpt lat="48.40205" lon="2.65355">
        <ele>105</ele>
        <time>2011-11-27T11:35:24Z</time>
      </trkpt>
      <trkpt lat="48.40208" lon="2.65354">
        <ele>105</ele>
        <time>2011-11-27T11:35:29Z</time>
      </trkpt>
      <trkpt lat="48.40215" lon="2.65344">
        <ele>106</ele>
        <time>2011-11-27T11:35:39Z</time>
      </trkpt>
      <trkpt lat="48.40219" lon="2.65347">
        <ele>106</ele>
        <time>2011-11-27T11:35:54Z</time>
      </trkpt>
      <trkpt lat="48.40226" lon="2.65353">
        <ele>106</ele>
        <time>2011-11-27T11:36:14Z</time>
      </trkpt>
      <trkpt lat="48.40229" lon="2.65354">
        <ele>106</ele>
        <time>2011-11-27T11:36:16Z</time>
      </trkpt>
      <trkpt lat="48.40232" lon="2.6536">
        <ele>106</ele>
        <time>2011-11-27T11:36:19Z</time>
      </trkpt>
      <trkpt lat="48.40235" lon="2.65363">
        <ele>106</ele>
        <time>2011-11-27T11:36:22Z</time>
      </trkpt>
      <trkpt lat="48.40242" lon="2.65357">
        <ele>107</ele>
        <time>2011-11-27T11:36:26Z</time>
      </trkpt>
      <trkpt lat="48.40257" lon="2.65341">
        <ele>108</ele>
        <time>2011-11-27T11:36:34Z</time>
      </trkpt>
      <trkpt lat="48.40263" lon="2.65339">
        <ele>108</ele>
        <time>2011-11-27T11:36:40Z</time>
      </trkpt>
      <trkpt lat="48.40278" lon="2.65301">
        <ele>105</ele>
        <time>2011-11-27T11:36:52Z</time>
      </trkpt>
      <trkpt lat="48.40281" lon="2.65294">
        <ele>105</ele>
        <time>2011-11-27T11:36:54Z</time>
      </trkpt>
      <trkpt lat="48.4029" lon="2.65291">
        <ele>105</ele>
        <time>2011-11-27T11:36:58Z</time>
      </trkpt>
      <trkpt lat="48.40294" lon="2.65296">
        <ele>105</ele>
        <time>2011-11-27T11:37:02Z</time>
      </trkpt>
      <trkpt lat="48.40304" lon="2.65303">
        <ele>105</ele>
        <time>2011-11-27T11:37:07Z</time>
      </trkpt>
      <trkpt lat="48.40313" lon="2.65314">
        <ele>105</ele>
        <time>2011-11-27T11:37:12Z</time>
      </trkpt>
      <trkpt lat="48.40317" lon="2.65323">
        <ele>105</ele>
        <time>2011-11-27T11:37:15Z</time>
      </trkpt>
      <trkpt lat="48.40325" lon="2.65326">
        <ele>105</ele>
        <time>2011-11-27T11:37:20Z</time>
      </trkpt>
      <trkpt lat="48.40328" lon="2.65328">
        <ele>105</ele>
        <time>2011-11-27T11:37:22Z</time>
      </trkpt>
      <trkpt lat="48.40335" lon="2.6536">
        <ele>102</ele>
        <time>2011-11-27T11:37:31Z</time>
      </trkpt>
      <trkpt lat="48.40335" lon="2.65386">
        <ele>101</ele>
        <time>2011-11-27T11:37:35Z</time>
      </trkpt>
      <trkpt lat="48.40343" lon="2.65411">
        <ele>100</ele>
        <time>2011-11-27T11:37:40Z</time>
      </trkpt>
      <trkpt lat="48.40344" lon="2.65423">
        <ele>99</ele>
        <time>2011-11-27T11:37:43Z</time>
      </trkpt>
      <trkpt lat="48.40347" lon="2.65433">
        <ele>99</ele>
        <time>2011-11-27T11:37:52Z</time>
      </trkpt>
      <trkpt lat="48.40349" lon="2.65435">
        <ele>99</ele>
        <time>2011-11-27T11:37:55Z</time>
      </trkpt>
      <trkpt lat="48.4035" lon="2.65442">
        <ele>99</ele>
        <time>2011-11-27T11:37:57Z</time>
      </trkpt>
      <trkpt lat="48.40361" lon="2.65485">
        <ele>98</ele>
        <time>2011-11-27T11:38:04Z</time>
      </trkpt>
      <trkpt lat="48.40384" lon="2.65543">
        <ele>98</ele>
        <time>2011-11-27T11:38:19Z</time>
      </trkpt>
      <trkpt lat="48.40385" lon="2.65544">
        <ele>98</ele>
        <time>2011-11-27T11:38:20Z</time>
      </trkpt>
      <trkpt lat="48.4039" lon="2.65544">
        <ele>98</ele>
        <time>2011-11-27T11:38:24Z</time>
      </trkpt>
      <trkpt lat="48.40397" lon="2.65542">
        <ele>98</ele>
        <time>2011-11-27T11:38:29Z</time>
      </trkpt>
      <trkpt lat="48.40414" lon="2.65551">
        <ele>99</ele>
        <time>2011-11-27T11:38:40Z</time>
      </trkpt>
      <trkpt lat="48.40421" lon="2.65554">
        <ele>104</ele>
        <time>2011-11-27T11:38:43Z</time>
      </trkpt>
      <trkpt lat="48.40428" lon="2.65565">
        <ele>104</ele>
        <time>2011-11-27T11:38:48Z</time>
      </trkpt>
      <trkpt lat="48.40431" lon="2.65579">
        <ele>103</ele>
        <time>2011-11-27T11:38:53Z</time>
      </trkpt>
      <trkpt lat="48.40432" lon="2.65585">
        <ele>103</ele>
        <time>2011-11-27T11:38:55Z</time>
      </trkpt>
      <trkpt lat="48.40434" lon="2.65597">
        <ele>103</ele>
        <time>2011-11-27T11:38:59Z</time>
      </trkpt>
      <trkpt lat="48.40442" lon="2.6561">
        <ele>104</ele>
        <time>2011-11-27T11:39:04Z</time>
      </trkpt>
      <trkpt lat="48.40452" lon="2.65631">
        <ele>104</ele>
        <time>2011-11-27T11:39:10Z</time>
      </trkpt>
      <trkpt lat="48.40465" lon="2.65649">
        <ele>105</ele>
        <time>2011-11-27T11:39:15Z</time>
      </trkpt>
      <trkpt lat="48.40478" lon="2.65658">
        <ele>106</ele>
        <time>2011-11-27T11:39:20Z</time>
      </trkpt>
      <trkpt lat="48.40491" lon="2.65686">
        <ele>104</ele>
        <time>2011-11-27T11:39:29Z</time>
      </trkpt>
      <trkpt lat="48.40493" lon="2.65697">
        <ele>104</ele>
        <time>2011-11-27T11:39:32Z</time>
      </trkpt>
      <trkpt lat="48.40496" lon="2.65719">
        <ele>103</ele>
        <time>2011-11-27T11:39:46Z</time>
      </trkpt>
      <trkpt lat="48.40497" lon="2.65745">
        <ele>104</ele>
        <time>2011-11-27T11:39:54Z</time>
      </trkpt>
      <trkpt lat="48.40497" lon="2.65759">
        <ele>103</ele>
        <time>2011-11-27T11:39:57Z</time>
      </trkpt>
      <trkpt lat="48.40494" lon="2.6577">
        <ele>102</ele>
        <time>2011-11-27T11:40:00Z</time>
      </trkpt>
      <trkpt lat="48.4049" lon="2.658">
        <ele>102</ele>
        <time>2011-11-27T11:40:09Z</time>
      </trkpt>
      <trkpt lat="48.40489" lon="2.65809">
        <ele>102</ele>
        <time>2011-11-27T11:40:15Z</time>
      </trkpt>
      <trkpt lat="48.40488" lon="2.65819">
        <ele>102</ele>
        <time>2011-11-27T11:40:19Z</time>
      </trkpt>
      <trkpt lat="48.40481" lon="2.65817">
        <ele>102</ele>
        <time>2011-11-27T11:40:24Z</time>
      </trkpt>
      <trkpt lat="48.40473" lon="2.65821">
        <ele>101</ele>
        <time>2011-11-27T11:40:29Z</time>
      </trkpt>
      <trkpt lat="48.40469" lon="2.65824">
        <ele>101</ele>
        <time>2011-11-27T11:40:32Z</time>
      </trkpt>
      <trkpt lat="48.40467" lon="2.6583">
        <ele>101</ele>
        <time>2011-11-27T11:40:35Z</time>
      </trkpt>
      <trkpt lat="48.4046" lon="2.65839">
        <ele>101</ele>
        <time>2011-11-27T11:40:40Z</time>
      </trkpt>
      <trkpt lat="48.40453" lon="2.6585">
        <ele>101</ele>
        <time>2011-11-27T11:40:45Z</time>
      </trkpt>
      <trkpt lat="48.40446" lon="2.65858">
        <ele>101</ele>
        <time>2011-11-27T11:40:50Z</time>
      </trkpt>
      <trkpt lat="48.40445" lon="2.65866">
        <ele>101</ele>
        <time>2011-11-27T11:40:53Z</time>
      </trkpt>
      <trkpt lat="48.40446" lon="2.65875">
        <ele>101</ele>
        <time>2011-11-27T11:40:55Z</time>
      </trkpt>
      <trkpt lat="48.40441" lon="2.65913">
        <ele>101</ele>
        <time>2011-11-27T11:41:04Z</time>
      </trkpt>
      <trkpt lat="48.40435" lon="2.65924">
        <ele>101</ele>
        <time>2011-11-27T11:41:10Z</time>
      </trkpt>
      <trkpt lat="48.40441" lon="2.65952">
        <ele>102</ele>
        <time>2011-11-27T11:41:19Z</time>
      </trkpt>
      <trkpt lat="48.40447" lon="2.65957">
        <ele>102</ele>
        <time>2011-11-27T11:41:23Z</time>
      </trkpt>
      <trkpt lat="48.4045" lon="2.65972">
        <ele>102</ele>
        <time>2011-11-27T11:41:28Z</time>
      </trkpt>
      <trkpt lat="48.40452" lon="2.65988">
        <ele>102</ele>
        <time>2011-11-27T11:41:34Z</time>
      </trkpt>
      <trkpt lat="48.40442" lon="2.66029">
        <ele>102</ele>
        <time>2011-11-27T11:41:43Z</time>
      </trkpt>
      <trkpt lat="48.40436" lon="2.66033">
        <ele>102</ele>
        <time>2011-11-27T11:41:47Z</time>
      </trkpt>
      <trkpt lat="48.40431" lon="2.66044">
        <ele>102</ele>
        <time>2011-11-27T11:41:52Z</time>
      </trkpt>
      <trkpt lat="48.40428" lon="2.66048">
        <ele>102</ele>
        <time>2011-11-27T11:41:54Z</time>
      </trkpt>
      <trkpt lat="48.40428" lon="2.66055">
        <ele>102</ele>
        <time>2011-11-27T11:41:57Z</time>
      </trkpt>
      <trkpt lat="48.40424" lon="2.66062">
        <ele>102</ele>
        <time>2011-11-27T11:42:01Z</time>
      </trkpt>
      <trkpt lat="48.40396" lon="2.66063">
        <ele>99</ele>
        <time>2011-11-27T11:42:11Z</time>
      </trkpt>
      <trkpt lat="48.40385" lon="2.6607">
        <ele>99</ele>
        <time>2011-11-27T11:42:19Z</time>
      </trkpt>
      <trkpt lat="48.40366" lon="2.66087">
        <ele>99</ele>
        <time>2011-11-27T11:42:48Z</time>
      </trkpt>
      <trkpt lat="48.40363" lon="2.66088">
        <ele>99</ele>
      </trkpt>
      <trkpt lat="48.40296" lon="2.66235">
        <ele>102</ele>
      </trkpt>
      <trkpt lat="48.40277" lon="2.66241">
        <ele>103</ele>
      </trkpt>
      <trkpt lat="48.40275" lon="2.66251">
        <ele>107</ele>
      </trkpt>
      <trkpt lat="48.40257" lon="2.66253">
        <ele>106</ele>
      </trkpt>
      <trkpt lat="48.40216" lon="2.66284">
        <ele>106</ele>
      </trkpt>
      <trkpt lat="48.40204" lon="2.66302">
        <ele>106</ele>
      </trkpt>
      <trkpt lat="48.40175" lon="2.66367">
        <ele>109</ele>
      </trkpt>
      <trkpt lat="48.40166" lon="2.66408">
        <ele>105</ele>
      </trkpt>
      <trkpt lat="48.40182" lon="2.66443">
        <ele>110</ele>
      </trkpt>
      <trkpt lat="48.40188" lon="2.66476">
        <ele>110</ele>
      </trkpt>
      <trkpt lat="48.40183" lon="2.66493">
        <ele>108</ele>
      </trkpt>
      <trkpt lat="48.40155" lon="2.66516">
        <ele>102</ele>
      </trkpt>
      <trkpt lat="48.40151" lon="2.66569">
        <ele>101</ele>
      </trkpt>
      <trkpt lat="48.40094" lon="2.66636">
        <ele>95</ele>
      </trkpt>
      <trkpt lat="48.40058" lon="2.66707">
        <ele>89</ele>
      </trkpt>
      <trkpt lat="48.40026" lon="2.66729">
        <ele>89</ele>
      </trkpt>
      <trkpt lat="48.39993" lon="2.66768">
        <ele>90</ele>
      </trkpt>
      <trkpt lat="48.39922" lon="2.66892">
        <ele>91</ele>
      </trkpt>
      <trkpt lat="48.39906" lon="2.66954">
        <ele>95</ele>
      </trkpt>
      <trkpt lat="48.39992" lon="2.67146">
        <ele>83</ele>
      </trkpt>
      <trkpt lat="48.40049" lon="2.67245">
        <ele>82</ele>
      </trkpt>
      <trkpt lat="48.40094" lon="2.67299">
        <ele>84</ele>
      </trkpt>
      <trkpt lat="48.40138" lon="2.67333">
        <ele>84</ele>
      </trkpt>
      <trkpt lat="48.40255" lon="2.67384">
        <ele>85</ele>
      </trkpt>
      <trkpt lat="48.40297" lon="2.67411">
        <ele>84</ele>
      </trkpt>
      <trkpt lat="48.40385" lon="2.67514">
        <ele>82</ele>
      </trkpt>
      <trkpt lat="48.40404" lon="2.67551">
        <ele>82</ele>
      </trkpt>
      <trkpt lat="48.40468" lon="2.67636">
        <ele>83</ele>
      </trkpt>
      <trkpt lat="48.40497" lon="2.67656">
        <ele>84</ele>
      </trkpt>
      <trkpt lat="48.405" lon="2.67678">
        <ele>84</ele>
      </trkpt>
      <trkpt lat="48.40476" lon="2.67725">
        <ele>83</ele>
      </trkpt>
      <trkpt lat="48.40467" lon="2.67784">
        <ele>84</ele>
      </trkpt>
      <trkpt lat="48.40453" lon="2.67798">
        <ele>83</ele>
      </trkpt>
    </trkseg>
  </trk>
</gpx>